Darstellungsparameter: Aktuell verwendete Einstellungen:
Skalierung der Graphiken ... ?
xyx+y,   Skalierungsfaktor:      Skalierung: Modus: x, Faktor: 1
Darstellungszeitraum ... ?
Vom - - bis: - -   Zeitraum: 25.04.2014 - 24.04.2019
Min/Max/Avg-Anzeige ... ?
Zeige MMA aktuell
Zeige MMA Monat
Zeige MMA alles
Zeige --A aktuell
Zeige --A Monat
Zeige --A alles
Keine MMA-Anzeige
MMA:
Average (ber die Originaldaten)
MMA-Basis: 25.04.2014 - 24.04.2019
Quicknavigation für Darstellung... ?
Tage:      1T, 2T, 3T, 5T -1T -2T -3T -5T +1T +2T +3T +5T
Wochen: 1W, 2W, 3W -1W -2W -3W +1W +2W +3W
Monate: 1M, 3M, 6M -1M -3M -6M +1M +3M +6M
Jahre:    1J, 3J, 5J, 10J -1J -3J -5J -10J +1J +3J +5J +10J
Nutze für die Darstellung ... ?
Originaldaten oder ...
Mittelwerte Minima Maxima auf...
Stundenbasis Tagesbasis Wochenbasis
Monatsbasis Jahresbasis      Datenbasis: Mittelwerte auf Tagesbasis
Darstellen als:
Statistik (Auto) Statistik J:M      Darstellung:
Zur Graphik,    zurück zur Übersicht aller Sensoren.
 
Tabellarische Datenbersicht: ?
 
Sensor: Nr:Datum:Temp:Abs-Feuchte:Windchill:Wind:
Aussen-T/F 1 25-04-2014 00:00:00 16.71562 C 10.55 g/m*3 16.72 C 3.36146 km/h
2 26-04-2014 00:00:00 15.2 C 9.7 g/m*3 15.2 C 2.60104 km/h
3 27-04-2014 00:00:00 13.07674 C 9.32 g/m*3 13.08 C 3.42431 km/h
4 28-04-2014 00:00:00 12.80243 C 8.95 g/m*3 12.8 C 2.25833 km/h
5 29-04-2014 00:00:00 13.43403 C 10.52 g/m*3 13.43 C 1.52569 km/h
6 30-04-2014 00:00:00 14.53507 C 10.56 g/m*3 14.54 C 2.55104 km/h
7 01-05-2014 00:00:00 14.73611 C 10.27 g/m*3 14.74 C 2.21319 km/h
8 02-05-2014 00:00:00 11.71319 C 9.07 g/m*3 11.71 C 6.17083 km/h
9 03-05-2014 00:00:00 10.92708 C 6.08 g/m*3 10.11 C 7.92431 km/h
10 04-05-2014 00:00:00 9.61042 C 6.24 g/m*3 9.61 C 2.69861 km/h
11 05-05-2014 00:00:00 12.60069 C 7.47 g/m*3 12.6 C 2.60382 km/h
12 06-05-2014 00:00:00 13.72083 C 8.81 g/m*3 13.72 C 4.4684 km/h
13 07-05-2014 00:00:00 13.05764 C 9.67 g/m*3 13.06 C 5.52396 km/h
14 08-05-2014 00:00:00 12.32847 C 9.2 g/m*3 12.33 C 7.67813 km/h
15 09-05-2014 00:00:00 15.33403 C 9.3 g/m*3 15.33 C 12.70556 km/h
16 10-05-2014 00:00:00 12.40903 C 8.93 g/m*3 12.41 C 6.08507 km/h
17 11-05-2014 00:00:00 11.45764 C 8.26 g/m*3 11.46 C 10.28576 km/h
18 12-05-2014 00:00:00 11.1941 C 7.59 g/m*3 11.19 C 10.12257 km/h
19 13-05-2014 00:00:00 10.30729 C 8.18 g/m*3 10.31 C 4.77569 km/h
20 14-05-2014 00:00:00 10.63542 C 7.53 g/m*3 10.17 C 6.11493 km/h
21 15-05-2014 00:00:00 10.00382 C 7.56 g/m*3 9.61 C 5.49063 km/h
22 16-05-2014 00:00:00 13.25347 C 8.42 g/m*3 13.25 C 5.19688 km/h
23 17-05-2014 00:00:00 14.22292 C 8.77 g/m*3 14.22 C 3.88333 km/h
24 18-05-2014 00:00:00 15.4809 C 9.81 g/m*3 15.48 C 1.92535 km/h
25 19-05-2014 00:00:00 17.57188 C 10.58 g/m*3 17.57 C 2.8941 km/h
Sensor: Nr:Datum:Temp:Abs-Feuchte:Windchill:Wind:
Aussen-T/F 26 20-05-2014 00:00:00 19.46562 C 11.28 g/m*3 19.47 C 3.35313 km/h
27 21-05-2014 00:00:00 20.29792 C 11.98 g/m*3 20.3 C 2.18715 km/h
28 22-05-2014 00:00:00 20.21806 C 11.51 g/m*3 20.22 C 4.67361 km/h
29 23-05-2014 00:00:00 15.52639 C 11.87 g/m*3 15.53 C 1.81319 km/h
30 24-05-2014 00:00:00 14.72993 C 10.24 g/m*3 14.73 C 5.49754 km/h
31 25-05-2014 00:00:00 15.25071 C 9.75 g/m*3 15.25 C 2.37411 km/h
32 26-05-2014 00:00:00 16.8625 C 11.52 g/m*3 16.86 C 2.50868 km/h
33 27-05-2014 00:00:00 15.19431 C 12.29 g/m*3 15.19 C 2.46682 km/h
34 28-05-2014 00:00:00 14.58118 C 11.05 g/m*3 14.58 C 0.88824 km/h
35 29-05-2014 00:00:00 13.44653 C 10.15 g/m*3 13.45 C 4.20903 km/h
36 30-05-2014 00:00:00 13.2316 C 8.1 g/m*3 13.23 C 6.4316 km/h
37 31-05-2014 00:00:00 13.40382 C 8.63 g/m*3 13.4 C 2.3309 km/h
38 01-06-2014 00:00:00 15.49273 C 9.2 g/m*3 15.49 C 3.79127 km/h
39 02-06-2014 00:00:00 15.88943 C 9.2 g/m*3 15.89 C 2.67439 km/h
40 03-06-2014 00:00:00 15.78662 C 10.07 g/m*3 15.79 C 1.66056 km/h
41 04-06-2014 00:00:00 14.95388 C 11.05 g/m*3 14.95 C 1.76849 km/h
42 05-06-2014 00:00:00 14.55765 C 8.46 g/m*3 14.56 C 9.30569 km/h
43 06-06-2014 00:00:00 17.20312 C 9.93 g/m*3 17.2 C 3.06146 km/h
44 07-06-2014 00:00:00 20.77257 C 13.08 g/m*3 20.77 C 1.46146 km/h
45 08-06-2014 00:00:00 24.09514 C 15.47 g/m*3 24.1 C 2.65521 km/h
46 09-06-2014 00:00:00 25.74583 C 16.79 g/m*3 25.75 C 4.57083 km/h
47 10-06-2014 00:00:00 23.66632 C 15.08 g/m*3 23.67 C 3.61215 km/h
48 11-06-2014 00:00:00 20.10803 C 14.14 g/m*3 20.11 C 5.28102 km/h
49 12-06-2014 00:00:00 19.97431 C 11.47 g/m*3 19.97 C 4.63438 km/h
50 13-06-2014 00:00:00 18.37014 C 10.7 g/m*3 18.37 C 4.99757 km/h
Sensor: Nr:Datum:Temp:Abs-Feuchte:Windchill:Wind:
Aussen-T/F 51 14-06-2014 00:00:00 17.27465 C 9.64 g/m*3 17.27 C 7.26875 km/h
52 15-06-2014 00:00:00 16.86944 C 9.65 g/m*3 16.87 C 5.57049 km/h
53 16-06-2014 00:00:00 15.61944 C 9.95 g/m*3 15.62 C 6.2309 km/h
54 17-06-2014 00:00:00 17.41354 C 9.92 g/m*3 17.41 C 6.95347 km/h
55 18-06-2014 00:00:00 17.76319 C 10.83 g/m*3 17.76 C 5.95417 km/h
56 19-06-2014 00:00:00 15.70791 C 10.11 g/m*3 15.71 C 5.81691 km/h
57 20-06-2014 00:00:00 15.64143 C 9.49 g/m*3 15.64 C 6.86381 km/h
58 21-06-2014 00:00:00 16.62118 C 9.28 g/m*3 16.62 C 5.44514 km/h
59 22-06-2014 00:00:00 16.62782 C 9.39 g/m*3 16.63 C 5.3662 km/h
60 23-06-2014 00:00:00 17.14792 C 9.52 g/m*3 17.15 C 4.6941 km/h
61 24-06-2014 00:00:00 16.64978 C 10.15 g/m*3 16.65 C 2.66407 km/h
62 25-06-2014 00:00:00 17.29096 C 8.33 g/m*3 17.29 C 9.59947 km/h
63 26-06-2014 00:00:00 16.18958 C 8.83 g/m*3 16.19 C 3.23472 km/h
64 27-06-2014 00:00:00 17.54167 C 10.05 g/m*3 17.54 C 3.84826 km/h
65 28-06-2014 00:00:00 16.28043 C 12.11 g/m*3 16.28 C 1.90569 km/h
66 29-06-2014 00:00:00 14.67192 C 11.73 g/m*3 14.67 C 1.98424 km/h
67 30-06-2014 00:00:00 16.05247 C 10.28 g/m*3 16.05 C 6.02776 km/h
68 01-07-2014 00:00:00 15.65035 C 9.38 g/m*3 15.65 C 3.29549 km/h
69 02-07-2014 00:00:00 16.86146 C 9.4 g/m*3 16.86 C 3.72083 km/h
70 03-07-2014 00:00:00 19.78889 C 10.18 g/m*3 19.79 C 4.38785 km/h
71 04-07-2014 00:00:00 20.36076 C 11.92 g/m*3 20.36 C 1.91875 km/h
72 05-07-2014 00:00:00 20.4 C 13.68 g/m*3 20.4 C 6.05158 km/h
73 06-07-2014 00:00:00 23.48509 C 14.74 g/m*3 23.49 C 5.89964 km/h
74 07-07-2014 00:00:00 19.86367 C 11.11 g/m*3 19.86 C 4.52097 km/h
75 08-07-2014 00:00:00 15.57633 C 11.94 g/m*3 15.58 C 5.36327 km/h
Sensor: Nr:Datum:Temp:Abs-Feuchte:Windchill:Wind:
Aussen-T/F 76 09-07-2014 00:00:00 12.97083 C 10.77 g/m*3 12.97 C 4.775 km/h
77 10-07-2014 00:00:00 17.68292 C 13.6 g/m*3 17.68 C 2.85417 km/h
78 11-07-2014 00:00:00 18.42369 C 13.96 g/m*3 18.42 C 3.65422 km/h
79 12-07-2014 00:00:00 18.68363 C 14.09 g/m*3 18.68 C 4.63363 km/h
80 13-07-2014 00:00:00 19.06941 C 14.01 g/m*3 19.07 C 6.10196 km/h
81 14-07-2014 00:00:00 19.60206 C 13.42 g/m*3 19.6 C 5.52675 km/h
82 15-07-2014 00:00:00 21.3216 C 13.19 g/m*3 21.32 C 5.04742 km/h
83 16-07-2014 00:00:00 21.88732 C 14.44 g/m*3 21.89 C 2.04537 km/h
84 17-07-2014 00:00:00 23.77903 C 15.1 g/m*3 23.78 C 2.03468 km/h
85 18-07-2014 00:00:00 24.87935 C 14.98 g/m*3 24.88 C 2.81097 km/h
86 19-07-2014 00:00:00 27.76989 C 15.68 g/m*3 27.77 C 3.57688 km/h
87 20-07-2014 00:00:00 22.68715 C 16.29 g/m*3 22.69 C 1.59931 km/h
88 21-07-2014 00:00:00 20.29965 C 16.02 g/m*3 20.3 C 3.7191 km/h
89 22-07-2014 00:00:00 23.6856 C 17.54 g/m*3 23.69 C 5.41317 km/h
90 23-07-2014 00:00:00 23.11788 C 15.29 g/m*3 23.12 C 2.8635 km/h
91 24-07-2014 00:00:00 20.63922 C 13.19 g/m*3 20.64 C 3.30784 km/h
92 25-07-2014 00:00:00 21.8193 C 14.02 g/m*3 21.82 C 3.15848 km/h
93 26-07-2014 00:00:00 21.92 C 14.36 g/m*3 21.92 C 3.75806 km/h
94 27-07-2014 00:00:00 19.66694 C 14.23 g/m*3 19.67 C 2.08512 km/h
95 28-07-2014 00:00:00 22.3284 C 15.6 g/m*3 22.33 C 4.24321 km/h
96 29-07-2014 00:00:00 19.88194 C 16.44 g/m*3 19.88 C 0.91771 km/h
97 30-07-2014 00:00:00 19.93194 C 14.7 g/m*3 19.93 C 5.88438 km/h
98 31-07-2014 00:00:00 20.20645 C 13.48 g/m*3 20.21 C 1.73513 km/h
99 01-08-2014 00:00:00 20.08438 C 14.19 g/m*3 20.08 C 0.76042 km/h
100 02-08-2014 00:00:00 20.10868 C 14.75 g/m*3 20.11 C 0.96944 km/h
Sensor: Nr:Datum:Temp:Abs-Feuchte:Windchill:Wind:
Aussen-T/F 101 03-08-2014 00:00:00 21.3566 C 15.2 g/m*3 21.36 C 2.01632 km/h
102 04-08-2014 00:00:00 19.00347 C 14.11 g/m*3 19 C 2.36493 km/h
103 05-08-2014 00:00:00 18.77049 C 13.19 g/m*3 18.77 C 1.79063 km/h
104 06-08-2014 00:00:00 17.59618 C 12.66 g/m*3 17.6 C 1.78924 km/h
105 07-08-2014 00:00:00 18.9934 C 13.98 g/m*3 18.99 C 1.84549 km/h
106 08-08-2014 00:00:00 18.87604 C 14.49 g/m*3 18.88 C 1.41354 km/h
107 09-08-2014 00:00:00 20.16771 C 14.07 g/m*3 20.17 C 6.40486 km/h
108 10-08-2014 00:00:00 19.0125 C 14.68 g/m*3 19.01 C 1.77639 km/h
109 11-08-2014 00:00:00 17.0066 C 11.73 g/m*3 17.01 C 5.37257 km/h
110 12-08-2014 00:00:00 17.62431 C 10.84 g/m*3 17.62 C 7.26389 km/h
111 13-08-2014 00:00:00 15.97674 C 12.2 g/m*3 15.98 C 0.91528 km/h
112 14-08-2014 00:00:00 16.15426 C 11.6 g/m*3 16.15 C 5.25355 km/h
113 15-08-2014 00:00:00 14.48638 C 11.45 g/m*3 14.49 C 1.15591 km/h
114 16-08-2014 00:00:00 15.13439 C 11.56 g/m*3 15.13 C 2.57053 km/h
115 17-08-2014 00:00:00 16.14062 C 10.65 g/m*3 16.14 C 6.93576 km/h
116 18-08-2014 00:00:00 16.30417 C 10.34 g/m*3 16.3 C 8.74306 km/h
117 19-08-2014 00:00:00 13.79653 C 9.94 g/m*3 13.8 C 5.50104 km/h
118 20-08-2014 00:00:00 12.68681 C 9.24 g/m*3 12.69 C 1.13785 km/h
119 21-08-2014 00:00:00 12.84653 C 9.32 g/m*3 12.85 C 1.84132 km/h
120 22-08-2014 00:00:00 14.04062 C 9.49 g/m*3 14.04 C 3.62569 km/h
121 23-08-2014 00:00:00 14.26875 C 10.22 g/m*3 14.27 C 4.75104 km/h
122 24-08-2014 00:00:00 11.58993 C 9.69 g/m*3 11.59 C 3.00938 km/h
123 25-08-2014 00:00:00 13.23854 C 10.79 g/m*3 13.24 C 1.33646 km/h
124 26-08-2014 00:00:00 14.79479 C 12.27 g/m*3 14.79 C 0.90139 km/h
125 27-08-2014 00:00:00 15.38741 C 11.99 g/m*3 15.39 C 0.95647 km/h
Sensor: Nr:Datum:Temp:Abs-Feuchte:Windchill:Wind:
Aussen-T/F 126 28-08-2014 00:00:00 15.84062 C 12.56 g/m*3 15.84 C 0.51181 km/h
127 29-08-2014 00:00:00 18.05278 C 13.67 g/m*3 18.05 C 2.29792 km/h
128 30-08-2014 00:00:00 16.23299 C 12.57 g/m*3 16.23 C 2.61076 km/h
129 31-08-2014 00:00:00 14.70069 C 11.69 g/m*3 14.7 C 1.51493 km/h
130 01-09-2014 00:00:00 14.60556 C 11.45 g/m*3 14.61 C 1.21285 km/h
131 02-09-2014 00:00:00 14.6191 C 11.36 g/m*3 14.62 C 1.05625 km/h
132 03-09-2014 00:00:00 15.03299 C 11.56 g/m*3 15.03 C 1.81111 km/h
133 04-09-2014 00:00:00 16.74028 C 12.78 g/m*3 16.74 C 1.52813 km/h
134 05-09-2014 00:00:00 18.15903 C 14.17 g/m*3 18.16 C 0 km/h
135 06-09-2014 00:00:00 17.4559 C 13.79 g/m*3 17.46 C 0.1 km/h
136 07-09-2014 00:00:00 18.08889 C 13.61 g/m*3 18.09 C 1.75211 km/h
137 08-09-2014 00:00:00 17.83403 C 12.79 g/m*3 17.83 C 1.96528 km/h
138 09-09-2014 00:00:00 15.64965 C 10.86 g/m*3 15.65 C 2.73125 km/h
139 10-09-2014 00:00:00 14.27882 C 10.23 g/m*3 14.28 C 3.28021 km/h
140 11-09-2014 00:00:00 14.96111 C 10.63 g/m*3 14.96 C 3.87813 km/h
141 12-09-2014 00:00:00 14.12153 C 10.3 g/m*3 14.12 C 4.47813 km/h
142 13-09-2014 00:00:00 16.12118 C 12.18 g/m*3 16.12 C 2.54861 km/h
143 14-09-2014 00:00:00 16.65196 C 12.48 g/m*3 16.65 C 0.83701 km/h
144 15-09-2014 00:00:00 16.079 C 12.53 g/m*3 16.08 C 1.20427 km/h
145 16-09-2014 00:00:00 16.93264 C 12.99 g/m*3 16.93 C 1.58993 km/h
146 17-09-2014 00:00:00 16.05139 C 12.6 g/m*3 16.05 C 0.34549 km/h
147 18-09-2014 00:00:00 17.4875 C 14.25 g/m*3 17.49 C 0.12222 km/h
148 19-09-2014 00:00:00 18.38993 C 14.98 g/m*3 18.39 C 0.84271 km/h
149 20-09-2014 00:00:00 17.14931 C 14.08 g/m*3 17.15 C 0.35035 km/h
150 21-09-2014 00:00:00 15.46146 C 12.57 g/m*3 15.46 C 2.04618 km/h
Sensor: Nr:Datum:Temp:Abs-Feuchte:Windchill:Wind:
Aussen-T/F 151 22-09-2014 00:00:00 12.53194 C 9.51 g/m*3 12.53 C 4.61667 km/h
152 23-09-2014 00:00:00 9.91146 C 8.49 g/m*3 9.91 C 0.53438 km/h
153 24-09-2014 00:00:00 11.10451 C 9.05 g/m*3 11.1 C 0.55208 km/h
154 25-09-2014 00:00:00 13.67917 C 10.13 g/m*3 13.68 C 2.68299 km/h
155 26-09-2014 00:00:00 14.24896 C 10.9 g/m*3 14.25 C 2.4566 km/h
156 27-09-2014 00:00:00 15.59965 C 12.14 g/m*3 15.6 C 0.13924 km/h
157 28-09-2014 00:00:00 14.22743 C 11.63 g/m*3 14.23 C 0.33889 km/h
158 29-09-2014 00:00:00 15.41493 C 12.47 g/m*3 15.41 C 0.34479 km/h
159 30-09-2014 00:00:00 16.83438 C 13.35 g/m*3 16.83 C 1.14063 km/h
160 01-10-2014 00:00:00 15.87778 C 12.8 g/m*3 15.88 C 0 km/h
161 02-10-2014 00:00:00 14.35799 C 11.8 g/m*3 14.36 C 0 km/h
162 03-10-2014 00:00:00 13.73785 C 11.32 g/m*3 13.74 C 0.07257 km/h
163 04-10-2014 00:00:00 12.86979 C 10.48 g/m*3 12.87 C 0.20069 km/h
164 05-10-2014 00:00:00 12.94097 C 10.63 g/m*3 12.94 C 1.02431 km/h
165 06-10-2014 00:00:00 14.3 C 11.1 g/m*3 14.3 C 2.03299 km/h
166 07-10-2014 00:00:00 13.71806 C 10.94 g/m*3 13.72 C 4.47847 km/h
167 08-10-2014 00:00:00 13.3 C 11.28 g/m*3 13.3 C 0.23817 km/h
168 09-10-2014 00:00:00 15.17173 C 12.66 g/m*3 15.17 C 1.5644 km/h
169 10-10-2014 00:00:00 14.20902 C 11.78 g/m*3 14.21 C 0.24471 km/h
170 11-10-2014 00:00:00 14.77847 C 12.15 g/m*3 14.78 C 0.47778 km/h
171 12-10-2014 00:00:00 12.52744 C 10.53 g/m*3 12.53 C 1.45379 km/h
172 13-10-2014 00:00:00 14.72014 C 12.2 g/m*3 14.72 C 0.59097 km/h
173 14-10-2014 00:00:00 12.54495 C 10.49 g/m*3 12.54 C 0.69443 km/h
174 15-10-2014 00:00:00 11.65639 C 9.95 g/m*3 11.66 C 1.30827 km/h
175 16-10-2014 00:00:00 14.02682 C 11.48 g/m*3 14.03 C 1.30591 km/h
Sensor: Nr:Datum:Temp:Abs-Feuchte:Windchill:Wind:
Aussen-T/F 176 17-10-2014 00:00:00 14.05977 C 11.35 g/m*3 14.06 C 2.25785 km/h
177 18-10-2014 00:00:00 12.49887 C 10.74 g/m*3 12.5 C 0.15094 km/h
178 19-10-2014 00:00:00 15.09722 C 11.96 g/m*3 15.1 C 4.15972 km/h
179 20-10-2014 00:00:00 15.06015 C 10.81 g/m*3 15.06 C 3.74023 km/h
180 21-10-2014 00:00:00 11.78491 C 8.95 g/m*3 11.78 C 9.22526 km/h
181 22-10-2014 00:00:00 8.88438 C 7.46 g/m*3 6.97 C 11.95208 km/h
182 23-10-2014 00:00:00 10.3816 C 8.47 g/m*3 10.38 C 2.97708 km/h
183 24-10-2014 00:00:00 10.59097 C 8.81 g/m*3 10.59 C 0.78993 km/h
184 25-10-2014 00:00:00 11.53056 C 9.78 g/m*3 11.53 C 1.85972 km/h
185 26-10-2014 00:00:00 11.35625 C 9.78 g/m*3 11.36 C 0.49444 km/h
186 27-10-2014 00:00:00 9.22813 C 8.6 g/m*3 9.23 C 1.15104 km/h
187 28-10-2014 00:00:00 7.93681 C 7.28 g/m*3 7.94 C 2.42257 km/h
188 29-10-2014 00:00:00 9.50556 C 8.33 g/m*3 9.51 C 1.58542 km/h
189 30-10-2014 00:00:00 12.10625 C 10.39 g/m*3 12.11 C 0.08333 km/h
190 31-10-2014 00:00:00 12.05903 C 10.38 g/m*3 12.06 C 0.10556 km/h
191 01-11-2014 00:00:00 10.92674 C 9.79 g/m*3 10.93 C 0.10556 km/h
192 02-11-2014 00:00:00 11.24448 C 9.89 g/m*3 11.24 C 0.34733 km/h
193 03-11-2014 00:00:00 13.84028 C 10.77 g/m*3 13.84 C 3.79201 km/h
194 04-11-2014 00:00:00 11.22049 C 9.8 g/m*3 11.22 C 1.27153 km/h
195 05-11-2014 00:00:00 9.33229 C 8.58 g/m*3 9.33 C 1.61389 km/h
196 06-11-2014 00:00:00 6.59514 C 6.99 g/m*3 6.6 C 1.97014 km/h
197 07-11-2014 00:00:00 5.60208 C 6.7 g/m*3 5.6 C 1.42326 km/h
198 08-11-2014 00:00:00 8.8941 C 8.01 g/m*3 8.89 C 2.15833 km/h
199 09-11-2014 00:00:00 6.62257 C 7.32 g/m*3 6.62 C 0.41111 km/h
200 10-11-2014 00:00:00 8.76389 C 8.37 g/m*3 8.76 C 0.73333 km/h
Sensor: Nr:Datum:Temp:Abs-Feuchte:Windchill:Wind:
Aussen-T/F 201 11-11-2014 00:00:00 8.47553 C 8.1 g/m*3 8.48 C 1.41135 km/h
202 12-11-2014 00:00:00 9.50104 C 8.67 g/m*3 9.5 C 0.42778 km/h
203 13-11-2014 00:00:00 9.66736 C 8.89 g/m*3 9.67 C 1.50417 km/h
204 14-11-2014 00:00:00 10.60174 C 8.79 g/m*3 10.6 C 2.44688 km/h
205 15-11-2014 00:00:00 9.75938 C 8.75 g/m*3 9.76 C 1.73472 km/h
206 16-11-2014 00:00:00 8.75674 C 8.46 g/m*3 8.76 C 0.54468 km/h
207 17-11-2014 00:00:00 8.71146 C 8.45 g/m*3 8.71 C 1.41667 km/h
208 18-11-2014 00:00:00 8.62491 C 8.33 g/m*3 8.62 C 0.74021 km/h
209 19-11-2014 00:00:00 8.07465 C 7.97 g/m*3 8.07 C 0.95 km/h
210 20-11-2014 00:00:00 6.45486 C 7.07 g/m*3 6.45 C 1.16215 km/h
211 21-11-2014 00:00:00 5.36458 C 6.62 g/m*3 5.36 C 2.12778 km/h
212 22-11-2014 00:00:00 5.83576 C 6.88 g/m*3 5.84 C 1.56736 km/h
213 23-11-2014 00:00:00 6.30104 C 7.18 g/m*3 6.3 C 1.04549 km/h
214 24-11-2014 00:00:00 7.36679 C 7.51 g/m*3 7.37 C 2.53875 km/h
215 25-11-2014 00:00:00 3.04781 C 5.83 g/m*3 3.05 C 1.32669 km/h
216 26-11-2014 00:00:00 5.29848 C 6.22 g/m*3 5.3 C 1.90985 km/h
217 27-11-2014 00:00:00 5.85447 C 6.68 g/m*3 5.85 C 0.76576 km/h
218 28-11-2014 00:00:00 5.42203 C 6.42 g/m*3 5.42 C 2.77881 km/h
219 29-11-2014 00:00:00 4.46596 C 5.86 g/m*3 4.47 C 3.27684 km/h
220 30-11-2014 00:00:00 3.88993 C 5.8 g/m*3 3.89 C 2.0684 km/h
221 01-12-2014 00:00:00 3.33299 C 5.54 g/m*3 3.33 C 4.97847 km/h
222 02-12-2014 00:00:00 1.63731 C 4.95 g/m*3 1.64 C 1.81769 km/h
223 03-12-2014 00:00:00 1.74095 C 5.13 g/m*3 1.74 C 0.64828 km/h
224 04-12-2014 00:00:00 2.32917 C 5.27 g/m*3 2.33 C 0.57778 km/h
225 05-12-2014 00:00:00 4.15278 C 5.96 g/m*3 4.15 C 1.1 km/h
Sensor: Nr:Datum:Temp:Abs-Feuchte:Windchill:Wind:
Aussen-T/F 226 06-12-2014 00:00:00 4.51389 C 6.25 g/m*3 4.51 C 1.02222 km/h
227 07-12-2014 00:00:00 4.32049 C 5.99 g/m*3 2.62 C 6.99236 km/h
228 08-12-2014 00:00:00 3.10625 C 5.58 g/m*3 3.11 C 4.70972 km/h
229 09-12-2014 00:00:00 2.57569 C 5.57 g/m*3 2.58 C 1.39549 km/h
230 10-12-2014 00:00:00 4.42118 C 5.88 g/m*3 2.4 C 8.19653 km/h
231 11-12-2014 00:00:00 6.26736 C 6.63 g/m*3 3.73 C 12.32882 km/h
232 12-12-2014 00:00:00 9.07951 C 7.61 g/m*3 6.46 C 17.66285 km/h
233 13-12-2014 00:00:00 4.45625 C 6.32 g/m*3 4.46 C 1.54028 km/h
234 14-12-2014 00:00:00 2.59063 C 5.59 g/m*3 2.59 C 1.16667 km/h
235 15-12-2014 00:00:00 3.42986 C 5.74 g/m*3 3.43 C 4.72847 km/h
236 16-12-2014 00:00:00 6.12049 C 6.72 g/m*3 6.12 C 4.44201 km/h
237 17-12-2014 00:00:00 6.08021 C 6.74 g/m*3 4.16 C 9.02778 km/h
238 18-12-2014 00:00:00 11.91597 C 9.57 g/m*3 11.92 C 11.55764 km/h
239 19-12-2014 00:00:00 10.45243 C 8.4 g/m*3 8.16 C 17.81979 km/h
240 20-12-2014 00:00:00 5.90764 C 6.17 g/m*3 3.42 C 11.65868 km/h
241 21-12-2014 00:00:00 6.41042 C 6.57 g/m*3 4.33 C 10.07639 km/h
242 22-12-2014 00:00:00 8.375 C 7.41 g/m*3 5.47 C 18.66424 km/h
243 23-12-2014 00:00:00 10.04444 C 8.07 g/m*3 8.35 C 12.13444 km/h
244 24-12-2014 00:00:00 8.3214 C 7.27 g/m*3 5.8 C 15.37439 km/h
245 25-12-2014 00:00:00 5.2875 C 5.93 g/m*3 3.5 C 7.90134 km/h
246 26-12-2014 00:00:00 2.31469 C 5.51 g/m*3 2.31 C 0.73846 km/h
247 27-12-2014 00:00:00 1.46649 C 5.08 g/m*3 -0.05 C 5.27487 km/h
248 28-12-2014 00:00:00 -3.09591 C 3.12 g/m*3 -5.63 C 6.10864 km/h
249 29-12-2014 00:00:00 -0.46157 C 4.21 g/m*3 -2.74 C 6.45746 km/h
250 30-12-2014 00:00:00 2.6765 C 5.38 g/m*3 2.68 C 2.70656 km/h
Sensor: Nr:Datum:Temp:Abs-Feuchte:Windchill:Wind:
Aussen-T/F 251 31-12-2014 00:00:00 2.46053 C 5.38 g/m*3 2.46 C 3.36711 km/h
252 01-01-2015 00:00:00 1.89397 C 5.32 g/m*3 1.89 C 1.90517 km/h
253 02-01-2015 00:00:00 3.6411 C 5.53 g/m*3 -0.26 C 17.13767 km/h
254 03-01-2015 00:00:00 1.94125 C 5.24 g/m*3 1.94 C 4.05563 km/h
255 04-01-2015 00:00:00 2.94172 C 5.55 g/m*3 2.94 C 4.26258 km/h
256 05-01-2015 00:00:00 -0.02447 C 4.6 g/m*3 -0.02 C 2.20106 km/h
257 06-01-2015 00:00:00 0.48846 C 4.64 g/m*3 -2.1 C 7.80577 km/h
258 07-01-2015 00:00:00 2.52604 C 5.32 g/m*3 1.03 C 5.60302 km/h
259 08-01-2015 00:00:00 6.62222 C 7.01 g/m*3 4.67 C 9.65694 km/h
260 09-01-2015 00:00:00 9.27879 C 7.71 g/m*3 6.64 C 18.31742 km/h
261 10-01-2015 00:00:00 13.56872 C 9.75 g/m*3 13.57 C 20.23128 km/h
262 11-01-2015 00:00:00 5.45068 C 5.34 g/m*3 2.3 C 15.025 km/h
263 12-01-2015 00:00:00 6.91962 C 6.43 g/m*3 4.05 C 15.49623 km/h
264 13-01-2015 00:00:00 10.09231 C 7.13 g/m*3 8 C 15.25385 km/h
265 14-01-2015 00:00:00 5.9911 C 6.14 g/m*3 3.38 C 12.45466 km/h
266 15-01-2015 00:00:00 10.14352 C 7.22 g/m*3 7.78 C 17.71852 km/h
267 16-01-2015 00:00:00 6.66424 C 6.7 g/m*3 6.66 C 2.96111 km/h
268 17-01-2015 00:00:00 3.35174 C 5.57 g/m*3 3.35 C 3.18576 km/h
269 18-01-2015 00:00:00 1.91111 C 4.67 g/m*3 1.91 C 3.82014 km/h
270 19-01-2015 00:00:00 0.89028 C 4.6 g/m*3 0.89 C 2.03229 km/h
271 20-01-2015 00:00:00 0.86285 C 4.67 g/m*3 0.86 C 1.33021 km/h
272 21-01-2015 00:00:00 -0.0414 C 4.29 g/m*3 -0.04 C 1.65158 km/h
273 22-01-2015 00:00:00 1.45625 C 4.54 g/m*3 1.46 C 3.13889 km/h
274 23-01-2015 00:00:00 1.33299 C 4.76 g/m*3 1.33 C 2.80208 km/h
275 24-01-2015 00:00:00 1.04056 C 4.77 g/m*3 -0.73 C 5.74337 km/h
Sensor: Nr:Datum:Temp:Abs-Feuchte:Windchill:Wind:
Aussen-T/F 276 25-01-2015 00:00:00 2.19444 C 5.31 g/m*3 2.19 C 4.22049 km/h
277 26-01-2015 00:00:00 3.05694 C 5.67 g/m*3 0.91 C 7.78264 km/h
278 27-01-2015 00:00:00 3.85208 C 5.9 g/m*3 3.85 C 4.30729 km/h
279 28-01-2015 00:00:00 4.1184 C 5.82 g/m*3 2.1 C 8.01285 km/h
280 29-01-2015 00:00:00 3.03715 C 5.26 g/m*3 0.69 C 8.50625 km/h
281 30-01-2015 00:00:00 1.92569 C 5 g/m*3 0.2 C 5.97153 km/h
282 31-01-2015 00:00:00 2.07143 C 4.89 g/m*3 -0.34 C 8.10635 km/h
283 01-02-2015 00:00:00 2.04274 C 5.19 g/m*3 2.04 C 4.15726 km/h
284 02-02-2015 00:00:00 2.35794 C 5.07 g/m*3 0.46 C 6.64881 km/h
285 03-02-2015 00:00:00 0.88769 C 4.67 g/m*3 0.89 C 1.89744 km/h
286 04-02-2015 00:00:00 0.04848 C 4.23 g/m*3 0.05 C 4.45152 km/h
287 05-02-2015 00:00:00 -1.86778 C 3.56 g/m*3 -4.4 C 6.55111 km/h
288 06-02-2015 00:00:00 0.42153 C 3.48 g/m*3 -2.87 C 10.225 km/h
289 07-02-2015 00:00:00 -0.6316 C 3.75 g/m*3 -0.63 C 4.67222 km/h
290 08-02-2015 00:00:00 3.19444 C 4.92 g/m*3 0.43 C 10.28889 km/h
291 09-02-2015 00:00:00 4.06597 C 5.81 g/m*3 4.07 C 4.70139 km/h
292 10-02-2015 00:00:00 4.96528 C 6.22 g/m*3 4.97 C 2.52674 km/h
293 11-02-2015 00:00:00 3.82917 C 5.48 g/m*3 3.83 C 2.88576 km/h
294 12-02-2015 00:00:00 2.75556 C 5.23 g/m*3 2.76 C 2.66979 km/h
295 13-02-2015 00:00:00 2.27396 C 5.05 g/m*3 2.27 C 3.31458 km/h
296 14-02-2015 00:00:00 3.73438 C 5.41 g/m*3 3.73 C 4.48993 km/h
297 15-02-2015 00:00:00 1.72778 C 4.87 g/m*3 1.73 C 2.99688 km/h
298 16-02-2015 00:00:00 1.82744 C 4.86 g/m*3 1.83 C 2.50253 km/h
299 17-02-2015 00:00:00 3.31146 C 5.36 g/m*3 3.31 C 2.30903 km/h
300 18-02-2015 00:00:00 4.09479 C 5.7 g/m*3 4.09 C 1.95556 km/h
Sensor: Nr:Datum:Temp:Abs-Feuchte:Windchill:Wind:
Aussen-T/F 301 19-02-2015 00:00:00 0.94861 C 4.56 g/m*3 0.95 C 3.9875 km/h
302 20-02-2015 00:00:00 6.96389 C 6.01 g/m*3 6.02 C 5.88299 km/h
303 21-02-2015 00:00:00 5.27535 C 5.92 g/m*3 4.35 C 5.1316 km/h
304 22-02-2015 00:00:00 3.72083 C 5.16 g/m*3 3.72 C 3.02569 km/h
305 23-02-2015 00:00:00 3.46944 C 5.46 g/m*3 3.47 C 3.4316 km/h
306 24-02-2015 00:00:00 4.88611 C 5.73 g/m*3 2.69 C 9.24757 km/h
307 25-02-2015 00:00:00 4.28403 C 5.77 g/m*3 4.28 C 4.60903 km/h
308 26-02-2015 00:00:00 6.06354 C 6.54 g/m*3 6.06 C 2.2059 km/h
309 27-02-2015 00:00:00 5.01736 C 6.24 g/m*3 3.98 C 5.31319 km/h
310 28-02-2015 00:00:00 2.37187 C 4.89 g/m*3 2.37 C 4.01875 km/h
311 01-03-2015 00:00:00 7.71493 C 6.56 g/m*3 6.38 C 7.74549 km/h
312 02-03-2015 00:00:00 6.14653 C 5.83 g/m*3 3.74 C 11.49028 km/h
313 03-03-2015 00:00:00 5.52812 C 5.51 g/m*3 2.97 C 11.61563 km/h
314 04-03-2015 00:00:00 4.51771 C 5.45 g/m*3 2.36 C 8.80347 km/h
315 05-03-2015 00:00:00 5.08681 C 5.68 g/m*3 3.83 C 5.97743 km/h
316 06-03-2015 00:00:00 4.14931 C 5.4 g/m*3 4.15 C 2.11424 km/h
317 07-03-2015 00:00:00 4.96007 C 5.52 g/m*3 4.96 C 2.44757 km/h
318 08-03-2015 00:00:00 6.05625 C 6.05 g/m*3 6.06 C 1.36181 km/h
319 09-03-2015 00:00:00 7.81354 C 6.91 g/m*3 7.81 C 2.38021 km/h
320 10-03-2015 00:00:00 5.56319 C 6.83 g/m*3 5.56 C 0.71111 km/h
321 11-03-2015 00:00:00 4.39549 C 5.7 g/m*3 4.4 C 1.94618 km/h
322 12-03-2015 00:00:00 3.92222 C 5.22 g/m*3 3.92 C 2.76319 km/h
323 13-03-2015 00:00:00 4.14514 C 4.91 g/m*3 4.15 C 4.83576 km/h
324 14-03-2015 00:00:00 4.55451 C 5.45 g/m*3 4.55 C 3.46875 km/h
325 15-03-2015 00:00:00 4.61042 C 5.92 g/m*3 4.61 C 2.91944 km/h
Sensor: Nr:Datum:Temp:Abs-Feuchte:Windchill:Wind:
Aussen-T/F 326 16-03-2015 00:00:00 4.68368 C 5.77 g/m*3 4.68 C 2.40382 km/h
327 17-03-2015 00:00:00 7.26632 C 6.46 g/m*3 7.27 C 2.26007 km/h
328 18-03-2015 00:00:00 9.08924 C 7.15 g/m*3 9.09 C 3.88542 km/h
329 19-03-2015 00:00:00 7.62431 C 7.42 g/m*3 6.41 C 7.21389 km/h
330 20-03-2015 00:00:00 8.07465 C 6.84 g/m*3 8.07 C 3.93021 km/h
331 21-03-2015 00:00:00 5.69201 C 6.4 g/m*3 5.69 C 3.88542 km/h
332 22-03-2015 00:00:00 5.19792 C 5.68 g/m*3 3.57 C 7.23924 km/h
333 23-03-2015 00:00:00 3.85521 C 5.3 g/m*3 3.86 C 2.90382 km/h
334 24-03-2015 00:00:00 6.94167 C 6.26 g/m*3 6.94 C 2.91528 km/h
335 25-03-2015 00:00:00 7.68056 C 6.81 g/m*3 6.58 C 6.80903 km/h
336 26-03-2015 00:00:00 7.17257 C 6.06 g/m*3 5.64 C 8.2059 km/h
337 27-03-2015 00:00:00 7.64965 C 6.05 g/m*3 5.98 C 9.23854 km/h
338 28-03-2015 00:00:00 8.51667 C 6.75 g/m*3 7.35 C 7.60521 km/h
339 29-03-2015 00:00:00 11.63659 C 8.72 g/m*3 11.64 C 18.53152 km/h
340 30-03-2015 00:00:00 8.21597 C 5.97 g/m*3 6.12 C 12.19757 km/h
341 31-03-2015 00:00:00 10.06181 C 7 g/m*3 7.3 C 21.68507 km/h
342 01-04-2015 00:00:00 6.38924 C 5.24 g/m*3 3.35 C 15.81111 km/h
343 02-04-2015 00:00:00 6.45868 C 5.51 g/m*3 3.6 C 14.65 km/h
344 03-04-2015 00:00:00 5.87951 C 5.14 g/m*3 5.88 C 4.05417 km/h
345 04-04-2015 00:00:00 6.24896 C 5.67 g/m*3 5.11 C 6.17118 km/h
346 05-04-2015 00:00:00 5.21354 C 4.8 g/m*3 5.21 C 4.42118 km/h
347 06-04-2015 00:00:00 5.33542 C 5.34 g/m*3 4.44 C 5.05069 km/h
348 07-04-2015 00:00:00 5.98646 C 5.54 g/m*3 5.99 C 2.74132 km/h
349 08-04-2015 00:00:00 8.43776 C 6.6 g/m*3 8.44 C 3.39685 km/h
350 09-04-2015 00:00:00 11.19653 C 7.82 g/m*3 11.2 C 2.82014 km/h
Sensor: Nr:Datum:Temp:Abs-Feuchte:Windchill:Wind:
Aussen-T/F 351 10-04-2015 00:00:00 13.22708 C 7.82 g/m*3 13.23 C 2.98611 km/h
352 11-04-2015 00:00:00 12.37118 C 7.71 g/m*3 12.37 C 9.77674 km/h
353 12-04-2015 00:00:00 11.34444 C 7.19 g/m*3 11.34 C 5.34861 km/h
354 13-04-2015 00:00:00 11.50104 C 7.22 g/m*3 11.5 C 7.44931 km/h
355 14-04-2015 00:00:00 13.37778 C 7.78 g/m*3 13.38 C 6.35625 km/h
356 15-04-2015 00:00:00 16.43472 C 8.89 g/m*3 16.43 C 5.41354 km/h
357 16-04-2015 00:00:00 15.04757 C 8.96 g/m*3 15.05 C 3.66319 km/h
358 17-04-2015 00:00:00 11.41736 C 6.97 g/m*3 11.42 C 7.43646 km/h
359 18-04-2015 00:00:00 8.60486 C 5.59 g/m*3 8.6 C 4.73021 km/h
360 19-04-2015 00:00:00 9.50903 C 5.72 g/m*3 9.51 C 4.27813 km/h
361 20-04-2015 00:00:00 12.20312 C 6.58 g/m*3 12.2 C 4.43368 km/h
362 21-04-2015 00:00:00 13.69549 C 7.17 g/m*3 13.7 C 3.88438 km/h
363 22-04-2015 00:00:00 10.77465 C 6.86 g/m*3 10.03 C 7.45 km/h
364 23-04-2015 00:00:00 10.84062 C 6.95 g/m*3 10.84 C 2.92813 km/h
365 24-04-2015 00:00:00 13.43403 C 7.3 g/m*3 13.43 C 4.69097 km/h
366 25-04-2015 00:00:00 12.95486 C 9.17 g/m*3 12.95 C 4.39583 km/h
367 26-04-2015 00:00:00 15.34444 C 10.37 g/m*3 15.34 C 5.64549 km/h
368 27-04-2015 00:00:00 10.42014 C 9.13 g/m*3 10.42 C 4.14514 km/h
369 28-04-2015 00:00:00 9.15382 C 6.56 g/m*3 8.76 C 5.09965 km/h
370 29-04-2015 00:00:00 8.3059 C 6.18 g/m*3 8.31 C 2.24132 km/h
371 30-04-2015 00:00:00 9.85764 C 7.53 g/m*3 9.02 C 7.16875 km/h
372 01-05-2015 00:00:00 8.17979 C 6.92 g/m*3 8.18 C 2.25331 km/h
373 02-05-2015 00:00:00 9.88958 C 7.29 g/m*3 9.89 C 1.96319 km/h
374 03-05-2015 00:00:00 13.80469 C 10.72 g/m*3 13.8 C 2.10866 km/h
375 04-05-2015 00:00:00 16.61875 C 11.47 g/m*3 16.62 C 4.02569 km/h
Sensor: Nr:Datum:Temp:Abs-Feuchte:Windchill:Wind:
Aussen-T/F 376 05-05-2015 00:00:00 18.45035 C 11.75 g/m*3 18.45 C 8.31319 km/h
377 06-05-2015 00:00:00 13.3566 C 8.05 g/m*3 13.36 C 8.00278 km/h
378 07-05-2015 00:00:00 13.35764 C 7.64 g/m*3 13.36 C 7.01944 km/h
379 08-05-2015 00:00:00 14.46632 C 8.54 g/m*3 14.47 C 2.17917 km/h
380 09-05-2015 00:00:00 15.2441 C 9.88 g/m*3 15.24 C 7.66458 km/h
381 10-05-2015 00:00:00 14.78229 C 9.51 g/m*3 14.78 C 3.62014 km/h
382 11-05-2015 00:00:00 17.12812 C 10.77 g/m*3 17.13 C 2.08542 km/h
383 12-05-2015 00:00:00 18.0309 C 11.48 g/m*3 18.03 C 5.18785 km/h
384 13-05-2015 00:00:00 14.45208 C 8.38 g/m*3 14.45 C 2.43125 km/h
385 14-05-2015 00:00:00 14.14351 C 8.85 g/m*3 14.14 C 2.80386 km/h
386 15-05-2015 00:00:00 15.02882 C 9.97 g/m*3 15.03 C 6.18542 km/h
387 16-05-2015 00:00:00 12.01528 C 8.4 g/m*3 12.02 C 4.44549 km/h
388 17-05-2015 00:00:00 14.18924 C 8.59 g/m*3 14.19 C 2.83299 km/h
389 18-05-2015 00:00:00 15.27535 C 8.56 g/m*3 15.28 C 6.43993 km/h
390 19-05-2015 00:00:00 13.64941 C 7.16 g/m*3 13.65 C 9.52213 km/h
391 20-05-2015 00:00:00 11.71144 C 7.38 g/m*3 11.71 C 4.75166 km/h
392 21-05-2015 00:00:00 11.60764 C 7.25 g/m*3 11.61 C 5.12847 km/h
393 22-05-2015 00:00:00 15.74722 C 8.2 g/m*3 15.75 C 2.84028 km/h
394 23-05-2015 00:00:00 15.85278 C 9.6 g/m*3 15.85 C 3.09653 km/h
395 24-05-2015 00:00:00 17.02887 C 10.98 g/m*3 17.03 C 3.34789 km/h
396 25-05-2015 00:00:00 13.82968 C 10.51 g/m*3 13.83 C 2.20645 km/h
397 26-05-2015 00:00:00 11.87604 C 8 g/m*3 11.88 C 4.67257 km/h
398 27-05-2015 00:00:00 11.63958 C 7.33 g/m*3 11.64 C 2.82326 km/h
399 28-05-2015 00:00:00 14.21944 C 8.5 g/m*3 14.22 C 5.00625 km/h
400 29-05-2015 00:00:00 13.27367 C 8.77 g/m*3 13.27 C 5.1516 km/h
Sensor: Nr:Datum:Temp:Abs-Feuchte:Windchill:Wind:
Aussen-T/F 401 30-05-2015 00:00:00 12.66319 C 7.91 g/m*3 12.66 C 7.02986 km/h
402 31-05-2015 00:00:00 14.50903 C 9.14 g/m*3 14.51 C 8.0316 km/h
403 01-06-2015 00:00:00 14.86667 C 10.09 g/m*3 14.87 C 4.53472 km/h
404 02-06-2015 00:00:00 16.57639 C 10.34 g/m*3 16.58 C 6.47049 km/h
405 03-06-2015 00:00:00 17.74965 C 10.72 g/m*3 17.75 C 5.28993 km/h
406 04-06-2015 00:00:00 18.54896 C 10.38 g/m*3 18.55 C 3.23854 km/h
407 05-06-2015 00:00:00 22.1191 C 13.26 g/m*3 22.12 C 2.38889 km/h
408 06-06-2015 00:00:00 19.94028 C 13.78 g/m*3 19.94 C 5.78611 km/h
409 07-06-2015 00:00:00 18.04306 C 9.22 g/m*3 18.04 C 5.15938 km/h
410 08-06-2015 00:00:00 16.17222 C 8.78 g/m*3 16.17 C 7.89479 km/h
411 09-06-2015 00:00:00 14.94792 C 7.98 g/m*3 14.95 C 5.97396 km/h
412 10-06-2015 00:00:00 17.10208 C 9.63 g/m*3 17.1 C 3.88889 km/h
413 11-06-2015 00:00:00 19.95895 C 10.65 g/m*3 19.96 C 4.9414 km/h
414 12-06-2015 00:00:00 19.48699 C 13.09 g/m*3 19.49 C 2.45576 km/h
415 13-06-2015 00:00:00 18.63958 C 13.62 g/m*3 18.64 C 3.19896 km/h
416 14-06-2015 00:00:00 19.07708 C 11.26 g/m*3 19.08 C 3.61215 km/h
417 15-06-2015 00:00:00 17.59271 C 11.21 g/m*3 17.59 C 5.50208 km/h
418 16-06-2015 00:00:00 15.68924 C 8.44 g/m*3 15.69 C 6.04444 km/h
419 17-06-2015 00:00:00 15.5816 C 8.72 g/m*3 15.58 C 2.76319 km/h
420 18-06-2015 00:00:00 17.15625 C 10.98 g/m*3 17.16 C 7.23438 km/h
421 19-06-2015 00:00:00 12.7559 C 9.22 g/m*3 12.76 C 3.45729 km/h
422 20-06-2015 00:00:00 13.05547 C 9.33 g/m*3 13.06 C 4.88672 km/h
423 21-06-2015 00:00:00 15.43396 C 11.17 g/m*3 15.43 C 4.89291 km/h
424 22-06-2015 00:00:00 13.19855 C 10.09 g/m*3 13.2 C 5.84073 km/h
425 23-06-2015 00:00:00 11.71206 C 9.65 g/m*3 11.71 C 3.60284 km/h
Sensor: Nr:Datum:Temp:Abs-Feuchte:Windchill:Wind:
Aussen-T/F 426 24-06-2015 00:00:00 14.96215 C 10.37 g/m*3 14.96 C 3.02361 km/h
427 25-06-2015 00:00:00 17.94306 C 11.59 g/m*3 17.94 C 2.5625 km/h
428 26-06-2015 00:00:00 19.40139 C 13.06 g/m*3 19.4 C 2.43542 km/h
429 27-06-2015 00:00:00 20.26461 C 13.16 g/m*3 20.26 C 6.35679 km/h
430 28-06-2015 00:00:00 18.39741 C 11.45 g/m*3 18.4 C 1.70431 km/h
431 29-06-2015 00:00:00 23.63875 C 13.16 g/m*3 23.64 C 6.13688 km/h
432 30-06-2015 00:00:00 21.94847 C 12.24 g/m*3 21.95 C 2.6229 km/h
433 01-07-2015 00:00:00 24.13993 C 13.88 g/m*3 24.14 C 2.98237 km/h
434 02-07-2015 00:00:00 26.83474 C 16.53 g/m*3 26.83 C 2.73684 km/h
435 03-07-2015 00:00:00 28.2408 C 18.03 g/m*3 28.24 C 4.0004 km/h
436 04-07-2015 00:00:00 27.77951 C 18.22 g/m*3 27.78 C 2.66875 km/h
437 05-07-2015 00:00:00 26.75417 C 16.35 g/m*3 26.75 C 6.34028 km/h
438 06-07-2015 00:00:00 23.89674 C 11.72 g/m*3 23.9 C 5.56087 km/h
439 07-07-2015 00:00:00 23.4251 C 13.52 g/m*3 23.43 C 4.52869 km/h
440 08-07-2015 00:00:00 17.62465 C 10.77 g/m*3 17.62 C 12.0309 km/h
441 09-07-2015 00:00:00 16.50669 C 9.6 g/m*3 16.51 C 9.47606 km/h
442 10-07-2015 00:00:00 17.02947 C 8.35 g/m*3 17.03 C 3.11789 km/h
443 11-07-2015 00:00:00 21.24132 C 10.2 g/m*3 21.24 C 3.87326 km/h
444 12-07-2015 00:00:00 19.0157 C 11.63 g/m*3 19.02 C 4.59752 km/h
445 13-07-2015 00:00:00 17.93777 C 13.02 g/m*3 17.94 C 6.44309 km/h
446 14-07-2015 00:00:00 21.06476 C 13.71 g/m*3 21.06 C 8.263 km/h
447 15-07-2015 00:00:00 21.59368 C 14.37 g/m*3 21.59 C 3.19509 km/h
448 16-07-2015 00:00:00 24.00382 C 15.6 g/m*3 24 C 2.825 km/h
449 17-07-2015 00:00:00 28.34301 C 13.92 g/m*3 28.34 C 6.7625 km/h
450 18-07-2015 00:00:00 23.63602 C 13.33 g/m*3 23.64 C 4.35364 km/h
Sensor: Nr:Datum:Temp:Abs-Feuchte:Windchill:Wind:
Aussen-T/F 451 19-07-2015 00:00:00 21.84756 C 15 g/m*3 21.85 C 9.45915 km/h
452 20-07-2015 00:00:00 22.02667 C 17.14 g/m*3 22.03 C 2.74111 km/h
453 21-07-2015 00:00:00 26.21048 C 17.06 g/m*3 26.21 C 7.56905 km/h
454 22-07-2015 00:00:00 23.3275 C 15.6 g/m*3 23.33 C 4.95786 km/h
455 23-07-2015 00:00:00 20.60312 C 11.63 g/m*3 20.6 C 3.97951 km/h
456 24-07-2015 00:00:00 21.45543 C 13.09 g/m*3 21.46 C 2.75019 km/h
457 25-07-2015 00:00:00 17.38849 C 11.54 g/m*3 17.39 C 14.05833 km/h
458 26-07-2015 00:00:00 15.82244 C 9.7 g/m*3 15.82 C 4.18346 km/h
459 27-07-2015 00:00:00 17.63472 C 12.21 g/m*3 17.63 C 9.7966 km/h
460 28-07-2015 00:00:00 17.16294 C 9.35 g/m*3 17.16 C 10.46993 km/h
461 29-07-2015 00:00:00 17.78846 C 8.49 g/m*3 17.79 C 11.15337 km/h
462 30-07-2015 00:00:00 14.2708 C 9.1 g/m*3 14.27 C 4.6504 km/h
463 31-07-2015 00:00:00 16.9314 C 9.38 g/m*3 16.93 C 5.00248 km/h
464 01-08-2015 00:00:00 19.24097 C 9.77 g/m*3 19.24 C 3.18611 km/h
465 02-08-2015 00:00:00 20.84722 C 11.2 g/m*3 20.85 C 2.96215 km/h
466 03-08-2015 00:00:00 23.19217 C 11.97 g/m*3 23.19 C 2.56121 km/h
467 04-08-2015 00:00:00 19.03299 C 13.35 g/m*3 19.03 C 2.14097 km/h
468 05-08-2015 00:00:00 19.79201 C 13 g/m*3 19.79 C 2.64896 km/h
469 06-08-2015 00:00:00 24 C 14.41 g/m*3 24 C 2.29306 km/h
470 07-08-2015 00:00:00 26.94306 C 15.74 g/m*3 26.94 C 4.86319 km/h
471 08-08-2015 00:00:00 22.82014 C 16.12 g/m*3 22.82 C 7.64722 km/h
472 09-08-2015 00:00:00 21.98785 C 15.08 g/m*3 21.99 C 4.37951 km/h
473 10-08-2015 00:00:00 19.76944 C 14.19 g/m*3 19.77 C 6.14722 km/h
474 11-08-2015 00:00:00 21.91979 C 14.38 g/m*3 21.92 C 4.83785 km/h
475 12-08-2015 00:00:00 23.09896 C 16.01 g/m*3 23.1 C 2.70799 km/h
Sensor: Nr:Datum:Temp:Abs-Feuchte:Windchill:Wind:
Aussen-T/F 476 13-08-2015 00:00:00 25.32292 C 16.59 g/m*3 25.32 C 3.5309 km/h
477 14-08-2015 00:00:00 24.17396 C 15.24 g/m*3 24.17 C 6.74931 km/h
478 15-08-2015 00:00:00 20.86319 C 13.16 g/m*3 20.86 C 5.55521 km/h
479 16-08-2015 00:00:00 15.85799 C 12.14 g/m*3 15.86 C 6.10729 km/h
480 17-08-2015 00:00:00 14.78889 C 11.49 g/m*3 14.79 C 4.3691 km/h
481 18-08-2015 00:00:00 15.90625 C 11.24 g/m*3 15.91 C 2.56424 km/h
482 19-08-2015 00:00:00 15.71493 C 10.47 g/m*3 15.71 C 2.33299 km/h
483 20-08-2015 00:00:00 18.10382 C 11.45 g/m*3 18.1 C 1.67674 km/h
484 21-08-2015 00:00:00 18.85764 C 11.34 g/m*3 18.86 C 2.75104 km/h
485 22-08-2015 00:00:00 19.10729 C 10.54 g/m*3 19.11 C 2.82569 km/h
486 23-08-2015 00:00:00 19.89722 C 10.95 g/m*3 19.9 C 3.72222 km/h
487 24-08-2015 00:00:00 19.22187 C 13.77 g/m*3 19.22 C 4.04201 km/h
488 25-08-2015 00:00:00 17.40729 C 10.13 g/m*3 17.41 C 12.29826 km/h
489 26-08-2015 00:00:00 20.71458 C 11.74 g/m*3 20.71 C 3.90903 km/h
490 27-08-2015 00:00:00 18.60486 C 13.26 g/m*3 18.6 C 2.13576 km/h
491 28-08-2015 00:00:00 16.57292 C 12.59 g/m*3 16.57 C 1.19444 km/h
492 29-08-2015 00:00:00 19.31181 C 14.67 g/m*3 19.31 C 1.17778 km/h
493 30-08-2015 00:00:00 23.12396 C 17.13 g/m*3 23.12 C 2.16944 km/h
494 31-08-2015 00:00:00 24.2934 C 15.43 g/m*3 24.29 C 4.46146 km/h
495 01-09-2015 00:00:00 17.4059 C 13.49 g/m*3 17.41 C 3.24479 km/h
496 02-09-2015 00:00:00 15.13229 C 10.98 g/m*3 15.13 C 2.85486 km/h
497 03-09-2015 00:00:00 13.95937 C 10.2 g/m*3 13.96 C 2.56146 km/h
498 04-09-2015 00:00:00 13.54792 C 9.34 g/m*3 13.55 C 5.00938 km/h
499 05-09-2015 00:00:00 13.21701 C 9.71 g/m*3 13.22 C 6.23715 km/h
500 06-09-2015 00:00:00 13.11632 C 8.46 g/m*3 13.12 C 7.49757 km/h
Sensor: Nr:Datum:Temp:Abs-Feuchte:Windchill:Wind:
Aussen-T/F 501 07-09-2015 00:00:00 13.56493 C 10.22 g/m*3 13.56 C 4.39688 km/h
502 08-09-2015 00:00:00 15.09236 C 10.95 g/m*3 15.09 C 2.85278 km/h
503 09-09-2015 00:00:00 15.60139 C 10.14 g/m*3 15.6 C 3.82535 km/h
504 10-09-2015 00:00:00 13.23854 C 8.82 g/m*3 13.24 C 2.77292 km/h
505 11-09-2015 00:00:00 13.19792 C 9.1 g/m*3 13.2 C 2.08646 km/h
506 12-09-2015 00:00:00 15.35312 C 10.97 g/m*3 15.35 C 1.38229 km/h
507 13-09-2015 00:00:00 17.07153 C 13.46 g/m*3 17.07 C 0.89479 km/h
508 14-09-2015 00:00:00 15.52639 C 12.15 g/m*3 15.53 C 2.93785 km/h
509 15-09-2015 00:00:00 12.94931 C 9.85 g/m*3 12.95 C 3.50556 km/h
510 16-09-2015 00:00:00 15.01667 C 12.03 g/m*3 15.02 C 3.48611 km/h
511 17-09-2015 00:00:00 14.6566 C 11.45 g/m*3 14.66 C 3.67326 km/h
512 18-09-2015 00:00:00 14.53542 C 10.66 g/m*3 14.54 C 3.74826 km/h
513 19-09-2015 00:00:00 14.32292 C 10.73 g/m*3 14.32 C 2.64097 km/h
514 20-09-2015 00:00:00 13.77188 C 10.08 g/m*3 13.77 C 2.38264 km/h
515 21-09-2015 00:00:00 12.22847 C 9.74 g/m*3 12.23 C 0.46667 km/h
516 22-09-2015 00:00:00 13.06701 C 10.43 g/m*3 13.07 C 1.30278 km/h
517 23-09-2015 00:00:00 11.92535 C 9.9 g/m*3 11.93 C 3.5316 km/h
518 24-09-2015 00:00:00 13.09618 C 10.37 g/m*3 13.1 C 1.9934 km/h
519 25-09-2015 00:00:00 13.95278 C 10.49 g/m*3 13.95 C 0.97118 km/h
520 26-09-2015 00:00:00 12.73889 C 9.95 g/m*3 12.74 C 1.28576 km/h
521 27-09-2015 00:00:00 11.29236 C 8.54 g/m*3 11.29 C 1.94583 km/h
522 28-09-2015 00:00:00 10.50729 C 8.01 g/m*3 10.51 C 2.25382 km/h
523 29-09-2015 00:00:00 10.96979 C 8.11 g/m*3 10.97 C 3.25278 km/h
524 30-09-2015 00:00:00 10.73368 C 7.67 g/m*3 10.73 C 3.43715 km/h
525 01-10-2015 00:00:00 9.88646 C 6.98 g/m*3 9.89 C 3.38507 km/h
Sensor: Nr:Datum:Temp:Abs-Feuchte:Windchill:Wind:
Aussen-T/F 526 02-10-2015 00:00:00 9.21528 C 7.62 g/m*3 9.22 C 0.94618 km/h
527 03-10-2015 00:00:00 11.40139 C 8.82 g/m*3 11.4 C 1.27222 km/h
528 04-10-2015 00:00:00 12.61562 C 10.13 g/m*3 12.62 C 1.9809 km/h
529 05-10-2015 00:00:00 11.96597 C 9.83 g/m*3 11.97 C 1.7125 km/h
530 06-10-2015 00:00:00 15.93854 C 12.94 g/m*3 15.94 C 0.42917 km/h
531 07-10-2015 00:00:00 14.99028 C 11.46 g/m*3 14.99 C 5.1559 km/h
532 08-10-2015 00:00:00 13.45521 C 10.14 g/m*3 13.46 C 2.19653 km/h
533 09-10-2015 00:00:00 12.29618 C 10.14 g/m*3 12.3 C 0 km/h
534 10-10-2015 00:00:00 12.19271 C 9.48 g/m*3 12.19 C 0.57431 km/h
535 11-10-2015 00:00:00 8.37431 C 6.51 g/m*3 8.37 C 1.58021 km/h
536 12-10-2015 00:00:00 5.28229 C 5.72 g/m*3 5.28 C 0.71736 km/h
537 13-10-2015 00:00:00 4.33542 C 5.86 g/m*3 4.34 C 1.61458 km/h
538 14-10-2015 00:00:00 3.63333 C 5.89 g/m*3 3.63 C 0.71146 km/h
539 15-10-2015 00:00:00 4.25694 C 6.16 g/m*3 4.26 C 1.93507 km/h
540 16-10-2015 00:00:00 6.52431 C 6.94 g/m*3 6.52 C 1.46458 km/h
541 17-10-2015 00:00:00 6.99375 C 6.93 g/m*3 6.99 C 1 km/h
542 18-10-2015 00:00:00 7.25556 C 7.17 g/m*3 7.26 C 0.95 km/h
543 19-10-2015 00:00:00 8.22361 C 7.69 g/m*3 8.22 C 1.03958 km/h
544 20-10-2015 00:00:00 9.33576 C 8.46 g/m*3 9.34 C 0.45069 km/h
545 21-10-2015 00:00:00 9.83611 C 8.52 g/m*3 9.84 C 1.21667 km/h
546 22-10-2015 00:00:00 11.18472 C 8.96 g/m*3 11.18 C 8.28507 km/h
547 23-10-2015 00:00:00 10.26979 C 9.08 g/m*3 10.27 C 0.17222 km/h
548 24-10-2015 00:00:00 11.03438 C 9 g/m*3 11.03 C 0.73368 km/h
549 25-10-2015 00:00:00 11.68229 C 9.68 g/m*3 11.68 C 0.58889 km/h
550 26-10-2015 00:00:00 9.55312 C 8.65 g/m*3 9.55 C 0.28889 km/h
Sensor: Nr:Datum:Temp:Abs-Feuchte:Windchill:Wind:
Aussen-T/F 551 27-10-2015 00:00:00 8.10278 C 7.88 g/m*3 8.1 C 1.62569 km/h
552 28-10-2015 00:00:00 9.54444 C 8.36 g/m*3 9.54 C 1.79028 km/h
553 29-10-2015 00:00:00 10.48299 C 8.97 g/m*3 10.48 C 1.20903 km/h
554 30-10-2015 00:00:00 7.79965 C 7.82 g/m*3 7.8 C 0.28889 km/h
555 31-10-2015 00:00:00 7.27118 C 7.41 g/m*3 7.27 C 0.64479 km/h
556 01-11-2015 00:00:00 6.57708 C 7.25 g/m*3 6.58 C 0.75556 km/h
557 02-11-2015 00:00:00 4.67431 C 6.43 g/m*3 4.67 C 1.35556 km/h
558 03-11-2015 00:00:00 4.99896 C 6.47 g/m*3 5 C 1.56806 km/h
559 04-11-2015 00:00:00 7.79549 C 7.68 g/m*3 7.8 C 0.67847 km/h
560 05-11-2015 00:00:00 10.38299 C 9.17 g/m*3 10.38 C 1.47778 km/h
561 06-11-2015 00:00:00 13.31493 C 10.74 g/m*3 13.31 C 2.45069 km/h
562 07-11-2015 00:00:00 16.40417 C 13.14 g/m*3 16.4 C 3.42743 km/h
563 08-11-2015 00:00:00 12.97292 C 10.78 g/m*3 12.97 C 0.76736 km/h
564 09-11-2015 00:00:00 14.80846 C 10.55 g/m*3 14.81 C 10.27647 km/h
565 10-11-2015 00:00:00 13.07951 C 9.59 g/m*3 13.08 C 12.67535 km/h
566 11-11-2015 00:00:00 11.7066 C 8.85 g/m*3 11.71 C 6.13819 km/h
567 12-11-2015 00:00:00 11.71562 C 9.17 g/m*3 11.72 C 3.59722 km/h
568 13-11-2015 00:00:00 10.51875 C 8.58 g/m*3 9.76 C 7.30035 km/h
569 14-11-2015 00:00:00 8.91806 C 7.32 g/m*3 6.93 C 12.46215 km/h
570 15-11-2015 00:00:00 12.53854 C 9.28 g/m*3 12.54 C 18.02743 km/h
571 16-11-2015 00:00:00 11.63438 C 8.73 g/m*3 11.63 C 10.97813 km/h
572 17-11-2015 00:00:00 14.03889 C 10.8 g/m*3 14.04 C 13.5 km/h
573 18-11-2015 00:00:00 13.87604 C 8.79 g/m*3 13.88 C 17.09375 km/h
574 19-11-2015 00:00:00 12.23611 C 9.29 g/m*3 12.24 C 10.3066 km/h
575 20-11-2015 00:00:00 7.64444 C 7.65 g/m*3 7.64 C 3.58889 km/h
Sensor: Nr:Datum:Temp:Abs-Feuchte:Windchill:Wind:
Aussen-T/F 576 21-11-2015 00:00:00 3.88021 C 5.76 g/m*3 3.88 C 4.17569 km/h
577 22-11-2015 00:00:00 2.85139 C 5.37 g/m*3 1.4 C 5.60278 km/h
578 23-11-2015 00:00:00 2.48125 C 5.27 g/m*3 2.48 C 3.1934 km/h
579 24-11-2015 00:00:00 1.88785 C 4.96 g/m*3 1.89 C 4.01563 km/h
580 25-11-2015 00:00:00 4.63646 C 6.08 g/m*3 2.98 C 7.02708 km/h
581 26-11-2015 00:00:00 4.92257 C 6.25 g/m*3 4.92 C 2.59896 km/h
582 27-11-2015 00:00:00 2.23299 C 5.35 g/m*3 2.23 C 2.08993 km/h
583 28-11-2015 00:00:00 4.42821 C 5.6 g/m*3 1.91 C 10.29393 km/h
584 29-11-2015 00:00:00 9.10451 C 7.64 g/m*3 6.08 C 21.68403 km/h
585 30-11-2015 00:00:00 9.89514 C 8.43 g/m*3 7.74 C 15.40035 km/h
586 01-12-2015 00:00:00 11.24618 C 9.4 g/m*3 11.25 C 10.56458 km/h
587 02-12-2015 00:00:00 9.85729 C 8.19 g/m*3 9.86 C 1.80208 km/h
588 03-12-2015 00:00:00 7.55664 C 6.94 g/m*3 7.56 C 1.60629 km/h
589 04-12-2015 00:00:00 6.93333 C 7.06 g/m*3 5.75 C 6.68646 km/h
590 05-12-2015 00:00:00 6.05903 C 6.54 g/m*3 4.49 C 7.55139 km/h
591 06-12-2015 00:00:00 8.44861 C 7.39 g/m*3 7.28 C 7.59097 km/h
592 07-12-2015 00:00:00 8.35868 C 7.84 g/m*3 8.36 C 1.87917 km/h
593 08-12-2015 00:00:00 4.51007 C 6.4 g/m*3 4.51 C 0.85 km/h
594 09-12-2015 00:00:00 6.58229 C 7.14 g/m*3 6.58 C 3.36493 km/h
595 10-12-2015 00:00:00 3.22882 C 5.65 g/m*3 3.23 C 2.40347 km/h
596 11-12-2015 00:00:00 4.75451 C 6.18 g/m*3 2.45 C 9.61979 km/h
597 12-12-2015 00:00:00 8.05903 C 7.91 g/m*3 7.48 C 5.2125 km/h
598 13-12-2015 00:00:00 8.6316 C 7.83 g/m*3 7.23 C 8.80417 km/h
599 14-12-2015 00:00:00 5.9875 C 7 g/m*3 5.99 C 1.04549 km/h
600 15-12-2015 00:00:00 5.6816 C 6.84 g/m*3 5.68 C 1.11667 km/h
Sensor: Nr:Datum:Temp:Abs-Feuchte:Windchill:Wind:
Aussen-T/F 601 16-12-2015 00:00:00 9.66146 C 8.96 g/m*3 9.66 C 2.47604 km/h
602 17-12-2015 00:00:00 12.51647 C 10.36 g/m*3 12.52 C 4.37059 km/h
603 18-12-2015 00:00:00 11.17396 C 9.5 g/m*3 11.17 C 2.91597 km/h
604 19-12-2015 00:00:00 11.26667 C 9.34 g/m*3 11.27 C 3.77917 km/h
605 20-12-2015 00:00:00 7.84687 C 7.9 g/m*3 7.85 C 1.09028 km/h
606 21-12-2015 00:00:00 10.07014 C 8.31 g/m*3 8.46 C 11.56111 km/h
607 22-12-2015 00:00:00 11.62281 C 8.59 g/m*3 11.62 C 13.49167 km/h
608 23-12-2015 00:00:00 10.964 C 8.09 g/m*3 9.44 C 12.34 km/h
609 24-12-2015 00:00:00 11.76867 C 8.94 g/m*3 11.77 C 4.42651 km/h
610 25-12-2015 00:00:00 11.08646 C 8.85 g/m*3 11.09 C 7.30069 km/h
611 26-12-2015 00:00:00 10.37257 C 8.43 g/m*3 10.37 C 4.32431 km/h
612 27-12-2015 00:00:00 7.5375 C 7.44 g/m*3 7.54 C 3.68646 km/h
613 28-12-2015 00:00:00 2.6941 C 5.65 g/m*3 2.69 C 0.47778 km/h
614 29-12-2015 00:00:00 3.10521 C 5.85 g/m*3 3.11 C 0.46667 km/h
615 30-12-2015 00:00:00 4.88299 C 6.33 g/m*3 4.88 C 2.96042 km/h
616 31-12-2015 00:00:00 5.0934 C 6.36 g/m*3 5.09 C 3.2441 km/h
617 01-01-2016 00:00:00 4.17222 C 6.15 g/m*3 4.17 C 1.30278 km/h
618 02-01-2016 00:00:00 4.50451 C 6.16 g/m*3 4.5 C 1.85208 km/h
619 03-01-2016 00:00:00 5.64826 C 6.55 g/m*3 5.65 C 3.79965 km/h
620 04-01-2016 00:00:00 5.3184 C 6.56 g/m*3 5.32 C 3.03924 km/h
621 05-01-2016 00:00:00 6.45694 C 6.85 g/m*3 6.46 C 1.4566 km/h
622 06-01-2016 00:00:00 5.95903 C 6.83 g/m*3 5.96 C 0.60556 km/h
623 07-01-2016 00:00:00 5.04028 C 6.41 g/m*3 3.91 C 5.5941 km/h
624 08-01-2016 00:00:00 3.28646 C 5.5 g/m*3 1.43 C 6.97708 km/h
625 09-01-2016 00:00:00 1.12292 C 5.09 g/m*3 1.12 C 1.22847 km/h
Sensor: Nr:Datum:Temp:Abs-Feuchte:Windchill:Wind:
Aussen-T/F 626 10-01-2016 00:00:00 6.27708 C 6.79 g/m*3 6.28 C 3.98229 km/h
627 11-01-2016 00:00:00 5.25729 C 6.54 g/m*3 5.26 C 4.40035 km/h
628 12-01-2016 00:00:00 5.58229 C 6.27 g/m*3 3.62 C 8.79861 km/h
629 13-01-2016 00:00:00 4.93333 C 6.09 g/m*3 2.17 C 12.0125 km/h
630 14-01-2016 00:00:00 3.31701 C 5.42 g/m*3 1.94 C 5.59792 km/h
631 15-01-2016 00:00:00 2.89062 C 5.35 g/m*3 0.27 C 9.44896 km/h
632 16-01-2016 00:00:00 2.0875 C 5.08 g/m*3 0.14 C 6.65208 km/h
633 17-01-2016 00:00:00 0.26424 C 4.14 g/m*3 -1.76 C 6.09167 km/h
634 18-01-2016 00:00:00 -4.85799 C 3.12 g/m*3 -4.86 C 0.90556 km/h
635 19-01-2016 00:00:00 -5.27882 C 2.99 g/m*3 -5.28 C 1.33924 km/h
636 20-01-2016 00:00:00 -1.61806 C 3.96 g/m*3 -1.62 C 1.96979 km/h
637 21-01-2016 00:00:00 0.6684 C 4.72 g/m*3 0.67 C 0.78333 km/h
638 22-01-2016 00:00:00 -2.10729 C 3.85 g/m*3 -2.11 C 1.59896 km/h
639 23-01-2016 00:00:00 4.1559 C 6.09 g/m*3 2.93 C 5.5125 km/h
640 24-01-2016 00:00:00 5.37396 C 6.53 g/m*3 5.37 C 3.36563 km/h
641 25-01-2016 00:00:00 7.51076 C 7.47 g/m*3 7.51 C 4.75208 km/h
642 26-01-2016 00:00:00 9.35729 C 7.71 g/m*3 8.04 C 9.04132 km/h
643 27-01-2016 00:00:00 11.44792 C 7.26 g/m*3 11.45 C 16.6875 km/h
644 28-01-2016 00:00:00 7.3625 C 6.82 g/m*3 6.72 C 5.12465 km/h
645 29-01-2016 00:00:00 5.64583 C 6.1 g/m*3 3.49 C 9.70278 km/h
646 30-01-2016 00:00:00 7.42914 C 6.92 g/m*3 4.54 C 16.56115 km/h
647 31-01-2016 00:00:00 6.31944 C 6.62 g/m*3 4.36 C 9.38715 km/h
648 01-02-2016 00:00:00 11.92326 C 8.95 g/m*3 11.92 C 14.6375 km/h
649 02-02-2016 00:00:00 10.40035 C 8.35 g/m*3 8.45 C 14.65347 km/h
650 03-02-2016 00:00:00 5.14306 C 5.84 g/m*3 3.59 C 6.96458 km/h
Sensor: Nr:Datum:Temp:Abs-Feuchte:Windchill:Wind:
Aussen-T/F 651 04-02-2016 00:00:00 4.62118 C 6.01 g/m*3 2.49 C 8.79722 km/h
652 05-02-2016 00:00:00 7.46076 C 7.29 g/m*3 7.46 C 4.875 km/h
653 06-02-2016 00:00:00 8.36806 C 7.32 g/m*3 8.37 C 3.02396 km/h
654 07-02-2016 00:00:00 9.22743 C 6.87 g/m*3 7.72 C 9.9434 km/h
655 08-02-2016 00:00:00 8.09062 C 6.69 g/m*3 5.43 C 15.98715 km/h
656 09-02-2016 00:00:00 7.11076 C 6.71 g/m*3 4.82 C 11.93611 km/h
657 10-02-2016 00:00:00 4.86562 C 5.73 g/m*3 1.99 C 12.54861 km/h
658 11-02-2016 00:00:00 4.89444 C 5.89 g/m*3 3.44 C 6.51493 km/h
659 12-02-2016 00:00:00 3.0316 C 5.12 g/m*3 3.03 C 3.83229 km/h
660 13-02-2016 00:00:00 1.57049 C 5.05 g/m*3 1.57 C 1.75382 km/h
661 14-02-2016 00:00:00 4.64965 C 6.31 g/m*3 4.65 C 1.65833 km/h
662 15-02-2016 00:00:00 2.20278 C 5.17 g/m*3 0.18 C 6.92604 km/h
663 16-02-2016 00:00:00 0.19792 C 4 g/m*3 0.2 C 4.80347 km/h
664 17-02-2016 00:00:00 0.40625 C 4.42 g/m*3 0.41 C 1.11354 km/h
665 18-02-2016 00:00:00 2.11285 C 4.78 g/m*3 2.11 C 1.88403 km/h
666 19-02-2016 00:00:00 1.43507 C 4.94 g/m*3 1.44 C 1.79132 km/h
667 20-02-2016 00:00:00 6.41528 C 6.88 g/m*3 4.34 C 10.04688 km/h
668 21-02-2016 00:00:00 11.8375 C 9.29 g/m*3 11.84 C 19.7559 km/h
669 22-02-2016 00:00:00 9.57778 C 7.79 g/m*3 6.94 C 19.04375 km/h
670 23-02-2016 00:00:00 2.26424 C 5.42 g/m*3 2.26 C 2.19931 km/h
671 24-02-2016 00:00:00 2.15243 C 5.12 g/m*3 2.15 C 2.99653 km/h
672 25-02-2016 00:00:00 0.66597 C 4.58 g/m*3 0.67 C 1.97604 km/h
673 26-02-2016 00:00:00 2.36771 C 4.87 g/m*3 2.37 C 1.93194 km/h
674 27-02-2016 00:00:00 2.35694 C 4.4 g/m*3 2.36 C 4.01389 km/h
675 28-02-2016 00:00:00 2.12509 C 4.34 g/m*3 0.51 C 5.752 km/h
Sensor: Nr:Datum:Temp:Abs-Feuchte:Windchill:Wind:
Aussen-T/F 676 29-02-2016 00:00:00 3.32569 C 4.3 g/m*3 1.03 C 8.49444 km/h
677 01-03-2016 00:00:00 1.1875 C 4.3 g/m*3 1.19 C 4.82743 km/h
678 02-03-2016 00:00:00 6.5125 C 6.26 g/m*3 4.97 C 7.76389 km/h
679 03-03-2016 00:00:00 3.61736 C 5.39 g/m*3 3.62 C 4.92292 km/h
680 04-03-2016 00:00:00 1.76528 C 5.11 g/m*3 1.77 C 3.03507 km/h
681 05-03-2016 00:00:00 4.32153 C 5.98 g/m*3 4.32 C 3.54306 km/h
682 06-03-2016 00:00:00 3.0434 C 5.62 g/m*3 3.04 C 3.70764 km/h
683 07-03-2016 00:00:00 2.40347 C 5.35 g/m*3 2.4 C 2.66667 km/h
684 08-03-2016 00:00:00 1.75521 C 4.95 g/m*3 1.76 C 2.84097 km/h
685 09-03-2016 00:00:00 2.60799 C 4.81 g/m*3 1.23 C 5.33681 km/h
686 10-03-2016 00:00:00 2.73576 C 4.9 g/m*3 2.74 C 2.80417 km/h
687 11-03-2016 00:00:00 4.25868 C 5.4 g/m*3 4.26 C 2.82014 km/h
688 12-03-2016 00:00:00 4.36424 C 5.09 g/m*3 3.26 C 5.26736 km/h
689 13-03-2016 00:00:00 5.06944 C 5.28 g/m*3 3.37 C 7.41285 km/h
690 14-03-2016 00:00:00 4.20451 C 4.58 g/m*3 2.54 C 6.83576 km/h
691 15-03-2016 00:00:00 3.53264 C 4.97 g/m*3 3.53 C 2.67674 km/h
692 16-03-2016 00:00:00 4.7066 C 4.87 g/m*3 2.57 C 8.85417 km/h
693 17-03-2016 00:00:00 4.57049 C 4.96 g/m*3 4.57 C 3.32569 km/h
694 18-03-2016 00:00:00 3.8934 C 5.25 g/m*3 2.71 C 5.29132 km/h
695 19-03-2016 00:00:00 5.67465 C 6.19 g/m*3 5.67 C 4.12708 km/h
696 20-03-2016 00:00:00 5.89583 C 5.84 g/m*3 5.9 C 4.43819 km/h
697 21-03-2016 00:00:00 7.0625 C 6.6 g/m*3 7.06 C 4.04618 km/h
698 22-03-2016 00:00:00 8.10035 C 6.63 g/m*3 7.32 C 5.88576 km/h
699 23-03-2016 00:00:00 7.93438 C 6.74 g/m*3 7.08 C 6.075 km/h
700 24-03-2016 00:00:00 7.05069 C 6.68 g/m*3 7.05 C 3.08299 km/h
Sensor: Nr:Datum:Temp:Abs-Feuchte:Windchill:Wind:
Aussen-T/F 701 25-03-2016 00:00:00 6.93125 C 7.14 g/m*3 6.19 C 5.24757 km/h
702 26-03-2016 00:00:00 9.02778 C 7.29 g/m*3 9.03 C 4.58472 km/h
703 27-03-2016 00:00:00 9.36558 C 7.41 g/m*3 8.35 C 7.60652 km/h
704 28-03-2016 00:00:00 8.24167 C 7.09 g/m*3 7.12 C 7.24271 km/h
705 29-03-2016 00:00:00 9.19792 C 6.63 g/m*3 7.33 C 12.05243 km/h
706 30-03-2016 00:00:00 9.98958 C 7.96 g/m*3 9.4 C 6.21979 km/h
707 31-03-2016 00:00:00 7.10243 C 7.23 g/m*3 7.1 C 3.58125 km/h
708 01-04-2016 00:00:00 7.02396 C 6.6 g/m*3 7.02 C 4.7941 km/h
709 02-04-2016 00:00:00 8.56007 C 7.31 g/m*3 8.56 C 3.34965 km/h
710 03-04-2016 00:00:00 13.56285 C 9.55 g/m*3 13.56 C 3.94826 km/h
711 04-04-2016 00:00:00 13.63299 C 9.65 g/m*3 13.63 C 4.78125 km/h
712 05-04-2016 00:00:00 11.25069 C 9.41 g/m*3 11.25 C 2.32188 km/h
713 06-04-2016 00:00:00 10.87153 C 7.88 g/m*3 9.61 C 10.36528 km/h
714 07-04-2016 00:00:00 8.49479 C 6.46 g/m*3 7.22 C 8.07847 km/h
715 08-04-2016 00:00:00 6.48403 C 5.96 g/m*3 6.48 C 4.08576 km/h
716 09-04-2016 00:00:00 8.00139 C 5.98 g/m*3 8 C 3.26736 km/h
717 10-04-2016 00:00:00 11.74757 C 7.34 g/m*3 11.75 C 5.60764 km/h
718 11-04-2016 00:00:00 12.00972 C 7.52 g/m*3 12.01 C 6.07257 km/h
719 12-04-2016 00:00:00 11.31181 C 8.06 g/m*3 11.31 C 2.89931 km/h
720 13-04-2016 00:00:00 8.81354 C 8.18 g/m*3 8.81 C 1.54549 km/h
721 14-04-2016 00:00:00 10.59722 C 7.87 g/m*3 10.6 C 3.04132 km/h
722 15-04-2016 00:00:00 13.04618 C 8.43 g/m*3 13.05 C 8.64861 km/h
723 16-04-2016 00:00:00 11.99514 C 8.68 g/m*3 12 C 5.71181 km/h
724 17-04-2016 00:00:00 8.41111 C 6.55 g/m*3 7.51 C 6.47222 km/h
725 18-04-2016 00:00:00 7.11632 C 5.83 g/m*3 7.12 C 3.50174 km/h
Sensor: Nr:Datum:Temp:Abs-Feuchte:Windchill:Wind:
Aussen-T/F 726 19-04-2016 00:00:00 8.83507 C 6.34 g/m*3 8.06 C 6.28056 km/h
727 20-04-2016 00:00:00 9.1559 C 5.92 g/m*3 9.16 C 4.81944 km/h
728 21-04-2016 00:00:00 11.43229 C 6.61 g/m*3 11.43 C 3.48229 km/h
729 22-04-2016 00:00:00 13.17674 C 7.13 g/m*3 13.18 C 4.56215 km/h
730 23-04-2016 00:00:00 7.88299 C 6.42 g/m*3 6.72 C 7.17014 km/h
731 24-04-2016 00:00:00 5.24444 C 5.42 g/m*3 3.81 C 6.62014 km/h
732 25-04-2016 00:00:00 4.71632 C 5.73 g/m*3 2.48 C 9.30625 km/h
733 26-04-2016 00:00:00 4.5934 C 5.49 g/m*3 2.37 C 9.12188 km/h
734 27-04-2016 00:00:00 5.57465 C 5.53 g/m*3 2.62 C 13.95313 km/h
735 28-04-2016 00:00:00 6.65 C 5.38 g/m*3 5.16 C 7.65451 km/h
736 29-04-2016 00:00:00 7.88056 C 5.67 g/m*3 7.28 C 5.22118 km/h
737 30-04-2016 00:00:00 7.70174 C 6.76 g/m*3 7.7 C 4.92257 km/h
738 01-05-2016 00:00:00 10.10486 C 7.71 g/m*3 9.02 C 8.56563 km/h
739 02-05-2016 00:00:00 12.06389 C 7.84 g/m*3 12.06 C 3.13125 km/h
740 03-05-2016 00:00:00 10.93785 C 7.55 g/m*3 10.54 C 6.03889 km/h
741 04-05-2016 00:00:00 9.10035 C 6.07 g/m*3 9.1 C 3.39722 km/h
742 05-05-2016 00:00:00 11.45347 C 6.94 g/m*3 11.45 C 5.61111 km/h
743 06-05-2016 00:00:00 15.34618 C 8.99 g/m*3 15.35 C 3.5191 km/h
744 07-05-2016 00:00:00 16.83542 C 9.35 g/m*3 16.84 C 3.77639 km/h
745 08-05-2016 00:00:00 18.59861 C 8.36 g/m*3 18.6 C 6.17118 km/h
746 09-05-2016 00:00:00 18.28715 C 9.64 g/m*3 18.29 C 4.85347 km/h
747 10-05-2016 00:00:00 17.08646 C 11.29 g/m*3 17.09 C 2.05694 km/h
748 11-05-2016 00:00:00 17.43438 C 11.28 g/m*3 17.43 C 3.74167 km/h
749 12-05-2016 00:00:00 17.84271 C 10.63 g/m*3 17.84 C 3.61076 km/h
750 13-05-2016 00:00:00 14.31736 C 11.02 g/m*3 14.32 C 1.31528 km/h
Sensor: Nr:Datum:Temp:Abs-Feuchte:Windchill:Wind:
Aussen-T/F 751 14-05-2016 00:00:00 10.45972 C 6.96 g/m*3 9.24 C 9.66181 km/h
752 15-05-2016 00:00:00 9.07743 C 6.2 g/m*3 7.84 C 8.38542 km/h
753 16-05-2016 00:00:00 9.98819 C 6.62 g/m*3 9.74 C 5.00868 km/h
754 17-05-2016 00:00:00 12.31563 C 7.5 g/m*3 12.32 C 4.92674 km/h
755 18-05-2016 00:00:00 14.47535 C 9.2 g/m*3 14.48 C 2.50486 km/h
756 19-05-2016 00:00:00 14.04722 C 9.15 g/m*3 14.05 C 3.41319 km/h
757 20-05-2016 00:00:00 14.08125 C 9.66 g/m*3 14.08 C 6.56632 km/h
758 21-05-2016 00:00:00 17.67708 C 11.23 g/m*3 17.68 C 3.4191 km/h
759 22-05-2016 00:00:00 18.70312 C 11.68 g/m*3 18.7 C 4.71528 km/h
760 23-05-2016 00:00:00 14.01632 C 10.05 g/m*3 14.02 C 8.33854 km/h
761 24-05-2016 00:00:00 10.97431 C 9.13 g/m*3 10.54 C 6.22292 km/h
762 25-05-2016 00:00:00 12.7125 C 9.75 g/m*3 12.71 C 1.23403 km/h
763 26-05-2016 00:00:00 14.89826 C 10.33 g/m*3 14.9 C 2.10938 km/h
764 27-05-2016 00:00:00 16.77849 C 12.94 g/m*3 16.78 C 2.11235 km/h
765 28-05-2016 00:00:00 18.08383 C 13.72 g/m*3 18.08 C 1.43892 km/h
766 29-05-2016 00:00:00 17.36528 C 13.25 g/m*3 17.37 C 1.68576 km/h
767 30-05-2016 00:00:00 17.49722 C 13.9 g/m*3 17.5 C 3.48194 km/h
768 31-05-2016 00:00:00 16.51458 C 12.3 g/m*3 16.51 C 2.34271 km/h
769 01-06-2016 00:00:00 15.69931 C 12.67 g/m*3 15.7 C 1.12917 km/h
770 02-06-2016 00:00:00 17.51979 C 13.73 g/m*3 17.52 C 1.64792 km/h
771 03-06-2016 00:00:00 16.76875 C 13.51 g/m*3 16.77 C 0.8066 km/h
772 04-06-2016 00:00:00 17.85104 C 13.83 g/m*3 17.85 C 1.83611 km/h
773 05-06-2016 00:00:00 19.18611 C 14.67 g/m*3 19.19 C 2.33264 km/h
774 06-06-2016 00:00:00 19.18785 C 14.33 g/m*3 19.19 C 1.64375 km/h
775 07-06-2016 00:00:00 19.88403 C 14.1 g/m*3 19.88 C 1.38819 km/h
Sensor: Nr:Datum:Temp:Abs-Feuchte:Windchill:Wind:
Aussen-T/F 776 08-06-2016 00:00:00 19.56354 C 13.01 g/m*3 19.56 C 5.36771 km/h
777 09-06-2016 00:00:00 17.3191 C 10.55 g/m*3 17.32 C 7.32188 km/h
778 10-06-2016 00:00:00 16.15521 C 9.83 g/m*3 16.16 C 3.07674 km/h
779 11-06-2016 00:00:00 17.56701 C 11.15 g/m*3 17.57 C 1.75139 km/h
780 12-06-2016 00:00:00 17.18299 C 12.73 g/m*3 17.18 C 2.86944 km/h
781 13-06-2016 00:00:00 15.94479 C 12.88 g/m*3 15.94 C 2.57049 km/h
782 14-06-2016 00:00:00 16.36597 C 12.24 g/m*3 16.37 C 4.14965 km/h
783 15-06-2016 00:00:00 15.42431 C 11.44 g/m*3 15.42 C 2.73958 km/h
784 16-06-2016 00:00:00 13.77292 C 11.13 g/m*3 13.77 C 1.25069 km/h
785 17-06-2016 00:00:00 14.68889 C 11.42 g/m*3 14.69 C 4.26632 km/h
786 18-06-2016 00:00:00 14.84861 C 11.11 g/m*3 14.85 C 5.13299 km/h
787 19-06-2016 00:00:00 15.40278 C 9.98 g/m*3 15.4 C 5.27639 km/h
788 20-06-2016 00:00:00 14.61979 C 10.26 g/m*3 14.62 C 4.06076 km/h
789 21-06-2016 00:00:00 18.21736 C 13.77 g/m*3 18.22 C 4.22604 km/h
790 22-06-2016 00:00:00 20.84792 C 15.95 g/m*3 20.85 C 1.36458 km/h
791 23-06-2016 00:00:00 23.76528 C 17.5 g/m*3 23.77 C 2.17743 km/h
792 24-06-2016 00:00:00 22.11979 C 17.68 g/m*3 22.12 C 1.67535 km/h
793 25-06-2016 00:00:00 16.85451 C 13.76 g/m*3 16.85 C 2.71215 km/h
794 26-06-2016 00:00:00 15.41562 C 11.23 g/m*3 15.42 C 5.33646 km/h
795 27-06-2016 00:00:00 15.91562 C 11.76 g/m*3 15.92 C 6.02951 km/h
796 28-06-2016 00:00:00 18.26597 C 13.16 g/m*3 18.27 C 2.94618 km/h
797 29-06-2016 00:00:00 19.04444 C 12.18 g/m*3 19.04 C 5.90799 km/h
798 30-06-2016 00:00:00 18.7566 C 12.98 g/m*3 18.76 C 4.27639 km/h
799 01-07-2016 00:00:00 19.88194 C 13.91 g/m*3 19.88 C 5.11597 km/h
800 02-07-2016 00:00:00 16.90868 C 11.32 g/m*3 16.91 C 5.75972 km/h
Sensor: Nr:Datum:Temp:Abs-Feuchte:Windchill:Wind:
Aussen-T/F 801 03-07-2016 00:00:00 15.21559 C 10.85 g/m*3 15.22 C 3.62129 km/h
802 04-07-2016 00:00:00 17.43333 C 12.31 g/m*3 17.43 C 2.40035 km/h
803 05-07-2016 00:00:00 19.40903 C 13.05 g/m*3 19.41 C 6.85694 km/h
804 06-07-2016 00:00:00 16.61042 C 10.46 g/m*3 16.61 C 3.5809 km/h
805 07-07-2016 00:00:00 17.08576 C 11.33 g/m*3 17.09 C 1.45799 km/h
806 08-07-2016 00:00:00 18.87222 C 13.06 g/m*3 18.87 C 2.11215 km/h
807 09-07-2016 00:00:00 21.08889 C 14.05 g/m*3 21.09 C 2.50556 km/h
808 10-07-2016 00:00:00 21.92535 C 15.31 g/m*3 21.93 C 2.22326 km/h
809 11-07-2016 00:00:00 21.61701 C 14 g/m*3 21.62 C 5.9316 km/h
810 12-07-2016 00:00:00 19.06354 C 12.22 g/m*3 19.06 C 4.50729 km/h
811 13-07-2016 00:00:00 14.71319 C 11.51 g/m*3 14.71 C 1.97951 km/h
812 14-07-2016 00:00:00 14.94583 C 10.15 g/m*3 14.95 C 5.28056 km/h
813 15-07-2016 00:00:00 16.08229 C 10.14 g/m*3 16.08 C 4.43993 km/h
814 16-07-2016 00:00:00 16.98542 C 12.01 g/m*3 16.99 C 1.86806 km/h
815 17-07-2016 00:00:00 21.34757 C 15.03 g/m*3 21.35 C 3.00486 km/h
816 18-07-2016 00:00:00 21.85069 C 14.51 g/m*3 21.85 C 2.12431 km/h
817 19-07-2016 00:00:00 21.61667 C 14.84 g/m*3 21.62 C 0.9684 km/h
818 20-07-2016 00:00:00 23.34097 C 15.69 g/m*3 23.34 C 1.97986 km/h
819 21-07-2016 00:00:00 21.23924 C 16.1 g/m*3 21.24 C 2.89375 km/h
820 22-07-2016 00:00:00 20.96806 C 16.23 g/m*3 20.97 C 1.53993 km/h
821 23-07-2016 00:00:00 20.3434 C 16.14 g/m*3 20.34 C 1.57465 km/h
822 24-07-2016 00:00:00 22.0941 C 16.68 g/m*3 22.09 C 2.27569 km/h
823 25-07-2016 00:00:00 21.8191 C 15.69 g/m*3 21.82 C 2.61076 km/h
824 26-07-2016 00:00:00 20.20208 C 15.1 g/m*3 20.2 C 2.69201 km/h
825 27-07-2016 00:00:00 19.62986 C 13.7 g/m*3 19.63 C 3.30104 km/h
Sensor: Nr:Datum:Temp:Abs-Feuchte:Windchill:Wind:
Aussen-T/F 826 28-07-2016 00:00:00 20.20174 C 14.48 g/m*3 20.2 C 2.89757 km/h
827 29-07-2016 00:00:00 19.81042 C 14.55 g/m*3 19.81 C 3.70729 km/h
828 30-07-2016 00:00:00 20.55278 C 14.05 g/m*3 20.55 C 2.95729 km/h
829 31-07-2016 00:00:00 18.14444 C 12.51 g/m*3 18.14 C 4.30451 km/h
830 01-08-2016 00:00:00 16.63958 C 11.11 g/m*3 16.64 C 1.70278 km/h
831 02-08-2016 00:00:00 16.16875 C 12.7 g/m*3 16.17 C 4.31354 km/h
832 03-08-2016 00:00:00 18.55174 C 14.93 g/m*3 18.55 C 6.0625 km/h
833 04-08-2016 00:00:00 18.01667 C 14.56 g/m*3 18.02 C 0.58958 km/h
834 05-08-2016 00:00:00 16.58403 C 12.5 g/m*3 16.58 C 2.53715 km/h
835 06-08-2016 00:00:00 17.59097 C 12.95 g/m*3 17.59 C 1.78924 km/h
836 07-08-2016 00:00:00 18.92153 C 13.21 g/m*3 18.92 C 2.58958 km/h
837 08-08-2016 00:00:00 19.25521 C 12.85 g/m*3 19.26 C 5.84826 km/h
838 09-08-2016 00:00:00 16.42986 C 10.1 g/m*3 16.43 C 4.77396 km/h
839 10-08-2016 00:00:00 13.02465 C 9.09 g/m*3 13.02 C 4.35625 km/h
840 11-08-2016 00:00:00 12.3 C 9.07 g/m*3 12.3 C 5.73854 km/h
841 12-08-2016 00:00:00 17.31701 C 13.39 g/m*3 17.32 C 4.90347 km/h
842 13-08-2016 00:00:00 20.62604 C 14.05 g/m*3 20.63 C 3.9 km/h
843 14-08-2016 00:00:00 19.08924 C 13.19 g/m*3 19.09 C 2.6816 km/h
844 15-08-2016 00:00:00 18.95451 C 12.68 g/m*3 18.95 C 3.03299 km/h
845 16-08-2016 00:00:00 18.07778 C 11.6 g/m*3 18.08 C 2.27361 km/h
846 17-08-2016 00:00:00 18.14653 C 11.37 g/m*3 18.15 C 2.66528 km/h
847 18-08-2016 00:00:00 17.22743 C 12.05 g/m*3 17.23 C 0.74688 km/h
848 19-08-2016 00:00:00 19.36181 C 13.9 g/m*3 19.36 C 2.4625 km/h
849 20-08-2016 00:00:00 18.84757 C 13.43 g/m*3 18.85 C 2.42188 km/h
850 21-08-2016 00:00:00 17.07361 C 11.68 g/m*3 17.07 C 7.83993 km/h
Sensor: Nr:Datum:Temp:Abs-Feuchte:Windchill:Wind:
Aussen-T/F 851 22-08-2016 00:00:00 17.30799 C 12.39 g/m*3 17.31 C 3.70174 km/h
852 23-08-2016 00:00:00 19.09167 C 12.74 g/m*3 19.09 C 1.35799 km/h
853 24-08-2016 00:00:00 20.54583 C 13.8 g/m*3 20.55 C 1.6559 km/h
854 25-08-2016 00:00:00 21.59896 C 14.45 g/m*3 21.6 C 1.6125 km/h
855 26-08-2016 00:00:00 22.53715 C 15.38 g/m*3 22.54 C 0.78472 km/h
856 27-08-2016 00:00:00 23.96528 C 17.1 g/m*3 23.97 C 0.79618 km/h
857 28-08-2016 00:00:00 23.4684 C 15.21 g/m*3 23.47 C 5.46597 km/h
858 29-08-2016 00:00:00 18.98993 C 12.9 g/m*3 18.99 C 3.00486 km/h
859 30-08-2016 00:00:00 18.11736 C 11.72 g/m*3 18.12 C 2.57639 km/h
860 31-08-2016 00:00:00 17.84514 C 11.8 g/m*3 17.85 C 0.65625 km/h
861 01-09-2016 00:00:00 19.62431 C 12.79 g/m*3 19.62 C 2.53993 km/h
862 02-09-2016 00:00:00 18.78785 C 12.67 g/m*3 18.79 C 1.46806 km/h
863 03-09-2016 00:00:00 20.71944 C 13.27 g/m*3 20.72 C 2.49201 km/h
864 04-09-2016 00:00:00 18.18681 C 12.69 g/m*3 18.19 C 7.97361 km/h
865 05-09-2016 00:00:00 17.73715 C 11.99 g/m*3 17.74 C 4.46667 km/h
866 06-09-2016 00:00:00 16.62882 C 11.62 g/m*3 16.63 C 1.43576 km/h
867 07-09-2016 00:00:00 17.39792 C 11.9 g/m*3 17.4 C 1.70382 km/h
868 08-09-2016 00:00:00 19.44722 C 13.34 g/m*3 19.45 C 2.21597 km/h
869 09-09-2016 00:00:00 20.12222 C 12.28 g/m*3 20.12 C 2.89306 km/h
870 10-09-2016 00:00:00 19.21944 C 13.38 g/m*3 19.22 C 0.42222 km/h
871 11-09-2016 00:00:00 18.8684 C 12.37 g/m*3 18.87 C 1.37778 km/h
872 12-09-2016 00:00:00 19.58437 C 13.34 g/m*3 19.58 C 1.25278 km/h
873 13-09-2016 00:00:00 21.20937 C 14.42 g/m*3 21.21 C 1.18785 km/h
874 14-09-2016 00:00:00 20.91319 C 13.56 g/m*3 20.91 C 1.53472 km/h
875 15-09-2016 00:00:00 20.02847 C 13.21 g/m*3 20.03 C 4.13264 km/h
Sensor: Nr:Datum:Temp:Abs-Feuchte:Windchill:Wind:
Aussen-T/F 876 16-09-2016 00:00:00 17.33889 C 12.64 g/m*3 17.34 C 2.82431 km/h
877 17-09-2016 00:00:00 15.96146 C 11.56 g/m*3 15.96 C 2.91424 km/h
878 18-09-2016 00:00:00 17.13993 C 13.13 g/m*3 17.14 C 4.16354 km/h
879 19-09-2016 00:00:00 15.49201 C 11.16 g/m*3 15.49 C 2.20799 km/h
880 20-09-2016 00:00:00 14.8184 C 11.22 g/m*3 14.82 C 0.8 km/h
881 21-09-2016 00:00:00 13.86563 C 9.39 g/m*3 13.87 C 1.70347 km/h
882 22-09-2016 00:00:00 11.70625 C 8.86 g/m*3 11.71 C 0.63576 km/h
883 23-09-2016 00:00:00 13.62518 C 10.21 g/m*3 13.63 C 0.01702 km/h
884 24-09-2016 00:00:00 13.82326 C 10.17 g/m*3 13.82 C 0.84097 km/h
885 25-09-2016 00:00:00 14.39201 C 10.56 g/m*3 14.39 C 1.67674 km/h
886 26-09-2016 00:00:00 14.99062 C 11.03 g/m*3 14.99 C 0.40139 km/h
887 27-09-2016 00:00:00 13.42847 C 10.86 g/m*3 13.43 C 0.12222 km/h
888 28-09-2016 00:00:00 15.2816 C 11.17 g/m*3 15.28 C 4.6566 km/h
889 29-09-2016 00:00:00 18.69375 C 12.7 g/m*3 18.69 C 5.92396 km/h
890 30-09-2016 00:00:00 15.12813 C 11.51 g/m*3 15.13 C 1.18021 km/h
891 01-10-2016 00:00:00 13.55804 C 11.23 g/m*3 13.56 C 0.52587 km/h
892 02-10-2016 00:00:00 12.49271 C 9.82 g/m*3 12.49 C 6.24479 km/h
893 03-10-2016 00:00:00 12.49236 C 10.15 g/m*3 12.49 C 2.64826 km/h
894 04-10-2016 00:00:00 10.89931 C 9.33 g/m*3 10.9 C 0.37222 km/h
895 05-10-2016 00:00:00 8.62465 C 7.17 g/m*3 8.62 C 3.4184 km/h
896 06-10-2016 00:00:00 7.98125 C 7.3 g/m*3 7.98 C 1.63958 km/h
897 07-10-2016 00:00:00 10.85069 C 9.27 g/m*3 10.85 C 0.34444 km/h
898 08-10-2016 00:00:00 9.28854 C 8.45 g/m*3 9.29 C 0.40625 km/h
899 09-10-2016 00:00:00 8.50868 C 7.85 g/m*3 8.51 C 0.21146 km/h
900 10-10-2016 00:00:00 6.46875 C 6.95 g/m*3 6.47 C 0.38889 km/h
Sensor: Nr:Datum:Temp:Abs-Feuchte:Windchill:Wind:
Aussen-T/F 901 11-10-2016 00:00:00 7.98993 C 7.51 g/m*3 7.99 C 1.21667 km/h
902 12-10-2016 00:00:00 8.69201 C 7.83 g/m*3 8.69 C 0.93507 km/h
903 13-10-2016 00:00:00 7.54583 C 7.04 g/m*3 7.55 C 2.58194 km/h
904 14-10-2016 00:00:00 9.31042 C 7.89 g/m*3 9.31 C 1.58194 km/h
905 15-10-2016 00:00:00 11.21667 C 9.22 g/m*3 11.22 C 2.99965 km/h
906 16-10-2016 00:00:00 8.72222 C 8.26 g/m*3 8.72 C 0.40556 km/h
907 17-10-2016 00:00:00 10.64132 C 9.45 g/m*3 10.64 C 0.17778 km/h
908 18-10-2016 00:00:00 11.33924 C 9.45 g/m*3 11.34 C 3.02188 km/h
909 19-10-2016 00:00:00 9.26389 C 7.99 g/m*3 8.32 C 7.18681 km/h
910 20-10-2016 00:00:00 8.03368 C 7.95 g/m*3 8.03 C 1.24826 km/h
911 21-10-2016 00:00:00 7.65845 C 7.76 g/m*3 7.66 C 1.02511 km/h
912 22-10-2016 00:00:00 7.80729 C 7.84 g/m*3 7.81 C 2.44306 km/h
913 23-10-2016 00:00:00 6.84236 C 7.31 g/m*3 6.84 C 1.7 km/h
914 24-10-2016 00:00:00 9.37778 C 8.76 g/m*3 9.38 C 0.28333 km/h
915 25-10-2016 00:00:00 11.21424 C 9.72 g/m*3 11.21 C 1.01875 km/h
916 26-10-2016 00:00:00 9.47049 C 8.55 g/m*3 9.47 C 0.85243 km/h
917 27-10-2016 00:00:00 8.9309 C 8.37 g/m*3 8.93 C 1.37604 km/h
918 28-10-2016 00:00:00 11.35833 C 9.38 g/m*3 11.36 C 4.07743 km/h
919 29-10-2016 00:00:00 11.58854 C 9.4 g/m*3 11.59 C 2.28542 km/h
920 30-10-2016 00:00:00 7.61215 C 7.73 g/m*3 7.61 C 0.49444 km/h
921 31-10-2016 00:00:00 7.10417 C 7.49 g/m*3 7.1 C 0.10556 km/h
922 01-11-2016 00:00:00 6.92431 C 7.48 g/m*3 6.92 C 0.89063 km/h
923 02-11-2016 00:00:00 7.39618 C 7.29 g/m*3 7.4 C 3.47292 km/h
924 03-11-2016 00:00:00 6.31493 C 6.81 g/m*3 6.31 C 2.9 km/h
925 04-11-2016 00:00:00 4.72674 C 6.33 g/m*3 4.73 C 0.3 km/h
Sensor: Nr:Datum:Temp:Abs-Feuchte:Windchill:Wind:
Aussen-T/F 926 05-11-2016 00:00:00 6.88299 C 7.44 g/m*3 6.88 C 0.87257 km/h
927 06-11-2016 00:00:00 5.54201 C 6.31 g/m*3 4.31 C 6.11597 km/h
928 07-11-2016 00:00:00 4.69097 C 6.23 g/m*3 4.69 C 3.11146 km/h
929 08-11-2016 00:00:00 3.20521 C 5.57 g/m*3 3.21 C 2.39514 km/h
930 09-11-2016 00:00:00 3.69722 C 5.89 g/m*3 3.7 C 2.31771 km/h
931 10-11-2016 00:00:00 5.22847 C 6.54 g/m*3 5.23 C 2.58542 km/h
932 11-11-2016 00:00:00 5.08785 C 6.58 g/m*3 5.09 C 2.63056 km/h
933 12-11-2016 00:00:00 2.06181 C 5.19 g/m*3 2.06 C 1.9184 km/h
934 13-11-2016 00:00:00 2.12049 C 5.13 g/m*3 2.12 C 2.10451 km/h
935 14-11-2016 00:00:00 -0.38611 C 4.39 g/m*3 -0.39 C 1.52813 km/h
936 15-11-2016 00:00:00 4.75208 C 6.22 g/m*3 3.27 C 6.53194 km/h
937 16-11-2016 00:00:00 9.88715 C 8.93 g/m*3 8.75 C 8.59306 km/h
938 17-11-2016 00:00:00 10.99757 C 8.95 g/m*3 9.88 C 9.64896 km/h
939 18-11-2016 00:00:00 9.44792 C 7.77 g/m*3 7.84 C 10.76076 km/h
940 19-11-2016 00:00:00 5.51319 C 6.16 g/m*3 5.51 C 3.72778 km/h
941 20-11-2016 00:00:00 9.3559 C 7.32 g/m*3 8.14 C 8.54931 km/h
942 21-11-2016 00:00:00 10.27813 C 8.8 g/m*3 10.28 C 2.57014 km/h
943 22-11-2016 00:00:00 10.22222 C 8.94 g/m*3 10.22 C 1.64514 km/h
944 23-11-2016 00:00:00 8.56389 C 8.32 g/m*3 8.56 C 0.12222 km/h
945 24-11-2016 00:00:00 8.79306 C 8.23 g/m*3 8.79 C 1.57917 km/h
946 25-11-2016 00:00:00 7.72222 C 6.93 g/m*3 7.14 C 5.09792 km/h
947 26-11-2016 00:00:00 6.87708 C 6.79 g/m*3 6.88 C 0.27778 km/h
948 27-11-2016 00:00:00 5.11215 C 6.36 g/m*3 5.11 C 1.85521 km/h
949 28-11-2016 00:00:00 -0.13333 C 4.49 g/m*3 -0.13 C 1.78438 km/h
950 29-11-2016 00:00:00 -2.74097 C 3.64 g/m*3 -2.74 C 1.72222 km/h
Sensor: Nr:Datum:Temp:Abs-Feuchte:Windchill:Wind:
Aussen-T/F 951 30-11-2016 00:00:00 -2.71076 C 3.69 g/m*3 -2.71 C 1.01771 km/h
952 01-12-2016 00:00:00 3.3875 C 5.16 g/m*3 0.78 C 9.80556 km/h
953 02-12-2016 00:00:00 5.17361 C 6.45 g/m*3 5.17 C 2.76354 km/h
954 03-12-2016 00:00:00 -0.32882 C 4.59 g/m*3 -0.33 C 2.02917 km/h
955 04-12-2016 00:00:00 -2.61215 C 3.88 g/m*3 -2.61 C 1.47292 km/h
956 05-12-2016 00:00:00 -3.83507 C 3.53 g/m*3 -3.84 C 0.65 km/h
957 06-12-2016 00:00:00 -3.15903 C 3.71 g/m*3 -3.16 C 0.57778 km/h
958 07-12-2016 00:00:00 -0.29965 C 4.56 g/m*3 -0.3 C 0.27222 km/h
959 08-12-2016 00:00:00 1.07778 C 4.95 g/m*3 1.08 C 2.55556 km/h
960 09-12-2016 00:00:00 6.58819 C 6.37 g/m*3 5.15 C 7.38924 km/h
961 10-12-2016 00:00:00 5.04201 C 6.25 g/m*3 5.04 C 4.33819 km/h
962 11-12-2016 00:00:00 8.10174 C 7.12 g/m*3 6.39 C 9.87257 km/h
963 12-12-2016 00:00:00 6.76563 C 7.1 g/m*3 6.77 C 1.32951 km/h
964 13-12-2016 00:00:00 4.10868 C 6.17 g/m*3 4.11 C 1.04167 km/h
965 14-12-2016 00:00:00 6.42569 C 7.15 g/m*3 6.43 C 0.89549 km/h
966 15-12-2016 00:00:00 6.89583 C 7.26 g/m*3 6.9 C 0.63333 km/h
967 16-12-2016 00:00:00 4.60451 C 5.84 g/m*3 4.6 C 2.72708 km/h
968 17-12-2016 00:00:00 3.86806 C 5.78 g/m*3 3.87 C 0.55556 km/h
969 18-12-2016 00:00:00 5.3059 C 6.54 g/m*3 5.31 C 0.92257 km/h
970 19-12-2016 00:00:00 4.3816 C 5.83 g/m*3 4.38 C 2.62361 km/h
971 20-12-2016 00:00:00 1.0875 C 4.79 g/m*3 1.09 C 2 km/h
972 21-12-2016 00:00:00 2.26076 C 5.2 g/m*3 2.26 C 1.12882 km/h
973 22-12-2016 00:00:00 3.84896 C 5.9 g/m*3 3.85 C 0.97778 km/h
974 23-12-2016 00:00:00 4.14757 C 6.13 g/m*3 4.15 C 2.37257 km/h
975 24-12-2016 00:00:00 7.17188 C 6.79 g/m*3 4.93 C 11.77674 km/h
Sensor: Nr:Datum:Temp:Abs-Feuchte:Windchill:Wind:
Aussen-T/F 976 25-12-2016 00:00:00 8.5434 C 7.64 g/m*3 6.34 C 13.35556 km/h
977 26-12-2016 00:00:00 7.71215 C 7.16 g/m*3 5.85 C 10.23472 km/h
978 27-12-2016 00:00:00 4.30139 C 5.76 g/m*3 3.07 C 5.57049 km/h
979 28-12-2016 00:00:00 3.53819 C 5.55 g/m*3 3.54 C 2.41285 km/h
980 29-12-2016 00:00:00 -1.78438 C 4.12 g/m*3 -1.78 C 0.58333 km/h
981 30-12-2016 00:00:00 -2.37014 C 3.96 g/m*3 -2.37 C 1.05556 km/h
982 31-12-2016 00:00:00 -4.09028 C 3.48 g/m*3 -4.09 C 0.72778 km/h
983 01-01-2017 00:00:00 -2.24792 C 3.95 g/m*3 -2.25 C 2.81215 km/h
984 02-01-2017 00:00:00 0.68021 C 4.79 g/m*3 0.68 C 3.95104 km/h
985 03-01-2017 00:00:00 1.83819 C 5.03 g/m*3 -0.49 C 7.71944 km/h
986 04-01-2017 00:00:00 3.52049 C 5.54 g/m*3 0.53 C 11.65833 km/h
987 05-01-2017 00:00:00 0.04687 C 4.05 g/m*3 -1.72 C 5.40972 km/h
988 06-01-2017 00:00:00 -6.48125 C 2.76 g/m*3 -6.48 C 0.60556 km/h
989 07-01-2017 00:00:00 -4.20694 C 3.13 g/m*3 -6.65 C 5.55451 km/h
990 08-01-2017 00:00:00 0.59306 C 4.82 g/m*3 0.59 C 2.67083 km/h
991 09-01-2017 00:00:00 2.15 C 5.27 g/m*3 2.15 C 1.83993 km/h
992 10-01-2017 00:00:00 1.40799 C 5.1 g/m*3 1.41 C 0.23333 km/h
993 11-01-2017 00:00:00 3.72639 C 5.84 g/m*3 1.63 C 8.02813 km/h
994 12-01-2017 00:00:00 4.3066 C 5.73 g/m*3 2.24 C 8.29132 km/h
995 13-01-2017 00:00:00 2.18576 C 5.14 g/m*3 -1.67 C 14.73368 km/h
996 14-01-2017 00:00:00 2.66806 C 4.96 g/m*3 -0.12 C 9.9816 km/h
997 15-01-2017 00:00:00 0.83819 C 4.73 g/m*3 0.84 C 1.20069 km/h
998 16-01-2017 00:00:00 -1.62361 C 4.05 g/m*3 -1.62 C 0.86667 km/h
999 17-01-2017 00:00:00 -3.91493 C 3.36 g/m*3 -3.91 C 1.46285 km/h
1000 18-01-2017 00:00:00 -5.21877 C 3.07 g/m*3 -5.22 C 1.67471 km/h
Sensor: Nr:Datum:Temp:Abs-Feuchte:Windchill:Wind:
Aussen-T/F 1001 19-01-2017 00:00:00 -5.96794 C 2.92 g/m*3 -5.97 C 1.25802 km/h
1002 20-01-2017 00:00:00 -6.17471 C 2.84 g/m*3 -6.17 C 1.22023 km/h
1003 21-01-2017 00:00:00 -5.50363 C 3.02 g/m*3 -5.5 C 1.26452 km/h
1004 22-01-2017 00:00:00 -7.2046 C 2.69 g/m*3 -7.2 C 0.9318 km/h
1005 23-01-2017 00:00:00 -5.41458 C 3.07 g/m*3 -5.41 C 0.55625 km/h
1006 24-01-2017 00:00:00 -0.75035 C 4.2 g/m*3 -0.75 C 0.60729 km/h
1007 25-01-2017 00:00:00 -1.16701 C 3.74 g/m*3 -1.17 C 3.44931 km/h
1008 26-01-2017 00:00:00 -1.71667 C 3.63 g/m*3 -1.72 C 2.76701 km/h
1009 27-01-2017 00:00:00 -3.44306 C 3.43 g/m*3 -3.44 C 0.26111 km/h
1010 28-01-2017 00:00:00 -1.90347 C 3.85 g/m*3 -1.9 C 0.22778 km/h
1011 29-01-2017 00:00:00 2.8691 C 5.42 g/m*3 2.87 C 1.29583 km/h
1012 30-01-2017 00:00:00 4.73507 C 6.32 g/m*3 4.74 C 3.91042 km/h
1013 31-01-2017 00:00:00 3.29583 C 5.55 g/m*3 3.3 C 2.54618 km/h
1014 01-02-2017 00:00:00 3.48611 C 5.41 g/m*3 3.49 C 2.18958 km/h
1015 02-02-2017 00:00:00 5.1434 C 6.48 g/m*3 5.14 C 1.2 km/h
1016 03-02-2017 00:00:00 5.66007 C 6.69 g/m*3 5.66 C 2.19514 km/h
1017 04-02-2017 00:00:00 6.00556 C 6.53 g/m*3 6.01 C 4.48681 km/h
1018 05-02-2017 00:00:00 4.83993 C 6.13 g/m*3 4.84 C 3.12986 km/h
1019 06-02-2017 00:00:00 3.82396 C 5.63 g/m*3 3.82 C 1.16285 km/h
1020 07-02-2017 00:00:00 4.2184 C 5.78 g/m*3 4.22 C 1.20313 km/h
1021 08-02-2017 00:00:00 2.98785 C 5.1 g/m*3 2.99 C 3.44618 km/h
1022 09-02-2017 00:00:00 0.05903 C 4.09 g/m*3 0.06 C 2.36042 km/h
1023 10-02-2017 00:00:00 0.67222 C 4.2 g/m*3 0.67 C 2.71701 km/h
1024 11-02-2017 00:00:00 1.79896 C 5.14 g/m*3 1.8 C 1.58542 km/h
1025 12-02-2017 00:00:00 2.74132 C 5.38 g/m*3 2.74 C 3.36597 km/h
Sensor: Nr:Datum:Temp:Abs-Feuchte:Windchill:Wind:
Aussen-T/F 1026 13-02-2017 00:00:00 3.48576 C 5.1 g/m*3 2.24 C 5.32257 km/h
1027 14-02-2017 00:00:00 1.66042 C 4.62 g/m*3 1.66 C 2.97535 km/h
1028 15-02-2017 00:00:00 2.27639 C 5.1 g/m*3 2.28 C 1.38333 km/h
1029 16-02-2017 00:00:00 4.06597 C 6.07 g/m*3 4.07 C 1.18472 km/h
1030 17-02-2017 00:00:00 6.02222 C 6.96 g/m*3 6.02 C 2.96806 km/h
1031 18-02-2017 00:00:00 5.94097 C 6.5 g/m*3 5.94 C 1.70625 km/h
1032 19-02-2017 00:00:00 3.47083 C 5.61 g/m*3 3.47 C 3.00278 km/h
1033 20-02-2017 00:00:00 8.45104 C 7.75 g/m*3 6.44 C 11.97813 km/h
1034 21-02-2017 00:00:00 10.41458 C 8.89 g/m*3 9.59 C 7.53681 km/h
1035 22-02-2017 00:00:00 11.10243 C 8.76 g/m*3 11.1 C 18.20694 km/h
1036 23-02-2017 00:00:00 9.37708 C 7.43 g/m*3 6.61 C 19.84965 km/h
1037 24-02-2017 00:00:00 5.21007 C 5.52 g/m*3 3.09 C 9.20625 km/h
1038 25-02-2017 00:00:00 3.83993 C 5.34 g/m*3 3.84 C 4.95174 km/h
1039 26-02-2017 00:00:00 8.62951 C 6.48 g/m*3 7.32 C 8.34965 km/h
1040 27-02-2017 00:00:00 10.96042 C 7.31 g/m*3 9.9 C 9.25868 km/h
1041 28-02-2017 00:00:00 5.79618 C 5.88 g/m*3 3.38 C 11.13576 km/h
1042 01-03-2017 00:00:00 6.67257 C 6.59 g/m*3 4.48 C 10.88681 km/h
1043 02-03-2017 00:00:00 8.27986 C 5.77 g/m*3 5.75 C 15.36493 km/h
1044 03-03-2017 00:00:00 6.21771 C 5.65 g/m*3 6.22 C 2.29618 km/h
1045 04-03-2017 00:00:00 10.95451 C 7.24 g/m*3 10.84 C 5.00243 km/h
1046 05-03-2017 00:00:00 7.21354 C 6.83 g/m*3 5.91 C 7.27778 km/h
1047 06-03-2017 00:00:00 6.48333 C 6.66 g/m*3 4.7 C 8.76563 km/h
1048 07-03-2017 00:00:00 6.06806 C 6.71 g/m*3 6.07 C 3.06354 km/h
1049 08-03-2017 00:00:00 5.01528 C 6.51 g/m*3 5.02 C 2.82014 km/h
1050 09-03-2017 00:00:00 11.11146 C 8.6 g/m*3 11.11 C 7.32847 km/h
Sensor: Nr:Datum:Temp:Abs-Feuchte:Windchill:Wind:
Aussen-T/F 1051 10-03-2017 00:00:00 7.4684 C 5.99 g/m*3 7.47 C 4.725 km/h
1052 11-03-2017 00:00:00 6.7316 C 5.85 g/m*3 6.73 C 2.12813 km/h
1053 12-03-2017 00:00:00 6.62813 C 5.53 g/m*3 6.63 C 3.32674 km/h
1054 13-03-2017 00:00:00 6.71007 C 5.82 g/m*3 6.71 C 2.54063 km/h
1055 14-03-2017 00:00:00 9.45625 C 7.24 g/m*3 9.46 C 2.57083 km/h
1056 15-03-2017 00:00:00 10.41493 C 7.71 g/m*3 10.41 C 3.27083 km/h
1057 16-03-2017 00:00:00 8.32569 C 6.68 g/m*3 8.33 C 1.23333 km/h
1058 17-03-2017 00:00:00 8.68507 C 6.68 g/m*3 8.08 C 5.5809 km/h
1059 18-03-2017 00:00:00 9.53889 C 8.03 g/m*3 7.51 C 13.73576 km/h
1060 19-03-2017 00:00:00 12.1559 C 9.14 g/m*3 12.16 C 11.0316 km/h
1061 20-03-2017 00:00:00 11.60278 C 7.72 g/m*3 11.6 C 14.36597 km/h
1062 21-03-2017 00:00:00 9.375 C 7.52 g/m*3 8.6 C 6.57882 km/h
1063 22-03-2017 00:00:00 5.39132 C 6.14 g/m*3 5.39 C 1.45729 km/h
1064 23-03-2017 00:00:00 8.8434 C 7.15 g/m*3 8.84 C 4.19063 km/h
1065 24-03-2017 00:00:00 9.49444 C 6.94 g/m*3 8.65 C 6.93194 km/h
1066 25-03-2017 00:00:00 9.21424 C 5.86 g/m*3 8.39 C 6.6934 km/h
1067 26-03-2017 00:00:00 9.36594 C 5.76 g/m*3 9.37 C 3.62899 km/h
1068 27-03-2017 00:00:00 8.83194 C 5.65 g/m*3 8.83 C 3.46736 km/h
1069 28-03-2017 00:00:00 10.73819 C 6.82 g/m*3 10.74 C 4.27882 km/h
1070 29-03-2017 00:00:00 12.89063 C 8.3 g/m*3 12.89 C 7.35104 km/h
1071 30-03-2017 00:00:00 14.33507 C 8.91 g/m*3 14.34 C 2.8191 km/h
1072 31-03-2017 00:00:00 13.69896 C 8.18 g/m*3 13.7 C 4.2309 km/h
1073 01-04-2017 00:00:00 13.59792 C 8.47 g/m*3 13.6 C 4.24132 km/h
1074 02-04-2017 00:00:00 11.71736 C 7.77 g/m*3 11.72 C 4.33021 km/h
1075 03-04-2017 00:00:00 10.47257 C 7.37 g/m*3 10.47 C 3.92778 km/h
Sensor: Nr:Datum:Temp:Abs-Feuchte:Windchill:Wind:
Aussen-T/F 1076 04-04-2017 00:00:00 9.3059 C 6.62 g/m*3 9.31 C 3.32882 km/h
1077 05-04-2017 00:00:00 8.78889 C 6.61 g/m*3 7.96 C 6.45451 km/h
1078 06-04-2017 00:00:00 8.65278 C 6.36 g/m*3 7.49 C 7.69097 km/h
1079 07-04-2017 00:00:00 11.31566 C 7.19 g/m*3 11.32 C 7.25241 km/h
1080 08-04-2017 00:00:00 14.59887 C 7.97 g/m*3 14.6 C 4.75763 km/h
1081 09-04-2017 00:00:00 12.46215 C 7.97 g/m*3 12.46 C 2.05694 km/h
1082 10-04-2017 00:00:00 10.93993 C 7.53 g/m*3 10.46 C 6.38264 km/h
1083 11-04-2017 00:00:00 9.67188 C 6.33 g/m*3 9.67 C 4.85278 km/h
1084 12-04-2017 00:00:00 11.34167 C 6.89 g/m*3 11.34 C 9.22778 km/h
1085 13-04-2017 00:00:00 11.57153 C 7.09 g/m*3 11.57 C 6.57951 km/h
1086 14-04-2017 00:00:00 9.77708 C 6.35 g/m*3 9.78 C 4.1691 km/h
1087 15-04-2017 00:00:00 9.0875 C 7.24 g/m*3 8.29 C 6.4809 km/h
1088 16-04-2017 00:00:00 7.52083 C 6.34 g/m*3 6.9 C 5.11667 km/h
1089 17-04-2017 00:00:00 6.82257 C 6.5 g/m*3 6.03 C 5.34063 km/h
1090 18-04-2017 00:00:00 5.52187 C 5.69 g/m*3 3.68 C 8.26424 km/h
1091 19-04-2017 00:00:00 4.23646 C 4.56 g/m*3 2.91 C 5.81875 km/h
1092 20-04-2017 00:00:00 4.68715 C 4.58 g/m*3 4.69 C 3.11042 km/h
1093 21-04-2017 00:00:00 7.98299 C 5.84 g/m*3 7.98 C 2.52326 km/h
1094 22-04-2017 00:00:00 9.60278 C 6.63 g/m*3 8.52 C 8.09826 km/h
1095 23-04-2017 00:00:00 7.34722 C 5.44 g/m*3 6.41 C 6.025 km/h
1096 24-04-2017 00:00:00 8.25764 C 5.77 g/m*3 8.26 C 4.07396 km/h
1097 25-04-2017 00:00:00 8.07118 C 5.7 g/m*3 7.08 C 6.63993 km/h
1098 26-04-2017 00:00:00 7.03611 C 5.28 g/m*3 7.04 C 3.30938 km/h
1099 27-04-2017 00:00:00 7.07917 C 5.27 g/m*3 7.08 C 4.62569 km/h
1100 28-04-2017 00:00:00 6.15972 C 5.83 g/m*3 6.16 C 2.76806 km/h
Sensor: Nr:Datum:Temp:Abs-Feuchte:Windchill:Wind:
Aussen-T/F 1101 29-04-2017 00:00:00 8.79132 C 6.22 g/m*3 8.79 C 3.25972 km/h
1102 30-04-2017 00:00:00 11.04896 C 6.1 g/m*3 11.05 C 5.44514 km/h
1103 01-05-2017 00:00:00 10.13576 C 8.06 g/m*3 10.14 C 2.02361 km/h
1104 02-05-2017 00:00:00 9.00868 C 8.42 g/m*3 9.01 C 0.85139 km/h
1105 03-05-2017 00:00:00 10.15694 C 8.6 g/m*3 10.16 C 2.26319 km/h
1106 04-05-2017 00:00:00 11.64722 C 9.35 g/m*3 11.65 C 2.42014 km/h
1107 05-05-2017 00:00:00 11.58021 C 8.41 g/m*3 11.58 C 3.00451 km/h
1108 06-05-2017 00:00:00 12.91042 C 8.8 g/m*3 12.91 C 3.59826 km/h
1109 07-05-2017 00:00:00 13.1434 C 10.71 g/m*3 13.14 C 2.08194 km/h
1110 08-05-2017 00:00:00 9.64306 C 7.98 g/m*3 8.78 C 7.14514 km/h
1111 09-05-2017 00:00:00 9.69931 C 6.5 g/m*3 9.7 C 4.24028 km/h
1112 10-05-2017 00:00:00 10.29583 C 6.76 g/m*3 10.3 C 2.94722 km/h
1113 11-05-2017 00:00:00 14.23542 C 8.94 g/m*3 14.24 C 2.98646 km/h
1114 12-05-2017 00:00:00 15.89479 C 11.59 g/m*3 15.89 C 2.9941 km/h
1115 13-05-2017 00:00:00 17.24514 C 11.06 g/m*3 17.25 C 5.48472 km/h
1116 14-05-2017 00:00:00 16.17049 C 11.14 g/m*3 16.17 C 3.77431 km/h
1117 15-05-2017 00:00:00 15.43403 C 9.48 g/m*3 15.43 C 2.76597 km/h
1118 16-05-2017 00:00:00 18.86458 C 9.89 g/m*3 18.86 C 2.60833 km/h
1119 17-05-2017 00:00:00 20.20243 C 11.38 g/m*3 20.2 C 3.42951 km/h
1120 18-05-2017 00:00:00 17.96042 C 12.96 g/m*3 17.96 C 1.62813 km/h
1121 19-05-2017 00:00:00 13.45694 C 11.21 g/m*3 13.46 C 2.20451 km/h
1122 20-05-2017 00:00:00 12.04375 C 8.98 g/m*3 12.04 C 4.63194 km/h
1123 21-05-2017 00:00:00 13.43889 C 8.76 g/m*3 13.44 C 2.21771 km/h
1124 22-05-2017 00:00:00 16.05417 C 10.09 g/m*3 16.05 C 2.60903 km/h
1125 23-05-2017 00:00:00 18.46736 C 10.97 g/m*3 18.47 C 6.62188 km/h
Sensor: Nr:Datum:Temp:Abs-Feuchte:Windchill:Wind:
Aussen-T/F 1126 24-05-2017 00:00:00 16.81771 C 10.56 g/m*3 16.82 C 3.53924 km/h
1127 25-05-2017 00:00:00 18.59167 C 11.18 g/m*3 18.59 C 5.55972 km/h
1128 26-05-2017 00:00:00 18.71042 C 11.35 g/m*3 18.71 C 5.42118 km/h
1129 27-05-2017 00:00:00 21.17049 C 12.33 g/m*3 21.17 C 3.3066 km/h
1130 28-05-2017 00:00:00 21.21493 C 14.54 g/m*3 21.21 C 1.70139 km/h
1131 29-05-2017 00:00:00 23.54271 C 16.02 g/m*3 23.54 C 2.28472 km/h
1132 30-05-2017 00:00:00 21.97847 C 14.53 g/m*3 21.98 C 3.78472 km/h
1133 31-05-2017 00:00:00 18.61667 C 10.92 g/m*3 18.62 C 4.02222 km/h
1134 01-06-2017 00:00:00 18.99792 C 11.66 g/m*3 19 C 1.80278 km/h
1135 02-06-2017 00:00:00 19.04583 C 13.67 g/m*3 19.05 C 1.15868 km/h
1136 03-06-2017 00:00:00 18.89236 C 15.13 g/m*3 18.89 C 0.87535 km/h
1137 04-06-2017 00:00:00 16.44306 C 11.83 g/m*3 16.44 C 4.99271 km/h
1138 05-06-2017 00:00:00 16.50278 C 10.81 g/m*3 16.5 C 3.43924 km/h
1139 06-06-2017 00:00:00 15.18958 C 10.1 g/m*3 15.19 C 8.51181 km/h
1140 07-06-2017 00:00:00 13.87778 C 9.04 g/m*3 13.88 C 11.74306 km/h
1141 08-06-2017 00:00:00 18.08924 C 10.58 g/m*3 18.09 C 4.46076 km/h
1142 09-06-2017 00:00:00 16.93299 C 11.76 g/m*3 16.93 C 4.00139 km/h
1143 10-06-2017 00:00:00 17.78368 C 10.69 g/m*3 17.78 C 3.97083 km/h
1144 11-06-2017 00:00:00 20.38229 C 12.71 g/m*3 20.38 C 1.90972 km/h
1145 12-06-2017 00:00:00 20.21667 C 10.4 g/m*3 20.22 C 8.14965 km/h
1146 13-06-2017 00:00:00 17.4059 C 10 g/m*3 17.41 C 4.20868 km/h
1147 14-06-2017 00:00:00 18.66597 C 11.12 g/m*3 18.67 C 4.15208 km/h
1148 15-06-2017 00:00:00 21.18299 C 13.02 g/m*3 21.18 C 2.95868 km/h
1149 16-06-2017 00:00:00 18.97743 C 10.23 g/m*3 18.98 C 8.06076 km/h
1150 17-06-2017 00:00:00 17.05035 C 11.09 g/m*3 17.05 C 3.42014 km/h
Sensor: Nr:Datum:Temp:Abs-Feuchte:Windchill:Wind:
Aussen-T/F 1151 18-06-2017 00:00:00 21.54514 C 13.2 g/m*3 21.55 C 4.86389 km/h
1152 19-06-2017 00:00:00 22.06667 C 12.53 g/m*3 22.07 C 3.4684 km/h
1153 20-06-2017 00:00:00 23.55069 C 13.27 g/m*3 23.55 C 3.48715 km/h
1154 21-06-2017 00:00:00 25.2191 C 14.48 g/m*3 25.22 C 3.80035 km/h
1155 22-06-2017 00:00:00 23.325 C 16.3 g/m*3 23.33 C 3.01181 km/h
1156 23-06-2017 00:00:00 22.47014 C 13.64 g/m*3 22.47 C 5.95729 km/h
1157 24-06-2017 00:00:00 20.09028 C 11.27 g/m*3 20.09 C 7.27708 km/h
1158 25-06-2017 00:00:00 20.12639 C 12.2 g/m*3 20.13 C 6.64236 km/h
1159 26-06-2017 00:00:00 21.1184 C 12.39 g/m*3 21.12 C 5.93507 km/h
1160 27-06-2017 00:00:00 18.80104 C 13.74 g/m*3 18.8 C 2.39063 km/h
1161 28-06-2017 00:00:00 19.80208 C 15.52 g/m*3 19.8 C 2.68854 km/h
1162 29-06-2017 00:00:00 17.97535 C 13.23 g/m*3 17.98 C 4.00035 km/h
1163 30-06-2017 00:00:00 17.41624 C 11.48 g/m*3 17.42 C 7.40111 km/h
1164 01-07-2017 00:00:00 16.45451 C 12.55 g/m*3 16.45 C 5.17604 km/h
1165 02-07-2017 00:00:00 16.87188 C 12.67 g/m*3 16.87 C 4.40313 km/h
1166 03-07-2017 00:00:00 17.94201 C 11.16 g/m*3 17.94 C 5.63924 km/h
1167 04-07-2017 00:00:00 19.98993 C 11.91 g/m*3 19.99 C 3.58125 km/h
1168 05-07-2017 00:00:00 21.5875 C 13.09 g/m*3 21.59 C 3.70139 km/h
1169 06-07-2017 00:00:00 21.41701 C 14.36 g/m*3 21.42 C 3.34063 km/h
1170 07-07-2017 00:00:00 23.46076 C 15.57 g/m*3 23.46 C 5.92986 km/h
1171 08-07-2017 00:00:00 22.5559 C 14.13 g/m*3 22.56 C 3.05868 km/h
1172 09-07-2017 00:00:00 22.69271 C 14.97 g/m*3 22.69 C 3.67882 km/h
1173 10-07-2017 00:00:00 19.75243 C 16.01 g/m*3 19.75 C 0.84063 km/h
1174 11-07-2017 00:00:00 19.33264 C 13.61 g/m*3 19.33 C 5.26319 km/h
1175 12-07-2017 00:00:00 17.22951 C 13.12 g/m*3 17.23 C 7.25833 km/h
Sensor: Nr:Datum:Temp:Abs-Feuchte:Windchill:Wind:
Aussen-T/F 1176 13-07-2017 00:00:00 15.53958 C 10.03 g/m*3 15.54 C 3.51319 km/h
1177 14-07-2017 00:00:00 16.34653 C 10.78 g/m*3 16.35 C 3.36563 km/h
1178 15-07-2017 00:00:00 16.46389 C 10.44 g/m*3 16.46 C 3.6184 km/h
1179 16-07-2017 00:00:00 19.03924 C 13.25 g/m*3 19.04 C 3.24653 km/h
1180 17-07-2017 00:00:00 20.61007 C 14.55 g/m*3 20.61 C 2.96979 km/h
1181 18-07-2017 00:00:00 21.7625 C 14.45 g/m*3 21.76 C 3.56875 km/h
1182 19-07-2017 00:00:00 23.46806 C 15.48 g/m*3 23.47 C 3.69097 km/h
1183 20-07-2017 00:00:00 21.83889 C 15.3 g/m*3 21.84 C 5.35903 km/h
1184 21-07-2017 00:00:00 20.14583 C 12.5 g/m*3 20.15 C 3.22951 km/h
1185 22-07-2017 00:00:00 21.77813 C 15.77 g/m*3 21.78 C 2.44236 km/h
1186 23-07-2017 00:00:00 18.27639 C 12.29 g/m*3 18.28 C 5.68299 km/h
1187 24-07-2017 00:00:00 14.9816 C 11.7 g/m*3 14.98 C 1.8816 km/h
1188 25-07-2017 00:00:00 14.46979 C 11.94 g/m*3 14.47 C 3.57743 km/h
1189 26-07-2017 00:00:00 17.50729 C 12.83 g/m*3 17.51 C 6.14132 km/h
1190 27-07-2017 00:00:00 18.9184 C 14.54 g/m*3 18.92 C 3.37674 km/h
1191 28-07-2017 00:00:00 17.14236 C 12.2 g/m*3 17.14 C 4.89167 km/h
1192 29-07-2017 00:00:00 20.44271 C 14.37 g/m*3 20.44 C 3.35764 km/h
1193 30-07-2017 00:00:00 22.74236 C 14.92 g/m*3 22.74 C 7.14931 km/h
1194 31-07-2017 00:00:00 20.73542 C 14.05 g/m*3 20.74 C 3.22917 km/h
1195 01-08-2017 00:00:00 19.90799 C 16.27 g/m*3 19.91 C 1.10174 km/h
1196 02-08-2017 00:00:00 21.09306 C 15.93 g/m*3 21.09 C 2.4434 km/h
1197 03-08-2017 00:00:00 21.32153 C 15.57 g/m*3 21.32 C 4.87639 km/h
1198 04-08-2017 00:00:00 20.4309 C 13.51 g/m*3 20.43 C 5.63403 km/h
1199 05-08-2017 00:00:00 18.99826 C 12.99 g/m*3 19 C 5.44931 km/h
1200 06-08-2017 00:00:00 17.06181 C 10.81 g/m*3 17.06 C 2.57917 km/h
Sensor: Nr:Datum:Temp:Abs-Feuchte:Windchill:Wind:
Aussen-T/F 1201 07-08-2017 00:00:00 17.21319 C 10.92 g/m*3 17.21 C 1.88125 km/h
1202 08-08-2017 00:00:00 17.34063 C 12.81 g/m*3 17.34 C 1.82118 km/h
1203 09-08-2017 00:00:00 17.64167 C 11.72 g/m*3 17.64 C 2.90521 km/h
1204 10-08-2017 00:00:00 15.45139 C 12.48 g/m*3 15.45 C 0.27292 km/h
1205 11-08-2017 00:00:00 14.99271 C 12.23 g/m*3 14.99 C 2.51771 km/h
1206 12-08-2017 00:00:00 15.39965 C 12.41 g/m*3 15.4 C 7.06667 km/h
1207 13-08-2017 00:00:00 18.25694 C 13.14 g/m*3 18.26 C 3.16806 km/h
1208 14-08-2017 00:00:00 18.07396 C 13.46 g/m*3 18.07 C 1.50764 km/h
1209 15-08-2017 00:00:00 18.78299 C 15.05 g/m*3 18.78 C 0.67396 km/h
1210 16-08-2017 00:00:00 19.80486 C 14.91 g/m*3 19.8 C 0.68403 km/h
1211 17-08-2017 00:00:00 19.18438 C 14.38 g/m*3 19.18 C 2.50069 km/h
1212 18-08-2017 00:00:00 18.28819 C 14.71 g/m*3 18.29 C 1.55625 km/h
1213 19-08-2017 00:00:00 14.62049 C 11.35 g/m*3 14.62 C 4.0434 km/h
1214 20-08-2017 00:00:00 14.85243 C 10.98 g/m*3 14.85 C 3.08681 km/h
1215 21-08-2017 00:00:00 15.85833 C 11.1 g/m*3 15.86 C 1.35313 km/h
1216 22-08-2017 00:00:00 15.7316 C 11.38 g/m*3 15.73 C 0 km/h
1217 23-08-2017 00:00:00 17.82812 C 12.81 g/m*3 17.83 C 0.16215 km/h
1218 24-08-2017 00:00:00 19.30625 C 13.63 g/m*3 19.31 C 1.4684 km/h
1219 25-08-2017 00:00:00 18.12049 C 13.83 g/m*3 18.12 C 0.43646 km/h
1220 26-08-2017 00:00:00 20.59861 C 16.63 g/m*3 20.6 C 0.80938 km/h
1221 27-08-2017 00:00:00 19.43507 C 14.96 g/m*3 19.44 C 0.06667 km/h
1222 28-08-2017 00:00:00 19.49063 C 14.39 g/m*3 19.49 C 0.04444 km/h
1223 29-08-2017 00:00:00 19.97986 C 14.91 g/m*3 19.98 C 0 km/h
1224 30-08-2017 00:00:00 20.58819 C 15.93 g/m*3 20.59 C 0.45868 km/h
1225 31-08-2017 00:00:00 17.03194 C 12.63 g/m*3 17.03 C 2.87639 km/h
Sensor: Nr:Datum:Temp:Abs-Feuchte:Windchill:Wind:
Aussen-T/F 1226 01-09-2017 00:00:00 13.72639 C 10.48 g/m*3 13.73 C 0.7375 km/h
1227 02-09-2017 00:00:00 14.2625 C 10.96 g/m*3 14.26 C 1.05694 km/h
1228 03-09-2017 00:00:00 13.22257 C 10.09 g/m*3 13.22 C 0.08368 km/h
1229 04-09-2017 00:00:00 13.75208 C 10.7 g/m*3 13.75 C 0 km/h
1230 05-09-2017 00:00:00 17.85347 C 13.75 g/m*3 17.85 C 0.95694 km/h
1231 06-09-2017 00:00:00 17.36389 C 11.62 g/m*3 17.36 C 6.73403 km/h
1232 07-09-2017 00:00:00 15.38472 C 10.58 g/m*3 15.38 C 4.74201 km/h
1233 08-09-2017 00:00:00 15.88958 C 10.93 g/m*3 15.89 C 6.42396 km/h
1234 09-09-2017 00:00:00 14.59236 C 11.45 g/m*3 14.59 C 4.23333 km/h
1235 10-09-2017 00:00:00 13.23924 C 10.22 g/m*3 13.24 C 3.54236 km/h
1236 11-09-2017 00:00:00 14.41667 C 10.52 g/m*3 14.42 C 5.17014 km/h
1237 12-09-2017 00:00:00 14.27674 C 10.36 g/m*3 14.28 C 7.5184 km/h
1238 13-09-2017 00:00:00 14.43993 C 10.85 g/m*3 14.44 C 8.21215 km/h
1239 14-09-2017 00:00:00 11.98194 C 9.8 g/m*3 11.98 C 8.05938 km/h
1240 15-09-2017 00:00:00 12.37917 C 9.61 g/m*3 12.38 C 4.32257 km/h
1241 16-09-2017 00:00:00 10.41007 C 8.52 g/m*3 10.41 C 2.40174 km/h
1242 17-09-2017 00:00:00 9.97118 C 8.91 g/m*3 9.97 C 0.17222 km/h
1243 18-09-2017 00:00:00 10.50764 C 8.82 g/m*3 10.51 C 3.9375 km/h
1244 19-09-2017 00:00:00 11.95903 C 9.85 g/m*3 11.96 C 1.32465 km/h
1245 20-09-2017 00:00:00 11.3184 C 9.46 g/m*3 11.32 C 2.12014 km/h
1246 21-09-2017 00:00:00 10.7559 C 9.09 g/m*3 10.76 C 0 km/h
1247 22-09-2017 00:00:00 11.39757 C 9.52 g/m*3 11.4 C 0.00556 km/h
1248 23-09-2017 00:00:00 13.63785 C 10.56 g/m*3 13.64 C 0.44618 km/h
1249 24-09-2017 00:00:00 12.54826 C 10.32 g/m*3 12.55 C 0.02222 km/h
1250 25-09-2017 00:00:00 12.85729 C 10.45 g/m*3 12.86 C 0.28889 km/h
Sensor: Nr:Datum:Temp:Abs-Feuchte:Windchill:Wind:
Aussen-T/F 1251 26-09-2017 00:00:00 13.54097 C 10.8 g/m*3 13.54 C 0.12222 km/h
1252 27-09-2017 00:00:00 13.15069 C 10.78 g/m*3 13.15 C 0 km/h
1253 28-09-2017 00:00:00 14.79861 C 11.89 g/m*3 14.8 C 0.01111 km/h
1254 29-09-2017 00:00:00 17.64722 C 13.79 g/m*3 17.65 C 0.12778 km/h
1255 30-09-2017 00:00:00 14.56597 C 11.89 g/m*3 14.57 C 1.07049 km/h
1256 01-10-2017 00:00:00 11.45937 C 9.79 g/m*3 11.46 C 0.10556 km/h
1257 02-10-2017 00:00:00 14.42951 C 11.51 g/m*3 14.43 C 1.49063 km/h
1258 03-10-2017 00:00:00 12.49618 C 9.77 g/m*3 12.5 C 3.20521 km/h
1259 04-10-2017 00:00:00 11.37812 C 9.03 g/m*3 11.38 C 5.95556 km/h
1260 05-10-2017 00:00:00 12.35868 C 9.35 g/m*3 12.36 C 12.15313 km/h
1261 06-10-2017 00:00:00 9.83438 C 8.52 g/m*3 9.83 C 2.725 km/h
1262 07-10-2017 00:00:00 10.24653 C 8.57 g/m*3 9.14 C 8.77708 km/h
1263 08-10-2017 00:00:00 11.93993 C 9.94 g/m*3 11.94 C 4.34583 km/h
1264 09-10-2017 00:00:00 11.42222 C 9.62 g/m*3 11.42 C 0 km/h
1265 10-10-2017 00:00:00 13.19062 C 10.69 g/m*3 13.19 C 1.63715 km/h
1266 11-10-2017 00:00:00 13.59722 C 10.66 g/m*3 13.6 C 1.70174 km/h
1267 12-10-2017 00:00:00 13.7684 C 10.1 g/m*3 13.77 C 3.95035 km/h
1268 13-10-2017 00:00:00 14.15556 C 11.19 g/m*3 14.16 C 2.80556 km/h
1269 14-10-2017 00:00:00 13.13611 C 10.91 g/m*3 13.14 C 0 km/h
1270 15-10-2017 00:00:00 12.53021 C 10.57 g/m*3 12.53 C 0 km/h
1271 16-10-2017 00:00:00 13.45347 C 11.15 g/m*3 13.45 C 0 km/h
1272 17-10-2017 00:00:00 13.09201 C 10.93 g/m*3 13.09 C 0 km/h
1273 18-10-2017 00:00:00 12.20313 C 10.34 g/m*3 12.2 C 0 km/h
1274 19-10-2017 00:00:00 11.5059 C 9.9 g/m*3 11.51 C 0.01111 km/h
1275 20-10-2017 00:00:00 10.5122 C 8.6 g/m*3 10.51 C 0.45 km/h
Sensor: Nr:Datum:Temp:Abs-Feuchte:Windchill:Wind:
Aussen-T/F 1276 21-10-2017 00:00:00 11.76076 C 9.6 g/m*3 11.76 C 3.55208 km/h
1277 22-10-2017 00:00:00 10.78507 C 8.44 g/m*3 9.58 C 9.92986 km/h
1278 23-10-2017 00:00:00 10.79653 C 8.65 g/m*3 10.17 C 6.91319 km/h
1279 24-10-2017 00:00:00 13.69826 C 10.8 g/m*3 13.7 C 4.73993 km/h
1280 25-10-2017 00:00:00 15.51111 C 11.56 g/m*3 15.51 C 3.0375 km/h
1281 26-10-2017 00:00:00 13.26736 C 10.51 g/m*3 13.27 C 4.36632 km/h
1282 27-10-2017 00:00:00 11.49132 C 9.25 g/m*3 11.49 C 5.30313 km/h
1283 28-10-2017 00:00:00 10.36076 C 8 g/m*3 9.28 C 8.76771 km/h
1284 29-10-2017 00:00:00 10.65694 C 8.08 g/m*3 8.95 C 13.1941 km/h
1285 30-10-2017 00:00:00 7.17326 C 6.7 g/m*3 7.17 C 3.06424 km/h
1286 31-10-2017 00:00:00 7.26806 C 6.76 g/m*3 7.27 C 2.70417 km/h
1287 01-11-2017 00:00:00 8.73021 C 7.41 g/m*3 8.73 C 3.67465 km/h
1288 02-11-2017 00:00:00 8.66389 C 7.58 g/m*3 8.66 C 2.75313 km/h
1289 03-11-2017 00:00:00 7.17014 C 7.34 g/m*3 7.17 C 0.63889 km/h
1290 04-11-2017 00:00:00 8.34132 C 8.01 g/m*3 8.34 C 1.05347 km/h
1291 05-11-2017 00:00:00 8.89965 C 8.08 g/m*3 8.9 C 2.91146 km/h
1292 06-11-2017 00:00:00 5.51424 C 6.53 g/m*3 5.51 C 1.5066 km/h
1293 07-11-2017 00:00:00 4.45868 C 6.23 g/m*3 4.46 C 0.68889 km/h
1294 08-11-2017 00:00:00 6.63854 C 7.3 g/m*3 6.64 C 0.23333 km/h
1295 09-11-2017 00:00:00 7.54028 C 7.68 g/m*3 7.54 C 2.1184 km/h
1296 10-11-2017 00:00:00 7.46563 C 7.25 g/m*3 5.45 C 10.80903 km/h
1297 11-11-2017 00:00:00 6.4559 C 7.02 g/m*3 5.69 C 5.11701 km/h
1298 12-11-2017 00:00:00 4.6809 C 6.4 g/m*3 4.68 C 1.95069 km/h
1299 13-11-2017 00:00:00 5.61111 C 6.57 g/m*3 4.67 C 5.29444 km/h
1300 14-11-2017 00:00:00 4.67951 C 6.28 g/m*3 4.68 C 4.62222 km/h
Sensor: Nr:Datum:Temp:Abs-Feuchte:Windchill:Wind:
Aussen-T/F 1301 15-11-2017 00:00:00 6.91389 C 6.94 g/m*3 6.91 C 2.09375 km/h
1302 16-11-2017 00:00:00 4.84201 C 6.26 g/m*3 4.84 C 0.89549 km/h
1303 17-11-2017 00:00:00 6.01007 C 6.95 g/m*3 6.01 C 1.26736 km/h
1304 18-11-2017 00:00:00 3.55278 C 5.64 g/m*3 1.44 C 7.98229 km/h
1305 19-11-2017 00:00:00 5.66389 C 6.36 g/m*3 4.01 C 7.62743 km/h
1306 20-11-2017 00:00:00 5.24618 C 6.33 g/m*3 2.83 C 10.57674 km/h
1307 21-11-2017 00:00:00 9.24063 C 8.12 g/m*3 7.29 C 12.69167 km/h
1308 22-11-2017 00:00:00 8.26528 C 7.41 g/m*3 7.55 C 5.73819 km/h
1309 23-11-2017 00:00:00 9.3059 C 7.92 g/m*3 8.66 C 6.05382 km/h
1310 24-11-2017 00:00:00 10.45451 C 8.94 g/m*3 10.45 C 4.67118 km/h
1311 25-11-2017 00:00:00 5.3059 C 6.63 g/m*3 5.31 C 3.64826 km/h
1312 26-11-2017 00:00:00 3.77986 C 5.56 g/m*3 1.25 C 9.79132 km/h
1313 27-11-2017 00:00:00 5.66632 C 6.19 g/m*3 2.28 C 17.03646 km/h
1314 28-11-2017 00:00:00 4.26181 C 6.12 g/m*3 4.26 C 3.98542 km/h
1315 29-11-2017 00:00:00 3.03576 C 5.69 g/m*3 3.04 C 1.06007 km/h
1316 30-11-2017 00:00:00 2.44201 C 5.46 g/m*3 2.44 C 2.34965 km/h
1317 01-12-2017 00:00:00 1.13021 C 5.01 g/m*3 1.13 C 0.67326 km/h
1318 02-12-2017 00:00:00 0.97604 C 4.88 g/m*3 0.98 C 0.80556 km/h
1319 03-12-2017 00:00:00 0.67674 C 4.74 g/m*3 -1.45 C 6.54375 km/h
1320 04-12-2017 00:00:00 3.2816 C 5.79 g/m*3 1.28 C 7.44618 km/h
1321 05-12-2017 00:00:00 4.74826 C 6.25 g/m*3 3.16 C 6.84826 km/h
1322 06-12-2017 00:00:00 5.89792 C 6.5 g/m*3 5.9 C 3.86806 km/h
1323 07-12-2017 00:00:00 4.77986 C 5.78 g/m*3 2.61 C 9.06354 km/h
1324 08-12-2017 00:00:00 3.52014 C 5.46 g/m*3 1.3 C 8.35521 km/h
1325 09-12-2017 00:00:00 1.27569 C 4.41 g/m*3 -2.13 C 11.44167 km/h
Sensor: Nr:Datum:Temp:Abs-Feuchte:Windchill:Wind:
Aussen-T/F 1326 10-12-2017 00:00:00 2.40903 C 5.07 g/m*3 -0.53 C 10.39167 km/h
1327 11-12-2017 00:00:00 6.02118 C 6.82 g/m*3 6.02 C 4.75764 km/h
1328 12-12-2017 00:00:00 3.72292 C 5.3 g/m*3 0.85 C 11.29201 km/h
1329 13-12-2017 00:00:00 3.81597 C 5.63 g/m*3 2.48 C 5.68299 km/h
1330 14-12-2017 00:00:00 4.58611 C 5.95 g/m*3 2.05 C 10.54931 km/h
1331 15-12-2017 00:00:00 2.98611 C 5.68 g/m*3 2.99 C 2.06563 km/h
1332 16-12-2017 00:00:00 3.04167 C 5.72 g/m*3 3.04 C 1.3566 km/h
1333 17-12-2017 00:00:00 3.05208 C 5.5 g/m*3 3.05 C 3.93611 km/h
1334 18-12-2017 00:00:00 1.66944 C 5.19 g/m*3 1.67 C 1.02847 km/h
1335 19-12-2017 00:00:00 3.35556 C 5.91 g/m*3 3.36 C 0.77222 km/h
1336 20-12-2017 00:00:00 5.65625 C 6.93 g/m*3 5.66 C 1.13333 km/h
1337 21-12-2017 00:00:00 7.51667 C 7.82 g/m*3 7.52 C 3.27188 km/h
1338 22-12-2017 00:00:00 8.8125 C 8.53 g/m*3 8.81 C 1.27326 km/h
1339 23-12-2017 00:00:00 8.76389 C 8.14 g/m*3 8.76 C 3.53056 km/h
1340 24-12-2017 00:00:00 8.92292 C 7.78 g/m*3 7.33 C 10.05451 km/h
1341 25-12-2017 00:00:00 6.77708 C 6.55 g/m*3 5.49 C 6.95694 km/h
1342 26-12-2017 00:00:00 4.68299 C 6.04 g/m*3 3.68 C 5.10208 km/h
1343 27-12-2017 00:00:00 5.13993 C 6.37 g/m*3 5.14 C 2.25625 km/h
1344 28-12-2017 00:00:00 3.24826 C 5.33 g/m*3 1.08 C 7.99792 km/h
1345 29-12-2017 00:00:00 2.41944 C 5.04 g/m*3 0.74 C 6.05243 km/h
1346 30-12-2017 00:00:00 7.77187 C 7.4 g/m*3 6.15 C 9.0941 km/h
1347 31-12-2017 00:00:00 12.74549 C 9.22 g/m*3 12.75 C 14.66389 km/h
1348 01-01-2018 00:00:00 7.71458 C 6.84 g/m*3 5.35 C 13.26632 km/h
1349 02-01-2018 00:00:00 6.21076 C 6.49 g/m*3 4.66 C 7.58021 km/h
1350 03-01-2018 00:00:00 8.40313 C 7.17 g/m*3 5.86 C 15.68403 km/h
Sensor: Nr:Datum:Temp:Abs-Feuchte:Windchill:Wind:
Aussen-T/F 1351 04-01-2018 00:00:00 8.24792 C 7.54 g/m*3 6.81 C 8.63264 km/h
1352 05-01-2018 00:00:00 8.32257 C 7.57 g/m*3 7.53 C 6.02951 km/h
1353 06-01-2018 00:00:00 6.22188 C 7.13 g/m*3 6.22 C 0.15 km/h
1354 07-01-2018 00:00:00 5.11458 C 6.3 g/m*3 3.93 C 5.77014 km/h
1355 08-01-2018 00:00:00 4.61597 C 5.9 g/m*3 2.81 C 7.55104 km/h
1356 09-01-2018 00:00:00 5.0191 C 6.33 g/m*3 5.02 C 1.46389 km/h
1357 10-01-2018 00:00:00 6.95243 C 7.13 g/m*3 6.95 C 1.45799 km/h
1358 11-01-2018 00:00:00 6.99653 C 7.36 g/m*3 7 C 0.58403 km/h
1359 12-01-2018 00:00:00 6.57708 C 7.22 g/m*3 6.58 C 0.61736 km/h
1360 13-01-2018 00:00:00 5.39062 C 6.26 g/m*3 5.39 C 1.79861 km/h
1361 14-01-2018 00:00:00 2.95174 C 5.07 g/m*3 2.95 C 2.72118 km/h
1362 15-01-2018 00:00:00 3.65833 C 5.66 g/m*3 3.66 C 4.98194 km/h
1363 16-01-2018 00:00:00 6.14618 C 6.28 g/m*3 3.64 C 12.03646 km/h
1364 17-01-2018 00:00:00 3.45868 C 5.32 g/m*3 0.76 C 10.24063 km/h
1365 18-01-2018 00:00:00 5.94167 C 5.93 g/m*3 3.05 C 14.11215 km/h
1366 19-01-2018 00:00:00 3.96146 C 5.5 g/m*3 2.14 C 7.22083 km/h
1367 20-01-2018 00:00:00 3.05937 C 5.44 g/m*3 3.06 C 3.72847 km/h
1368 21-01-2018 00:00:00 2.72951 C 5.46 g/m*3 2.73 C 4.32535 km/h
1369 22-01-2018 00:00:00 5.11563 C 6.42 g/m*3 5.12 C 3.5941 km/h
1370 23-01-2018 00:00:00 7.37049 C 7.03 g/m*3 6.39 C 6.20451 km/h
1371 24-01-2018 00:00:00 11.38021 C 8.86 g/m*3 11.38 C 8.62951 km/h
1372 25-01-2018 00:00:00 9.87465 C 8.58 g/m*3 9.87 C 3.23924 km/h
1373 26-01-2018 00:00:00 6.62222 C 7.24 g/m*3 6.62 C 0.9 km/h
1374 27-01-2018 00:00:00 4.73299 C 6.35 g/m*3 4.73 C 3.17639 km/h
1375 28-01-2018 00:00:00 7.29028 C 7.08 g/m*3 4.78 C 13.57986 km/h
Sensor: Nr:Datum:Temp:Abs-Feuchte:Windchill:Wind:
Aussen-T/F 1376 29-01-2018 00:00:00 9.82882 C 7.97 g/m*3 7.9 C 13.46389 km/h
1377 30-01-2018 00:00:00 5.41111 C 6.32 g/m*3 5.41 C 2.66736 km/h
1378 31-01-2018 00:00:00 7.52153 C 7.3 g/m*3 5.31 C 12.00174 km/h
1379 01-02-2018 00:00:00 3.10243 C 5.4 g/m*3 1.32 C 6.65 km/h
1380 02-02-2018 00:00:00 3.41285 C 5.56 g/m*3 1.3 C 7.89028 km/h
1381 03-02-2018 00:00:00 3.47118 C 5.38 g/m*3 3.47 C 2.27569 km/h
1382 04-02-2018 00:00:00 1.1434 C 4.56 g/m*3 -1.19 C 7.35729 km/h
1383 05-02-2018 00:00:00 0.32431 C 4.11 g/m*3 0.32 C 3.76007 km/h
1384 06-02-2018 00:00:00 -0.78056 C 4.09 g/m*3 -0.78 C 2.96389 km/h
1385 07-02-2018 00:00:00 -0.06111 C 4.42 g/m*3 -0.06 C 2.50139 km/h
1386 08-02-2018 00:00:00 -2.18819 C 3.69 g/m*3 -2.19 C 1.21736 km/h
1387 09-02-2018 00:00:00 -1.96007 C 3.91 g/m*3 -1.96 C 1.11354 km/h
1388 10-02-2018 00:00:00 2.22257 C 4.97 g/m*3 0.53 C 5.99722 km/h
1389 11-02-2018 00:00:00 3.32535 C 5.25 g/m*3 1.15 C 8.05417 km/h
1390 12-02-2018 00:00:00 2.1059 C 4.81 g/m*3 0.18 C 6.61215 km/h
1391 13-02-2018 00:00:00 -0.32674 C 4.04 g/m*3 -0.33 C 2.02847 km/h
1392 14-02-2018 00:00:00 -1.52222 C 3.64 g/m*3 -1.52 C 2.22014 km/h
1393 15-02-2018 00:00:00 1.83299 C 4.9 g/m*3 1.83 C 2.48333 km/h
1394 16-02-2018 00:00:00 2.01597 C 5.35 g/m*3 2.02 C 1.68333 km/h
1395 17-02-2018 00:00:00 0.40521 C 4.67 g/m*3 0.41 C 1.04444 km/h
1396 18-02-2018 00:00:00 -1.01701 C 4.18 g/m*3 -1.02 C 1.60069 km/h
1397 19-02-2018 00:00:00 1.11667 C 4.64 g/m*3 1.12 C 1.06146 km/h
1398 20-02-2018 00:00:00 0.74271 C 4.44 g/m*3 0.74 C 1.1566 km/h
1399 21-02-2018 00:00:00 1.21181 C 4.06 g/m*3 1.21 C 3.75799 km/h
1400 22-02-2018 00:00:00 -0.03507 C 3.58 g/m*3 -2.34 C 6.70729 km/h
Sensor: Nr:Datum:Temp:Abs-Feuchte:Windchill:Wind:
Aussen-T/F 1401 23-02-2018 00:00:00 -0.725 C 2.87 g/m*3 -3.37 C 7.34201 km/h
1402 24-02-2018 00:00:00 -1.57049 C 2.74 g/m*3 -4.74 C 8.49132 km/h
1403 25-02-2018 00:00:00 -2.70729 C 2.11 g/m*3 -6.52 C 9.91007 km/h
1404 26-02-2018 00:00:00 -4.18854 C 2.42 g/m*3 -8.04 C 9.09861 km/h
1405 27-02-2018 00:00:00 -6.00417 C 2.24 g/m*3 -9.08 C 6.31389 km/h
1406 28-02-2018 00:00:00 -6.7066 C 1.98 g/m*3 -10.3 C 7.22743 km/h
1407 01-03-2018 00:00:00 -2.91424 C 2.15 g/m*3 -6.95 C 10.55313 km/h
1408 02-03-2018 00:00:00 -2.40208 C 2.58 g/m*3 -5.56 C 7.99167 km/h
1409 03-03-2018 00:00:00 -0.40937 C 4.22 g/m*3 -0.41 C 2.65278 km/h
1410 04-03-2018 00:00:00 4.02986 C 5.8 g/m*3 4.03 C 2.88438 km/h
1411 05-03-2018 00:00:00 5.96979 C 6.23 g/m*3 5.97 C 3.11806 km/h
1412 06-03-2018 00:00:00 4.90694 C 5.87 g/m*3 4.91 C 1.15243 km/h
1413 07-03-2018 00:00:00 5.39792 C 6.28 g/m*3 4.2 C 5.93958 km/h
1414 08-03-2018 00:00:00 6.19653 C 6.16 g/m*3 4.42 C 8.50521 km/h
1415 09-03-2018 00:00:00 5.56528 C 6.63 g/m*3 5.57 C 0.73542 km/h
1416 10-03-2018 00:00:00 10.03125 C 8.71 g/m*3 10.03 C 1.29306 km/h
1417 11-03-2018 00:00:00 10.51493 C 8.87 g/m*3 10.51 C 2.37292 km/h
1418 12-03-2018 00:00:00 9.7 C 8.32 g/m*3 9.7 C 4.65313 km/h
1419 13-03-2018 00:00:00 7.76667 C 7.18 g/m*3 5.67 C 11.61493 km/h
1420 14-03-2018 00:00:00 6.86458 C 6.42 g/m*3 6.86 C 3.45278 km/h
1421 15-03-2018 00:00:00 6.40382 C 6.23 g/m*3 6.4 C 4.83681 km/h
1422 16-03-2018 00:00:00 7.64097 C 7.66 g/m*3 7.64 C 2.3625 km/h
1423 17-03-2018 00:00:00 -0.44516 C 3.9 g/m*3 -4.47 C 12.59211 km/h
1424 18-03-2018 00:00:00 -1.64028 C 3.26 g/m*3 -6.02 C 12.99583 km/h
1425 19-03-2018 00:00:00 -0.54479 C 3.07 g/m*3 -3.19 C 7.43993 km/h
Sensor: Nr:Datum:Temp:Abs-Feuchte:Windchill:Wind:
Aussen-T/F 1426 20-03-2018 00:00:00 0.29653 C 3.63 g/m*3 -1.86 C 6.45729 km/h
1427 21-03-2018 00:00:00 1.2059 C 4.02 g/m*3 1.21 C 3.86007 km/h
1428 22-03-2018 00:00:00 3.06319 C 5.35 g/m*3 0.89 C 7.90903 km/h
1429 23-03-2018 00:00:00 6.14028 C 6.53 g/m*3 6.14 C 4.91215 km/h
1430 24-03-2018 00:00:00 5.20069 C 5.5 g/m*3 5.2 C 4.27847 km/h
1431 25-03-2018 00:00:00 5.42862 C 5.35 g/m*3 5.43 C 1.58116 km/h
1432 26-03-2018 00:00:00 7.61146 C 5.89 g/m*3 7.61 C 4.51944 km/h
1433 27-03-2018 00:00:00 5.82222 C 6 g/m*3 5.82 C 2.61076 km/h
1434 28-03-2018 00:00:00 8.50799 C 7.86 g/m*3 7.24 C 8.07014 km/h
1435 29-03-2018 00:00:00 7.11424 C 5.91 g/m*3 5.45 C 8.70694 km/h
1436 30-03-2018 00:00:00 6.82813 C 6.26 g/m*3 6.83 C 3.19583 km/h
1437 31-03-2018 00:00:00 8.09792 C 6.55 g/m*3 8.1 C 3.37431 km/h
1438 01-04-2018 00:00:00 7.66979 C 6.6 g/m*3 6.45 C 7.26771 km/h
1439 02-04-2018 00:00:00 8.78611 C 6.51 g/m*3 8.79 C 2.61667 km/h
1440 03-04-2018 00:00:00 13.35 C 7.85 g/m*3 13.35 C 5.34063 km/h
1441 04-04-2018 00:00:00 11.17187 C 8.61 g/m*3 11.17 C 3.56354 km/h
1442 05-04-2018 00:00:00 8.16042 C 7.03 g/m*3 6.83 C 8.06528 km/h
1443 06-04-2018 00:00:00 6.97187 C 5.64 g/m*3 6.27 C 5.13125 km/h
1444 07-04-2018 00:00:00 12.50035 C 7.31 g/m*3 12.5 C 4.33785 km/h
1445 08-04-2018 00:00:00 14.90417 C 8.58 g/m*3 14.9 C 1.37778 km/h
1446 09-04-2018 00:00:00 13.73333 C 8.63 g/m*3 13.73 C 2.37743 km/h
1447 10-04-2018 00:00:00 13.3816 C 9.08 g/m*3 13.38 C 3.81424 km/h
1448 11-04-2018 00:00:00 11.50035 C 9.04 g/m*3 11.5 C 3.41215 km/h
1449 12-04-2018 00:00:00 13.06493 C 9.17 g/m*3 13.06 C 2.3941 km/h
1450 13-04-2018 00:00:00 10.32188 C 8.45 g/m*3 10.32 C 3.15069 km/h
Sensor: Nr:Datum:Temp:Abs-Feuchte:Windchill:Wind:
Aussen-T/F 1451 14-04-2018 00:00:00 13.08403 C 8.7 g/m*3 13.08 C 4.25278 km/h
1452 15-04-2018 00:00:00 14.37465 C 10.1 g/m*3 14.37 C 1.85 km/h
1453 16-04-2018 00:00:00 13.42882 C 9.15 g/m*3 13.43 C 3.92951 km/h
1454 17-04-2018 00:00:00 13.72569 C 8.87 g/m*3 13.73 C 1.92604 km/h
1455 18-04-2018 00:00:00 15.73264 C 9.36 g/m*3 15.73 C 3.05938 km/h
1456 19-04-2018 00:00:00 17.21806 C 9.72 g/m*3 17.22 C 3.07951 km/h
1457 20-04-2018 00:00:00 17.08681 C 9.86 g/m*3 17.09 C 0.76736 km/h
1458 21-04-2018 00:00:00 18.09931 C 11.01 g/m*3 18.1 C 1.74896 km/h
1459 22-04-2018 00:00:00 18.53681 C 11.59 g/m*3 18.54 C 2.82118 km/h
1460 23-04-2018 00:00:00 18.01181 C 10.85 g/m*3 18.01 C 5.78785 km/h
1461 24-04-2018 00:00:00 14.03854 C 8.78 g/m*3 14.04 C 5.82257 km/h
1462 25-04-2018 00:00:00 13.47917 C 8.83 g/m*3 13.48 C 7.36354 km/h
1463 26-04-2018 00:00:00 11.09167 C 6.55 g/m*3 11.09 C 9.10486 km/h
1464 27-04-2018 00:00:00 11.96181 C 7.21 g/m*3 11.96 C 3.81458 km/h
1465 28-04-2018 00:00:00 12.62917 C 8.08 g/m*3 12.63 C 4.77917 km/h
1466 29-04-2018 00:00:00 14.24792 C 10.51 g/m*3 14.25 C 1.89306 km/h
1467 30-04-2018 00:00:00 13.44931 C 9.07 g/m*3 13.45 C 11.19028 km/h
1468 01-05-2018 00:00:00 9.59063 C 6.38 g/m*3 7.95 C 11.16215 km/h
1469 02-05-2018 00:00:00 9.44549 C 6.87 g/m*3 9.45 C 1.49861 km/h
1470 03-05-2018 00:00:00 12.35347 C 7.47 g/m*3 12.35 C 5.33854 km/h
1471 04-05-2018 00:00:00 13.14618 C 7.49 g/m*3 13.15 C 4.03958 km/h
1472 05-05-2018 00:00:00 15.50764 C 8.1 g/m*3 15.51 C 5.19028 km/h
1473 06-05-2018 00:00:00 17.0059 C 8.35 g/m*3 17.01 C 5.45382 km/h
1474 07-05-2018 00:00:00 17.60312 C 9.27 g/m*3 17.6 C 4.27014 km/h
1475 08-05-2018 00:00:00 18.08264 C 9.66 g/m*3 18.08 C 3.9066 km/h
Sensor: Nr:Datum:Temp:Abs-Feuchte:Windchill:Wind:
Aussen-T/F 1476 09-05-2018 00:00:00 17.125 C 10.4 g/m*3 17.13 C 1.76007 km/h
1477 10-05-2018 00:00:00 14.09271 C 10.56 g/m*3 14.09 C 2.65521 km/h
1478 11-05-2018 00:00:00 14.47951 C 9.6 g/m*3 14.48 C 3.24028 km/h
1479 12-05-2018 00:00:00 16.39236 C 10.49 g/m*3 16.39 C 2.48299 km/h
1480 13-05-2018 00:00:00 14.62278 C 11.67 g/m*3 14.62 C 4.05943 km/h
1481 14-05-2018 00:00:00 16.77361 C 12.71 g/m*3 16.77 C 4.97049 km/h
1482 15-05-2018 00:00:00 15.91597 C 10.19 g/m*3 15.92 C 3.5066 km/h
1483 16-05-2018 00:00:00 15.4941 C 11 g/m*3 15.49 C 5.56806 km/h
1484 17-05-2018 00:00:00 13.78333 C 8.76 g/m*3 13.78 C 10.21319 km/h
1485 18-05-2018 00:00:00 12.14792 C 8.01 g/m*3 12.15 C 5.71875 km/h
1486 19-05-2018 00:00:00 13.63299 C 8.69 g/m*3 13.63 C 3.95486 km/h
1487 20-05-2018 00:00:00 14.00278 C 10.17 g/m*3 14 C 2.39514 km/h
1488 21-05-2018 00:00:00 17.43819 C 11.61 g/m*3 17.44 C 2.63264 km/h
1489 22-05-2018 00:00:00 16.97917 C 11.95 g/m*3 16.98 C 2.05625 km/h
1490 23-05-2018 00:00:00 17.30243 C 13.04 g/m*3 17.3 C 0.78993 km/h
1491 24-05-2018 00:00:00 17.125 C 12.81 g/m*3 17.13 C 2.15556 km/h
1492 25-05-2018 00:00:00 19.81944 C 13.72 g/m*3 19.82 C 2.28681 km/h
1493 26-05-2018 00:00:00 20.84826 C 13.87 g/m*3 20.85 C 2.68403 km/h
1494 27-05-2018 00:00:00 20.3191 C 14.34 g/m*3 20.32 C 1.83542 km/h
1495 28-05-2018 00:00:00 21.47083 C 15.37 g/m*3 21.47 C 1.89931 km/h
1496 29-05-2018 00:00:00 20.77292 C 15.54 g/m*3 20.77 C 1.35556 km/h
1497 30-05-2018 00:00:00 21.53403 C 14.66 g/m*3 21.53 C 1.98368 km/h
1498 31-05-2018 00:00:00 22.62083 C 14.99 g/m*3 22.62 C 3.45486 km/h
1499 01-06-2018 00:00:00 19.10729 C 14.54 g/m*3 19.11 C 4.35868 km/h
1500 02-06-2018 00:00:00 19.22917 C 13.47 g/m*3 19.23 C 5.28611 km/h
Sensor: Nr:Datum:Temp:Abs-Feuchte:Windchill:Wind:
Aussen-T/F 1501 03-06-2018 00:00:00 19.42708 C 12.97 g/m*3 19.43 C 2.82708 km/h
1502 04-06-2018 00:00:00 20.95938 C 13.57 g/m*3 20.96 C 3.43438 km/h
1503 05-06-2018 00:00:00 20.70035 C 13.91 g/m*3 20.7 C 5.52604 km/h
1504 06-06-2018 00:00:00 21.09375 C 13.67 g/m*3 21.09 C 2.13264 km/h
1505 07-06-2018 00:00:00 21.15174 C 14.89 g/m*3 21.15 C 2.54375 km/h
1506 08-06-2018 00:00:00 20.94375 C 15.38 g/m*3 20.94 C 4.05243 km/h
1507 09-06-2018 00:00:00 21.9125 C 16.22 g/m*3 21.91 C 3.81424 km/h
1508 10-06-2018 00:00:00 21.38239 C 16.14 g/m*3 21.38 C 2.36972 km/h
1509 11-06-2018 00:00:00 19.19444 C 15.41 g/m*3 19.19 C 1.45208 km/h
1510 12-06-2018 00:00:00 16.41979 C 12.62 g/m*3 16.42 C 3.10035 km/h
1511 13-06-2018 00:00:00 14.8941 C 10.14 g/m*3 14.89 C 5.97188 km/h
1512 14-06-2018 00:00:00 14.94132 C 10.31 g/m*3 14.94 C 3.65938 km/h
1513 15-06-2018 00:00:00 17.84236 C 13.39 g/m*3 17.84 C 1.08993 km/h
1514 16-06-2018 00:00:00 19.99306 C 13.59 g/m*3 19.99 C 2.24653 km/h
1515 17-06-2018 00:00:00 17.94167 C 11.51 g/m*3 17.94 C 5.17674 km/h
1516 18-06-2018 00:00:00 17.81667 C 11.85 g/m*3 17.82 C 4.87361 km/h
1517 19-06-2018 00:00:00 18.89201 C 13.7 g/m*3 18.89 C 2.72743 km/h
1518 20-06-2018 00:00:00 23.07639 C 14.86 g/m*3 23.08 C 2.81944 km/h
1519 21-06-2018 00:00:00 17.92639 C 10.62 g/m*3 17.93 C 10.65278 km/h
1520 22-06-2018 00:00:00 13.74097 C 8.13 g/m*3 13.74 C 9.82257 km/h
1521 23-06-2018 00:00:00 13.76424 C 9.09 g/m*3 13.76 C 6.13715 km/h
1522 24-06-2018 00:00:00 15.88264 C 9.85 g/m*3 15.88 C 6.78854 km/h
1523 25-06-2018 00:00:00 17.09201 C 11.37 g/m*3 17.09 C 6.07222 km/h
1524 26-06-2018 00:00:00 17.67396 C 11.25 g/m*3 17.67 C 5.95694 km/h
1525 27-06-2018 00:00:00 19.15694 C 11.13 g/m*3 19.16 C 4.64965 km/h
Sensor: Nr:Datum:Temp:Abs-Feuchte:Windchill:Wind:
Aussen-T/F 1526 28-06-2018 00:00:00 20.71076 C 11.02 g/m*3 20.71 C 5.60243 km/h
1527 29-06-2018 00:00:00 24.11424 C 12.27 g/m*3 24.11 C 4.67813 km/h
1528 30-06-2018 00:00:00 22.06215 C 11.09 g/m*3 22.06 C 6.23715 km/h
1529 01-07-2018 00:00:00 20.86597 C 7.77 g/m*3 20.87 C 8.82986 km/h
1530 02-07-2018 00:00:00 20.44792 C 8.16 g/m*3 20.45 C 6.0309 km/h
1531 03-07-2018 00:00:00 20.73299 C 9.04 g/m*3 20.73 C 3.5059 km/h
1532 04-07-2018 00:00:00 18.84167 C 13.04 g/m*3 18.84 C 1.27917 km/h
1533 05-07-2018 00:00:00 19.41111 C 14.79 g/m*3 19.41 C 3.39375 km/h
1534 06-07-2018 00:00:00 20.03056 C 13.11 g/m*3 20.03 C 6.24271 km/h
1535 07-07-2018 00:00:00 20.66701 C 12.08 g/m*3 20.67 C 5.14271 km/h
1536 08-07-2018 00:00:00 19.71181 C 9.91 g/m*3 19.71 C 6.18611 km/h
1537 09-07-2018 00:00:00 19.32361 C 11.18 g/m*3 19.32 C 6.80556 km/h
1538 10-07-2018 00:00:00 17.13715 C 10.66 g/m*3 17.14 C 7.72882 km/h
1539 11-07-2018 00:00:00 16.10729 C 11.28 g/m*3 16.11 C 3.98125 km/h
1540 12-07-2018 00:00:00 19.59688 C 13.57 g/m*3 19.6 C 3.14028 km/h
1541 13-07-2018 00:00:00 19.72042 C 13.16 g/m*3 19.72 C 2.14155 km/h
1542 14-07-2018 00:00:00 21.51493 C 12.82 g/m*3 21.51 C 3.57118 km/h
1543 15-07-2018 00:00:00 21.63021 C 12.17 g/m*3 21.63 C 3.4066 km/h
1544 16-07-2018 00:00:00 22.30868 C 12.16 g/m*3 22.31 C 3.51597 km/h
1545 17-07-2018 00:00:00 21.01771 C 12.08 g/m*3 21.02 C 4.44653 km/h
1546 18-07-2018 00:00:00 20.29479 C 11.58 g/m*3 20.29 C 4.925 km/h
1547 19-07-2018 00:00:00 20.92431 C 11.04 g/m*3 20.92 C 3.30521 km/h
1548 20-07-2018 00:00:00 21.5559 C 11.66 g/m*3 21.56 C 2.28993 km/h
1549 21-07-2018 00:00:00 20.6125 C 13.86 g/m*3 20.61 C 3.49583 km/h
1550 22-07-2018 00:00:00 21.61458 C 13.3 g/m*3 21.61 C 4.60347 km/h
Sensor: Nr:Datum:Temp:Abs-Feuchte:Windchill:Wind:
Aussen-T/F 1551 23-07-2018 00:00:00 22.37917 C 13.31 g/m*3 22.38 C 3.60694 km/h
1552 24-07-2018 00:00:00 23.70278 C 13.64 g/m*3 23.7 C 2.55278 km/h
1553 25-07-2018 00:00:00 25.50069 C 13.57 g/m*3 25.5 C 3.23056 km/h
1554 26-07-2018 00:00:00 27.18785 C 14.1 g/m*3 27.19 C 3.77708 km/h
1555 27-07-2018 00:00:00 26.11146 C 12.37 g/m*3 26.11 C 3.51493 km/h
1556 28-07-2018 00:00:00 21.97743 C 14.81 g/m*3 21.98 C 3.04097 km/h
1557 29-07-2018 00:00:00 23.50521 C 13.97 g/m*3 23.51 C 3.90382 km/h
1558 30-07-2018 00:00:00 24.29931 C 14.26 g/m*3 24.3 C 1.89028 km/h
1559 31-07-2018 00:00:00 25.46875 C 14.65 g/m*3 25.47 C 4.19306 km/h
1560 01-08-2018 00:00:00 20.74271 C 15.79 g/m*3 20.74 C 0.31111 km/h
1561 02-08-2018 00:00:00 23.73056 C 15.9 g/m*3 23.73 C 1.25243 km/h
1562 03-08-2018 00:00:00 26.4684 C 15.25 g/m*3 26.47 C 1.16632 km/h
1563 04-08-2018 00:00:00 26.38714 C 14.42 g/m*3 26.39 C 3.28821 km/h
1564 05-08-2018 00:00:00 24.70486 C 13.5 g/m*3 24.7 C 6.56667 km/h
1565 06-08-2018 00:00:00 24.16944 C 12.66 g/m*3 24.17 C 2.99236 km/h
1566 07-08-2018 00:00:00 26.73646 C 14.08 g/m*3 26.74 C 3.08958 km/h
1567 08-08-2018 00:00:00 25.29618 C 14.35 g/m*3 25.3 C 7.74653 km/h
1568 09-08-2018 00:00:00 20.57778 C 14.79 g/m*3 20.58 C 3.725 km/h
1569 10-08-2018 00:00:00 18.35486 C 10.26 g/m*3 18.35 C 9.11354 km/h
1570 11-08-2018 00:00:00 18.37083 C 9.4 g/m*3 18.37 C 5.41806 km/h
1571 12-08-2018 00:00:00 18.15451 C 9.78 g/m*3 18.15 C 2.11215 km/h
1572 13-08-2018 00:00:00 17.68854 C 12.35 g/m*3 17.69 C 4.30764 km/h
1573 14-08-2018 00:00:00 18.53958 C 13.43 g/m*3 18.54 C 5.0875 km/h
1574 15-08-2018 00:00:00 19.375 C 13.2 g/m*3 19.38 C 1.80694 km/h
1575 16-08-2018 00:00:00 20.74444 C 12.86 g/m*3 20.74 C 1.88924 km/h
Sensor: Nr:Datum:Temp:Abs-Feuchte:Windchill:Wind:
Aussen-T/F 1576 17-08-2018 00:00:00 19.75903 C 13.06 g/m*3 19.76 C 6.20903 km/h
1577 18-08-2018 00:00:00 18.88785 C 11.13 g/m*3 18.89 C 2.50139 km/h
1578 19-08-2018 00:00:00 20.30521 C 11.86 g/m*3 20.31 C 3.60174 km/h
1579 20-08-2018 00:00:00 20.84444 C 13.36 g/m*3 20.84 C 3.3066 km/h
1580 21-08-2018 00:00:00 21.96979 C 13.69 g/m*3 21.97 C 1.92014 km/h
1581 22-08-2018 00:00:00 23.24757 C 13.71 g/m*3 23.25 C 3.28229 km/h
1582 23-08-2018 00:00:00 22.88681 C 14.1 g/m*3 22.89 C 4.65382 km/h
1583 24-08-2018 00:00:00 19.03368 C 10.7 g/m*3 19.03 C 6.54271 km/h
1584 25-08-2018 00:00:00 14.525 C 8.7 g/m*3 14.53 C 5.44653 km/h
1585 26-08-2018 00:00:00 13.80556 C 8.08 g/m*3 13.81 C 3.69514 km/h
1586 27-08-2018 00:00:00 18.12604 C 10.86 g/m*3 18.13 C 7.71493 km/h
1587 28-08-2018 00:00:00 18.12917 C 10.47 g/m*3 18.13 C 2.88611 km/h
1588 29-08-2018 00:00:00 17.15556 C 11.71 g/m*3 17.16 C 1.31146 km/h
1589 30-08-2018 00:00:00 17.22778 C 11.01 g/m*3 17.23 C 7.1434 km/h
1590 31-08-2018 00:00:00 15.05521 C 9.3 g/m*3 15.06 C 2.95764 km/h
1591 01-09-2018 00:00:00 14.30833 C 8.49 g/m*3 14.31 C 3.17847 km/h
1592 02-09-2018 00:00:00 14.27188 C 9.39 g/m*3 14.27 C 1.04236 km/h
1593 03-09-2018 00:00:00 18.05417 C 12.41 g/m*3 18.05 C 1.52118 km/h
1594 04-09-2018 00:00:00 20.01736 C 13.73 g/m*3 20.02 C 1.27465 km/h
1595 05-09-2018 00:00:00 20.91701 C 13.37 g/m*3 20.92 C 0.92604 km/h
1596 06-09-2018 00:00:00 18.07014 C 13.53 g/m*3 18.07 C 2.5934 km/h
1597 07-09-2018 00:00:00 15.72639 C 11.65 g/m*3 15.73 C 4.62847 km/h
1598 08-09-2018 00:00:00 13.53889 C 8.97 g/m*3 13.54 C 3.57882 km/h
1599 09-09-2018 00:00:00 16.94236 C 10.19 g/m*3 16.94 C 1.94688 km/h
1600 10-09-2018 00:00:00 17.5 C 10.7 g/m*3 17.5 C 3.28403 km/h
Sensor: Nr:Datum:Temp:Abs-Feuchte:Windchill:Wind:
Aussen-T/F 1601 11-09-2018 00:00:00 18.85868 C 11.38 g/m*3 18.86 C 5.47639 km/h
1602 12-09-2018 00:00:00 19.08646 C 11.68 g/m*3 19.09 C 4.25174 km/h
1603 13-09-2018 00:00:00 16.3625 C 11.93 g/m*3 16.36 C 3.12465 km/h
1604 14-09-2018 00:00:00 16.95174 C 10.29 g/m*3 16.95 C 2.13403 km/h
1605 15-09-2018 00:00:00 15.14028 C 9.1 g/m*3 15.14 C 1.64236 km/h
1606 16-09-2018 00:00:00 14.7184 C 9 g/m*3 14.72 C 2.22708 km/h
1607 17-09-2018 00:00:00 16.79306 C 9.83 g/m*3 16.79 C 0.61667 km/h
1608 18-09-2018 00:00:00 19.05208 C 11.48 g/m*3 19.05 C 3.21701 km/h
1609 19-09-2018 00:00:00 20.67951 C 12.9 g/m*3 20.68 C 5.20417 km/h
1610 20-09-2018 00:00:00 19.17153 C 11.91 g/m*3 19.17 C 4.2684 km/h
1611 21-09-2018 00:00:00 15.93472 C 10.69 g/m*3 15.93 C 6.0309 km/h
1612 22-09-2018 00:00:00 12.7566 C 8.63 g/m*3 12.76 C 6.55625 km/h
1613 23-09-2018 00:00:00 12.33056 C 10.27 g/m*3 12.33 C 5.07639 km/h
1614 24-09-2018 00:00:00 9.92396 C 8.02 g/m*3 9.92 C 4.49514 km/h
1615 25-09-2018 00:00:00 8.38785 C 7.27 g/m*3 8.39 C 1.4934 km/h
1616 26-09-2018 00:00:00 8.82917 C 7.21 g/m*3 8.83 C 0.35556 km/h
1617 27-09-2018 00:00:00 11.32708 C 8.57 g/m*3 11.33 C 0.08333 km/h
1618 28-09-2018 00:00:00 10.18526 C 8.66 g/m*3 10.19 C 2.01614 km/h
1619 29-09-2018 00:00:00 8.2941 C 6.89 g/m*3 8.29 C 1.77118 km/h
1620 30-09-2018 00:00:00 7.9427 C 6.81 g/m*3 7.94 C 0.31317 km/h
1621 01-10-2018 00:00:00 9.71701 C 7.5 g/m*3 9.35 C 5.29028 km/h
1622 02-10-2018 00:00:00 9.17604 C 7.81 g/m*3 7.65 C 10.00174 km/h
1623 03-10-2018 00:00:00 12.2809 C 8.9 g/m*3 12.28 C 4.68264 km/h
1624 04-10-2018 00:00:00 9.78056 C 8.08 g/m*3 9.78 C 0.8191 km/h
1625 05-10-2018 00:00:00 10.63021 C 8.63 g/m*3 10.63 C 0.50694 km/h
Sensor: Nr:Datum:Temp:Abs-Feuchte:Windchill:Wind:
Aussen-T/F 1626 06-10-2018 00:00:00 12.7691 C 9.95 g/m*3 12.77 C 0.41389 km/h
1627 07-10-2018 00:00:00 13.00243 C 10.1 g/m*3 13 C 2.18333 km/h
1628 08-10-2018 00:00:00 10.50347 C 8.59 g/m*3 10.5 C 0 km/h
1629 09-10-2018 00:00:00 11.75035 C 9.59 g/m*3 11.75 C 0 km/h
1630 10-10-2018 00:00:00 13.21285 C 10.38 g/m*3 13.21 C 0.62569 km/h
1631 11-10-2018 00:00:00 14.21701 C 10.79 g/m*3 14.22 C 0.79722 km/h
1632 12-10-2018 00:00:00 15.87882 C 11.67 g/m*3 15.88 C 0.89271 km/h
1633 13-10-2018 00:00:00 15.57986 C 11.19 g/m*3 15.58 C 0.48924 km/h
1634 14-10-2018 00:00:00 14.79965 C 10.52 g/m*3 14.8 C 0.86979 km/h
1635 15-10-2018 00:00:00 13.825 C 10.09 g/m*3 13.83 C 0 km/h
1636 16-10-2018 00:00:00 12.87292 C 9.73 g/m*3 12.87 C 0 km/h
1637 17-10-2018 00:00:00 12.82847 C 9.91 g/m*3 12.83 C 0.00556 km/h
1638 18-10-2018 00:00:00 14.04618 C 10.7 g/m*3 14.05 C 1.79028 km/h
1639 19-10-2018 00:00:00 12.08785 C 9.42 g/m*3 12.09 C 0.61667 km/h
1640 20-10-2018 00:00:00 11.03542 C 8.65 g/m*3 11.04 C 1.86285 km/h
1641 21-10-2018 00:00:00 7.3066 C 7.23 g/m*3 7.31 C 0.30556 km/h
1642 22-10-2018 00:00:00 7.67014 C 7.33 g/m*3 7.67 C 0.60174 km/h
1643 23-10-2018 00:00:00 9.04306 C 7.49 g/m*3 8.06 C 7.2 km/h
1644 24-10-2018 00:00:00 14.07604 C 10.46 g/m*3 14.08 C 10.49757 km/h
1645 25-10-2018 00:00:00 12.94722 C 9.42 g/m*3 12.95 C 3.93576 km/h
1646 26-10-2018 00:00:00 10.21354 C 7.7 g/m*3 10.21 C 4.89549 km/h
1647 27-10-2018 00:00:00 6.27118 C 6.72 g/m*3 6.27 C 1.42118 km/h
1648 28-10-2018 00:00:00 5.67778 C 5.91 g/m*3 4.13 C 7.2566 km/h
1649 29-10-2018 00:00:00 6.43264 C 6.33 g/m*3 4.79 C 8.1059 km/h
1650 30-10-2018 00:00:00 6.2809 C 6.77 g/m*3 4.51 C 8.54444 km/h
Sensor: Nr:Datum:Temp:Abs-Feuchte:Windchill:Wind:
Aussen-T/F 1651 31-10-2018 00:00:00 7.45382 C 6.93 g/m*3 7.45 C 1.11215 km/h
1652 01-11-2018 00:00:00 6.13194 C 6.96 g/m*3 6.13 C 0.48924 km/h
1653 02-11-2018 00:00:00 8.86597 C 8.22 g/m*3 8.87 C 0.78368 km/h
1654 03-11-2018 00:00:00 3.50521 C 5.93 g/m*3 3.51 C 0.67222 km/h
1655 04-11-2018 00:00:00 6.86007 C 7.31 g/m*3 6.86 C 0.38333 km/h
1656 05-11-2018 00:00:00 10.39097 C 8.87 g/m*3 10.39 C 0.67361 km/h
1657 06-11-2018 00:00:00 8.41806 C 8.13 g/m*3 8.42 C 0.3066 km/h
1658 07-11-2018 00:00:00 9.32118 C 8.32 g/m*3 9.32 C 0.58542 km/h
1659 08-11-2018 00:00:00 10.425 C 8.6 g/m*3 10.43 C 0.92951 km/h
1660 09-11-2018 00:00:00 9.62604 C 8.53 g/m*3 9.63 C 0.3 km/h
1661 10-11-2018 00:00:00 11.90347 C 9.55 g/m*3 11.9 C 3.35139 km/h
1662 11-11-2018 00:00:00 12.04618 C 9.68 g/m*3 12.05 C 2.21146 km/h
1663 12-11-2018 00:00:00 13.70069 C 10.66 g/m*3 13.7 C 1.59861 km/h
1664 13-11-2018 00:00:00 10.46076 C 8.95 g/m*3 10.46 C 4.08542 km/h
1665 14-11-2018 00:00:00 6.18264 C 7.1 g/m*3 6.18 C 0.64444 km/h
1666 15-11-2018 00:00:00 6.9816 C 7.09 g/m*3 6.98 C 2.73681 km/h
1667 16-11-2018 00:00:00 5.92778 C 6.49 g/m*3 5.93 C 1.62882 km/h
1668 17-11-2018 00:00:00 2.75417 C 5.19 g/m*3 2.75 C 3.52917 km/h
1669 18-11-2018 00:00:00 1.8566 C 4.39 g/m*3 1.86 C 2.95833 km/h
1670 19-11-2018 00:00:00 3.57014 C 5.02 g/m*3 1.97 C 6.32674 km/h
1671 20-11-2018 00:00:00 3.50972 C 4.93 g/m*3 1.56 C 7.37153 km/h
1672 21-11-2018 00:00:00 2.50312 C 5.1 g/m*3 2.5 C 2.6941 km/h
1673 22-11-2018 00:00:00 2.91458 C 5.21 g/m*3 2.91 C 1.31632 km/h
1674 23-11-2018 00:00:00 0.10868 C 4.66 g/m*3 0.11 C 0.55 km/h
1675 24-11-2018 00:00:00 4.74792 C 6.43 g/m*3 4.75 C 0.55556 km/h
Sensor: Nr:Datum:Temp:Abs-Feuchte:Windchill:Wind:
Aussen-T/F 1676 25-11-2018 00:00:00 5.98785 C 6.95 g/m*3 5.99 C 0.51111 km/h
1677 26-11-2018 00:00:00 6.65625 C 6.66 g/m*3 6.66 C 1.89167 km/h
1678 27-11-2018 00:00:00 4.12465 C 5.37 g/m*3 4.12 C 1.54063 km/h
1679 28-11-2018 00:00:00 3.7 C 5.71 g/m*3 3.7 C 1.97951 km/h
1680 29-11-2018 00:00:00 5.67875 C 6.59 g/m*3 5.68 C 3.46551 km/h
1681 30-11-2018 00:00:00 7.44514 C 7.55 g/m*3 7.45 C 0.94549 km/h
1682 01-12-2018 00:00:00 7.48993 C 7.33 g/m*3 7.49 C 2.10972 km/h
1683 02-12-2018 00:00:00 11.28056 C 9.48 g/m*3 11.28 C 5.58958 km/h
1684 03-12-2018 00:00:00 11.76701 C 10.06 g/m*3 11.77 C 5.55764 km/h
1685 04-12-2018 00:00:00 6.48715 C 6.82 g/m*3 6.49 C 3.99167 km/h
1686 05-12-2018 00:00:00 3.60729 C 5.96 g/m*3 3.61 C 0.56771 km/h
1687 06-12-2018 00:00:00 9.76042 C 8.69 g/m*3 9.45 C 5.09965 km/h
1688 07-12-2018 00:00:00 11.22882 C 8.8 g/m*3 11.23 C 13.66111 km/h
1689 08-12-2018 00:00:00 7.97361 C 7.3 g/m*3 5.22 C 16.51667 km/h
1690 09-12-2018 00:00:00 8.02544 C 7.29 g/m*3 5.82 C 12.63659 km/h
1691 10-12-2018 00:00:00 4.96771 C 6.19 g/m*3 3.14 C 7.82257 km/h
1692 11-12-2018 00:00:00 3.84375 C 5.9 g/m*3 3.84 C 3.11181 km/h
1693 12-12-2018 00:00:00 2.70801 C 5.57 g/m*3 2.71 C 0.53519 km/h
1694 13-12-2018 00:00:00 1.36181 C 4.65 g/m*3 1.36 C 2.34931 km/h
1695 14-12-2018 00:00:00 1.15521 C 4.06 g/m*3 1.16 C 2.10382 km/h
1696 15-12-2018 00:00:00 0.62683 C 3.98 g/m*3 0.63 C 2.64599 km/h
1697 16-12-2018 00:00:00 0.77743 C 4.63 g/m*3 0.78 C 1.95799 km/h
1698 17-12-2018 00:00:00 4.19722 C 6.11 g/m*3 4.2 C 3.82917 km/h
1699 18-12-2018 00:00:00 5.08229 C 6.17 g/m*3 5.08 C 4.64028 km/h
1700 19-12-2018 00:00:00 6.54495 C 6.68 g/m*3 6.54 C 2.72125 km/h
Sensor: Nr:Datum:Temp:Abs-Feuchte:Windchill:Wind:
Aussen-T/F 1701 20-12-2018 00:00:00 7.58741 C 7.22 g/m*3 6.6 C 6.32797 km/h
1702 21-12-2018 00:00:00 10.78507 C 8.54 g/m*3 9.26 C 12.03333 km/h
1703 22-12-2018 00:00:00 9.94266 C 8.04 g/m*3 8.86 C 8.38147 km/h
1704 23-12-2018 00:00:00 8.60868 C 8.05 g/m*3 7.96 C 5.68715 km/h
1705 24-12-2018 00:00:00 4.88924 C 6.13 g/m*3 3.68 C 5.76146 km/h
1706 25-12-2018 00:00:00 1.85208 C 5.13 g/m*3 1.85 C 1.84618 km/h
1707 26-12-2018 00:00:00 -0.91736 C 4.34 g/m*3 -0.92 C 1.68507 km/h
1708 27-12-2018 00:00:00 0.08125 C 4.67 g/m*3 0.08 C 0.02778 km/h
1709 28-12-2018 00:00:00 0.225 C 4.67 g/m*3 0.23 C 2.8559 km/h
1710 29-12-2018 00:00:00 2.70972 C 5.44 g/m*3 0.67 C 7.23681 km/h
1711 30-12-2018 00:00:00 7.50313 C 7 g/m*3 6.22 C 7.39896 km/h
1712 31-12-2018 00:00:00 7.59271 C 7.76 g/m*3 7.59 C 2.89201 km/h
1713 01-01-2019 00:00:00 7.09271 C 7.18 g/m*3 5.53 C 8.26563 km/h
1714 02-01-2019 00:00:00 3.70104 C 5.16 g/m*3 1.4 C 8.7934 km/h
1715 03-01-2019 00:00:00 2.03715 C 5.18 g/m*3 2.04 C 1.94688 km/h
1716 04-01-2019 00:00:00 3.13785 C 5.52 g/m*3 3.14 C 4.59583 km/h
1717 05-01-2019 00:00:00 5.92632 C 6.75 g/m*3 3.71 C 10.2814 km/h
1718 06-01-2019 00:00:00 5.76944 C 6.56 g/m*3 4.38 C 6.73993 km/h
1719 07-01-2019 00:00:00 5.50417 C 6.31 g/m*3 4.25 C 6.15417 km/h
1720 08-01-2019 00:00:00 6.62222 C 6.5 g/m*3 3.51 C 16.75417 km/h
1721 09-01-2019 00:00:00 3.90486 C 5.3 g/m*3 0.56 C 14.00139 km/h
1722 10-01-2019 00:00:00 2.05694 C 4.67 g/m*3 0.72 C 5.05833 km/h
1723 11-01-2019 00:00:00 2.82847 C 5.57 g/m*3 2.83 C 4.89375 km/h
1724 12-01-2019 00:00:00 5.96702 C 6.73 g/m*3 3.93 C 9.4367 km/h
1725 13-01-2019 00:00:00 7.73715 C 7.65 g/m*3 5.94 C 9.92257 km/h
Sensor: Nr:Datum:Temp:Abs-Feuchte:Windchill:Wind:
Aussen-T/F 1726 14-01-2019 00:00:00 5.07083 C 6.11 g/m*3 2.82 C 9.66493 km/h
1727 15-01-2019 00:00:00 4.78854 C 5.97 g/m*3 2.87 C 8.06424 km/h
1728 16-01-2019 00:00:00 5.27187 C 5.91 g/m*3 3.48 C 7.91701 km/h
1729 17-01-2019 00:00:00 5.0066 C 5.94 g/m*3 2.23 C 12.16181 km/h
1730 18-01-2019 00:00:00 0.77569 C 4.7 g/m*3 0.78 C 1.61667 km/h
1731 19-01-2019 00:00:00 -2.72396 C 3.74 g/m*3 -2.72 C 1.07778 km/h
1732 20-01-2019 00:00:00 -4.97187 C 3.17 g/m*3 -4.97 C 0.05556 km/h
1733 21-01-2019 00:00:00 -6.20972 C 2.93 g/m*3 -6.21 C 0.21111 km/h
1734 22-01-2019 00:00:00 -4.96667 C 3.14 g/m*3 -4.97 C 0.78403 km/h
1735 23-01-2019 00:00:00 -1.57743 C 3.88 g/m*3 -1.58 C 1.41597 km/h
1736 24-01-2019 00:00:00 -1.91736 C 3.56 g/m*3 -1.92 C 2.39757 km/h
1737 25-01-2019 00:00:00 0.28403 C 4.35 g/m*3 -2.25 C 7.52917 km/h
1738 26-01-2019 00:00:00 4.48229 C 6.06 g/m*3 1.72 C 11.54896 km/h
1739 27-01-2019 00:00:00 5.94583 C 6.52 g/m*3 4.45 C 7.2125 km/h
1740 28-01-2019 00:00:00 3.17118 C 5.47 g/m*3 0.05 C 11.95764 km/h
1741 29-01-2019 00:00:00 1.73021 C 4.89 g/m*3 1.73 C 3.30972 km/h
1742 30-01-2019 00:00:00 0.45972 C 4.67 g/m*3 0.46 C 2.56042 km/h
1743 31-01-2019 00:00:00 -0.09826 C 4.56 g/m*3 -0.1 C 0.61181 km/h
1744 01-02-2019 00:00:00 1.74826 C 5.22 g/m*3 1.75 C 2.25729 km/h
1745 02-02-2019 00:00:00 2.46701 C 5.56 g/m*3 2.47 C 1.11424 km/h
1746 03-02-2019 00:00:00 2.7 C 5.17 g/m*3 0.95 C 6.35208 km/h
1747 04-02-2019 00:00:00 1.83229 C 4.78 g/m*3 1.83 C 2.03576 km/h
1748 05-02-2019 00:00:00 4.34375 C 5.28 g/m*3 4.34 C 3.16076 km/h
1749 06-02-2019 00:00:00 1.17639 C 4.73 g/m*3 1.18 C 1.14826 km/h
1750 07-02-2019 00:00:00 5.09549 C 6.02 g/m*3 4 C 5.51563 km/h
Sensor: Nr:Datum:Temp:Abs-Feuchte:Windchill:Wind:
Aussen-T/F 1751 08-02-2019 00:00:00 7.42604 C 6.65 g/m*3 6.37 C 6.49063 km/h
1752 09-02-2019 00:00:00 8.6309 C 6.87 g/m*3 6.27 C 14.69618 km/h
1753 10-02-2019 00:00:00 7.96076 C 7.3 g/m*3 5.59 C 13.64931 km/h
1754 11-02-2019 00:00:00 4.86736 C 5.83 g/m*3 2.86 C 8.45313 km/h
1755 12-02-2019 00:00:00 3.71597 C 5.41 g/m*3 2.47 C 5.38715 km/h
1756 13-02-2019 00:00:00 1.77951 C 5.01 g/m*3 1.78 C 1.55556 km/h
1757 14-02-2019 00:00:00 0.77431 C 4.74 g/m*3 0.77 C 0.18889 km/h
1758 15-02-2019 00:00:00 2.33854 C 5.08 g/m*3 2.34 C 1.52292 km/h
1759 16-02-2019 00:00:00 3.375 C 5.4 g/m*3 3.38 C 1.05 km/h
1760 17-02-2019 00:00:00 3.45451 C 5.51 g/m*3 3.45 C 0.85556 km/h
1761 18-02-2019 00:00:00 3.69653 C 5.41 g/m*3 3.7 C 0.08889 km/h
1762 19-02-2019 00:00:00 5.85868 C 6.31 g/m*3 5.86 C 4.05208 km/h
1763 20-02-2019 00:00:00 4.70694 C 5.94 g/m*3 4.71 C 3.82396 km/h
1764 21-02-2019 00:00:00 6.3625 C 6.69 g/m*3 6.36 C 1.91701 km/h
1765 22-02-2019 00:00:00 9.91111 C 8.23 g/m*3 9.91 C 1.74063 km/h
1766 23-02-2019 00:00:00 5.41076 C 5.5 g/m*3 5.41 C 2.82049 km/h
1767 24-02-2019 00:00:00 3.39271 C 4.46 g/m*3 3.39 C 1.06285 km/h
1768 25-02-2019 00:00:00 5.05139 C 5.05 g/m*3 5.05 C 0.85556 km/h
1769 26-02-2019 00:00:00 6.18646 C 5.89 g/m*3 6.19 C 0.7 km/h
1770 27-02-2019 00:00:00 6.63576 C 6.02 g/m*3 6.64 C 0.66771 km/h
1771 28-02-2019 00:00:00 8.81701 C 6.88 g/m*3 7.56 C 8.26389 km/h
1772 01-03-2019 00:00:00 8.12708 C 7.67 g/m*3 7.6 C 5.08299 km/h
1773 02-03-2019 00:00:00 8.64236 C 7.33 g/m*3 7.51 C 7.58333 km/h
1774 03-03-2019 00:00:00 11.11319 C 8.07 g/m*3 11.11 C 14.64375 km/h
1775 04-03-2019 00:00:00 9.71875 C 7.23 g/m*3 7.28 C 17.49583 km/h
Sensor: Nr:Datum:Temp:Abs-Feuchte:Windchill:Wind:
Aussen-T/F 1776 05-03-2019 00:00:00 6.87396 C 6.27 g/m*3 4.69 C 11.10174 km/h
1777 06-03-2019 00:00:00 10.01944 C 7.43 g/m*3 10.02 C 3.02014 km/h
1778 07-03-2019 00:00:00 10.20729 C 7.54 g/m*3 8.16 C 15.05764 km/h
1779 08-03-2019 00:00:00 8.18854 C 6.62 g/m*3 6.16 C 11.77465 km/h
1780 09-03-2019 00:00:00 10.36875 C 7.38 g/m*3 8.07 C 17.70694 km/h
1781 10-03-2019 00:00:00 9.55694 C 7.02 g/m*3 7.36 C 15.05556 km/h
1782 11-03-2019 00:00:00 4.7934 C 5.35 g/m*3 2 C 12.03646 km/h
1783 12-03-2019 00:00:00 6.61563 C 5.3 g/m*3 5.21 C 7.28958 km/h
1784 13-03-2019 00:00:00 6.20382 C 6.09 g/m*3 3.06 C 16.23264 km/h
1785 14-03-2019 00:00:00 7.03611 C 6.78 g/m*3 4.51 C 13.30313 km/h
1786 15-03-2019 00:00:00 10.13993 C 8.27 g/m*3 8.37 C 12.83368 km/h
1787 16-03-2019 00:00:00 10.23472 C 8.16 g/m*3 8.5 C 12.67083 km/h
1788 17-03-2019 00:00:00 8.66319 C 6.71 g/m*3 6.38 C 14.17535 km/h
1789 18-03-2019 00:00:00 4.96458 C 5.77 g/m*3 3.21 C 7.55799 km/h
1790 19-03-2019 00:00:00 3.83715 C 5.06 g/m*3 3.84 C 1.64375 km/h
1791 20-03-2019 00:00:00 5.47951 C 5.42 g/m*3 5.48 C 1.55972 km/h
1792 21-03-2019 00:00:00 7.53194 C 5.9 g/m*3 7.53 C 2.00347 km/h
1793 22-03-2019 00:00:00 9.15799 C 6.43 g/m*3 9.16 C 2.43438 km/h
1794 23-03-2019 00:00:00 6.18576 C 6.43 g/m*3 6.19 C 3.01458 km/h
1795 24-03-2019 00:00:00 6.4583 C 6.26 g/m*3 6.46 C 4.16421 km/h
1796 25-03-2019 00:00:00 5.13299 C 5.9 g/m*3 3.06 C 8.93264 km/h
1797 26-03-2019 00:00:00 6.64792 C 6.18 g/m*3 6.65 C 4.81042 km/h
1798 27-03-2019 00:00:00 6.81528 C 6.18 g/m*3 6.82 C 2.65556 km/h
1799 28-03-2019 00:00:00 7.32535 C 6.47 g/m*3 7.33 C 2.7125 km/h
1800 29-03-2019 00:00:00 8.96493 C 6.97 g/m*3 8.96 C 3.02431 km/h
Sensor: Nr:Datum:Temp:Abs-Feuchte:Windchill:Wind:
Aussen-T/F 1801 30-03-2019 00:00:00 10.50104 C 7.06 g/m*3 10.5 C 3.54861 km/h
1802 31-03-2019 00:00:00 10.31594 C 7.68 g/m*3 10.32 C 2.38623 km/h
1803 01-04-2019 00:00:00 9.41771 C 6.81 g/m*3 9.42 C 4.33194 km/h
1804 02-04-2019 00:00:00 10.74375 C 7.5 g/m*3 10.74 C 3.93194 km/h
1805 03-04-2019 00:00:00 8.37083 C 7.36 g/m*3 8.37 C 1.94549 km/h
1806 04-04-2019 00:00:00 6.05799 C 6.79 g/m*3 6.06 C 1.46458 km/h
1807 05-04-2019 00:00:00 6.32535 C 6.83 g/m*3 6.33 C 1.74236 km/h
1808 06-04-2019 00:00:00 10.20313 C 7.94 g/m*3 10.2 C 2.74479 km/h
1809 07-04-2019 00:00:00 12.02083 C 8.01 g/m*3 12.02 C 3.89306 km/h
1810 08-04-2019 00:00:00 12.69757 C 9.48 g/m*3 12.7 C 1.27882 km/h
1811 09-04-2019 00:00:00 12.23472 C 9.56 g/m*3 12.23 C 1.83854 km/h
1812 10-04-2019 00:00:00 10.80035 C 6.51 g/m*3 10.19 C 6.83542 km/h
1813 11-04-2019 00:00:00 6.94306 C 4.71 g/m*3 5.69 C 6.93681 km/h
1814 12-04-2019 00:00:00 5.01528 C 4.01 g/m*3 3.21 C 7.79861 km/h
1815 13-04-2019 00:00:00 3.85556 C 4.76 g/m*3 3.86 C 4.46007 km/h
1816 14-04-2019 00:00:00 5.53576 C 5.39 g/m*3 5.54 C 4.95521 km/h
1817 15-04-2019 00:00:00 10.42187 C 6.72 g/m*3 9.97 C 5.95938 km/h
1818 16-04-2019 00:00:00 11.20417 C 6.8 g/m*3 11.2 C 4.46493 km/h
1819 17-04-2019 00:00:00 12.74861 C 9.36 g/m*3 12.75 C 3.09826 km/h
1820 18-04-2019 00:00:00 14.16528 C 7.93 g/m*3 14.17 C 5.55069 km/h
1821 19-04-2019 00:00:00 15.41285 C 7.41 g/m*3 15.41 C 5.63056 km/h
1822 20-04-2019 00:00:00 14.87153 C 7.8 g/m*3 14.87 C 3.90382 km/h
1823 21-04-2019 00:00:00 15.62813 C 7.79 g/m*3 15.63 C 3.06354 km/h
1824 22-04-2019 00:00:00 14.99375 C 7.63 g/m*3 14.99 C 5.28368 km/h
1825 23-04-2019 00:00:00 15.15903 C 7.91 g/m*3 15.16 C 4.94722 km/h
Sensor: Nr:Datum:Temp:Abs-Feuchte:Windchill:Wind:
Aussen-T/F 1826 24-04-2019 00:00:00 15.11424 C 9.44 g/m*3 15.11 C 4.87222 km/h

Maximal/Minimal-Werte vom 25.04.2014 - 24.04.2019

Sensor Min Max Avg
Temp
(Aussen-T/F)
-10.6 °C
22-01-2017  07:55:00
38.6 °C
04-07-2015  16:30:00
11.2 °C
Abs-Feuchte
(Aussen-T/F)
1.98 g/m*3
28-02-2018  00:00:00
18.22 g/m*3
04-07-2015  00:00:00
8.86 g/m*3
Windchill
(Aussen-T/F)
-10.3 C
28-02-2018  00:00:00
28.34 C
17-07-2015  00:00:00
10.89 C

Die Daten stammen von einer Davis Vantage Pro 2 Wetter-Station und werden unter Linux mit der Software wview2wettercgi und aufbereitet. Alle Angaben erfolgen ohne Gewähr für ihre Vollständigkeit oder Richtigkeit.
Kontakt: Rainer Krienke krienke@uni-koblenz.de . Meine Webseiten an der Uni Koblenz oder privat.
Version: $Revision: 0.78 $